<?xml version="1.0" encoding="UTF-8" standalone="no" ?>
<gpx xmlns="http://www.topografix.com/GPX/1/1" xmlns:xsi="http://www.w3.org/2001/XMLSchema-instance" xsi:schemaLocation="http://www.topografix.com/GPX/1/1 http://www.topografix.com/GPX/1/1/gpx.xsd" version="1.1" creator="VisuGPX - https://www.visugpx.com">
  <metadata>
    <name>VTT AM / NEBIAN</name>
    <desc><![CDATA[Sortie test après prépa suspensions ]]></desc>
  </metadata>
  <trk>
    <name><![CDATA[VTT AM / NEBIAN_1]]></name>
    <trkseg>
      <trkpt lat="43.60906" lon="3.43547">
        <ele>147</ele>
        <time>2017-11-12T12:35:22.000Z</time>
      </trkpt>
      <trkpt lat="43.60897" lon="3.43527">
        <ele>160</ele>
        <time>2017-11-12T12:36:27.000Z</time>
      </trkpt>
      <trkpt lat="43.60895" lon="3.43513">
        <ele>160</ele>
        <time>2017-11-12T12:36:31.000Z</time>
      </trkpt>
      <trkpt lat="43.60892" lon="3.435">
        <ele>160</ele>
        <time>2017-11-12T12:36:35.000Z</time>
      </trkpt>
      <trkpt lat="43.60886" lon="3.43482">
        <ele>161</ele>
        <time>2017-11-12T12:36:39.000Z</time>
      </trkpt>
      <trkpt lat="43.60876" lon="3.43467">
        <ele>161</ele>
        <time>2017-11-12T12:36:43.000Z</time>
      </trkpt>
      <trkpt lat="43.6087" lon="3.43451">
        <ele>161</ele>
        <time>2017-11-12T12:36:47.000Z</time>
      </trkpt>
      <trkpt lat="43.60867" lon="3.43434">
        <ele>161</ele>
        <time>2017-11-12T12:36:51.000Z</time>
      </trkpt>
      <trkpt lat="43.60867" lon="3.43434">
        <ele>161</ele>
        <time>2017-11-12T12:36:53.000Z</time>
      </trkpt>
      <trkpt lat="43.60867" lon="3.43417">
        <ele>161</ele>
        <time>2017-11-12T12:36:55.000Z</time>
      </trkpt>
      <trkpt lat="43.60867" lon="3.43417">
        <ele>161</ele>
        <time>2017-11-12T12:36:57.000Z</time>
      </trkpt>
      <trkpt lat="43.60867" lon="3.43417">
        <ele>161</ele>
        <time>2017-11-12T12:36:59.000Z</time>
      </trkpt>
      <trkpt lat="43.60867" lon="3.43417">
        <ele>161</ele>
        <time>2017-11-12T12:37:01.000Z</time>
      </trkpt>
      <trkpt lat="43.60867" lon="3.43417">
        <ele>161</ele>
        <time>2017-11-12T12:37:03.000Z</time>
      </trkpt>
      <trkpt lat="43.60867" lon="3.43417">
        <ele>161</ele>
        <time>2017-11-12T12:37:05.000Z</time>
      </trkpt>
      <trkpt lat="43.60867" lon="3.43417">
        <ele>161</ele>
        <time>2017-11-12T12:37:07.000Z</time>
      </trkpt>
      <trkpt lat="43.60867" lon="3.43417">
        <ele>161</ele>
        <time>2017-11-12T12:37:09.000Z</time>
      </trkpt>
      <trkpt lat="43.60867" lon="3.43417">
        <ele>161</ele>
        <time>2017-11-12T12:37:11.000Z</time>
      </trkpt>
      <trkpt lat="43.60867" lon="3.43417">
        <ele>161</ele>
        <time>2017-11-12T12:37:13.000Z</time>
      </trkpt>
      <trkpt lat="43.60867" lon="3.43417">
        <ele>161</ele>
        <time>2017-11-12T12:37:15.000Z</time>
      </trkpt>
      <trkpt lat="43.60867" lon="3.43417">
        <ele>161</ele>
        <time>2017-11-12T12:37:17.000Z</time>
      </trkpt>
      <trkpt lat="43.60867" lon="3.43417">
        <ele>161</ele>
        <time>2017-11-12T12:37:19.000Z</time>
      </trkpt>
      <trkpt lat="43.60867" lon="3.43417">
        <ele>161</ele>
        <time>2017-11-12T12:37:21.000Z</time>
      </trkpt>
      <trkpt lat="43.60867" lon="3.43417">
        <ele>161</ele>
        <time>2017-11-12T12:37:23.000Z</time>
      </trkpt>
      <trkpt lat="43.60867" lon="3.43417">
        <ele>161</ele>
        <time>2017-11-12T12:37:25.000Z</time>
      </trkpt>
      <trkpt lat="43.60867" lon="3.43417">
        <ele>161</ele>
        <time>2017-11-12T12:37:27.000Z</time>
      </trkpt>
      <trkpt lat="43.60867" lon="3.43417">
        <ele>161</ele>
        <time>2017-11-12T12:37:29.000Z</time>
      </trkpt>
      <trkpt lat="43.60867" lon="3.43417">
        <ele>161</ele>
        <time>2017-11-12T12:37:31.000Z</time>
      </trkpt>
      <trkpt lat="43.60867" lon="3.43417">
        <ele>161</ele>
        <time>2017-11-12T12:37:33.000Z</time>
      </trkpt>
      <trkpt lat="43.60867" lon="3.43417">
        <ele>161</ele>
        <time>2017-11-12T12:37:35.000Z</time>
      </trkpt>
      <trkpt lat="43.60867" lon="3.43417">
        <ele>161</ele>
        <time>2017-11-12T12:37:37.000Z</time>
      </trkpt>
      <trkpt lat="43.60867" lon="3.43417">
        <ele>161</ele>
        <time>2017-11-12T12:37:39.000Z</time>
      </trkpt>
      <trkpt lat="43.60867" lon="3.43417">
        <ele>161</ele>
        <time>2017-11-12T12:37:41.000Z</time>
      </trkpt>
      <trkpt lat="43.60867" lon="3.43417">
        <ele>161</ele>
        <time>2017-11-12T12:37:43.000Z</time>
      </trkpt>
      <trkpt lat="43.60867" lon="3.43417">
        <ele>161</ele>
        <time>2017-11-12T12:37:45.000Z</time>
      </trkpt>
      <trkpt lat="43.60867" lon="3.43417">
        <ele>161</ele>
        <time>2017-11-12T12:37:47.000Z</time>
      </trkpt>
      <trkpt lat="43.60867" lon="3.43417">
        <ele>161</ele>
        <time>2017-11-12T12:37:50.000Z</time>
      </trkpt>
      <trkpt lat="43.60867" lon="3.43417">
        <ele>161</ele>
        <time>2017-11-12T12:37:52.000Z</time>
      </trkpt>
      <trkpt lat="43.60869" lon="3.43331">
        <ele>169</ele>
        <time>2017-11-12T12:37:56.000Z</time>
      </trkpt>
      <trkpt lat="43.60871" lon="3.43284">
        <ele>169</ele>
        <time>2017-11-12T12:37:58.000Z</time>
      </trkpt>
      <trkpt lat="43.6087" lon="3.43259">
        <ele>170</ele>
        <time>2017-11-12T12:38:00.000Z</time>
      </trkpt>
      <trkpt lat="43.60866" lon="3.43245">
        <ele>170</ele>
        <time>2017-11-12T12:38:02.000Z</time>
      </trkpt>
      <trkpt lat="43.60861" lon="3.43235">
        <ele>170</ele>
        <time>2017-11-12T12:38:04.000Z</time>
      </trkpt>
      <trkpt lat="43.6085" lon="3.43222">
        <ele>171</ele>
        <time>2017-11-12T12:38:06.000Z</time>
      </trkpt>
      <trkpt lat="43.60835" lon="3.43214">
        <ele>171</ele>
        <time>2017-11-12T12:38:10.000Z</time>
      </trkpt>
      <trkpt lat="43.60823" lon="3.43204">
        <ele>174</ele>
        <time>2017-11-12T12:38:14.000Z</time>
      </trkpt>
      <trkpt lat="43.60809" lon="3.43196">
        <ele>176</ele>
        <time>2017-11-12T12:38:18.000Z</time>
      </trkpt>
      <trkpt lat="43.60796" lon="3.43185">
        <ele>177</ele>
        <time>2017-11-12T12:38:22.000Z</time>
      </trkpt>
      <trkpt lat="43.60787" lon="3.43168">
        <ele>177</ele>
        <time>2017-11-12T12:38:26.000Z</time>
      </trkpt>
      <trkpt lat="43.60787" lon="3.43168">
        <ele>177</ele>
        <time>2017-11-12T12:38:28.000Z</time>
      </trkpt>
      <trkpt lat="43.60793" lon="3.43157">
        <ele>177</ele>
        <time>2017-11-12T12:38:30.000Z</time>
      </trkpt>
      <trkpt lat="43.60793" lon="3.43157">
        <ele>177</ele>
        <time>2017-11-12T12:38:32.000Z</time>
      </trkpt>
      <trkpt lat="43.60793" lon="3.43157">
        <ele>177</ele>
        <time>2017-11-12T12:38:34.000Z</time>
      </trkpt>
      <trkpt lat="43.60793" lon="3.43157">
        <ele>177</ele>
        <time>2017-11-12T12:38:36.000Z</time>
      </trkpt>
      <trkpt lat="43.60793" lon="3.43157">
        <ele>177</ele>
        <time>2017-11-12T12:38:38.000Z</time>
      </trkpt>
      <trkpt lat="43.60793" lon="3.43157">
        <ele>177</ele>
        <time>2017-11-12T12:38:40.000Z</time>
      </trkpt>
      <trkpt lat="43.60793" lon="3.43157">
        <ele>177</ele>
        <time>2017-11-12T12:38:42.000Z</time>
      </trkpt>
      <trkpt lat="43.60793" lon="3.43157">
        <ele>177</ele>
        <time>2017-11-12T12:38:44.000Z</time>
      </trkpt>
      <trkpt lat="43.60767" lon="3.43106">
        <ele>180</ele>
        <time>2017-11-12T12:38:49.000Z</time>
      </trkpt>
      <trkpt lat="43.60751" lon="3.43091">
        <ele>180</ele>
        <time>2017-11-12T12:38:52.000Z</time>
      </trkpt>
      <trkpt lat="43.60743" lon="3.43081">
        <ele>179</ele>
        <time>2017-11-12T12:38:54.000Z</time>
      </trkpt>
      <trkpt lat="43.60732" lon="3.43073">
        <ele>179</ele>
        <time>2017-11-12T12:38:56.000Z</time>
      </trkpt>
      <trkpt lat="43.60723" lon="3.43066">
        <ele>179</ele>
        <time>2017-11-12T12:38:58.000Z</time>
      </trkpt>
      <trkpt lat="43.60714" lon="3.4305">
        <ele>179</ele>
        <time>2017-11-12T12:39:02.000Z</time>
      </trkpt>
      <trkpt lat="43.60714" lon="3.4305">
        <ele>179</ele>
        <time>2017-11-12T12:39:04.000Z</time>
      </trkpt>
      <trkpt lat="43.60701" lon="3.43031">
        <ele>182</ele>
        <time>2017-11-12T12:39:06.000Z</time>
      </trkpt>
      <trkpt lat="43.60692" lon="3.43006">
        <ele>184</ele>
        <time>2017-11-12T12:39:10.000Z</time>
      </trkpt>
      <trkpt lat="43.60695" lon="3.4299">
        <ele>184</ele>
        <time>2017-11-12T12:39:12.000Z</time>
      </trkpt>
      <trkpt lat="43.60699" lon="3.4298">
        <ele>184</ele>
        <time>2017-11-12T12:39:14.000Z</time>
      </trkpt>
      <trkpt lat="43.60699" lon="3.4298">
        <ele>184</ele>
        <time>2017-11-12T12:39:16.000Z</time>
      </trkpt>
      <trkpt lat="43.60699" lon="3.4298">
        <ele>184</ele>
        <time>2017-11-12T12:39:18.000Z</time>
      </trkpt>
      <trkpt lat="43.60699" lon="3.4298">
        <ele>184</ele>
        <time>2017-11-12T12:39:20.000Z</time>
      </trkpt>
      <trkpt lat="43.60699" lon="3.4298">
        <ele>184</ele>
        <time>2017-11-12T12:39:23.000Z</time>
      </trkpt>
      <trkpt lat="43.60699" lon="3.4298">
        <ele>184</ele>
        <time>2017-11-12T12:39:25.000Z</time>
      </trkpt>
      <trkpt lat="43.60699" lon="3.4298">
        <ele>184</ele>
        <time>2017-11-12T12:39:27.000Z</time>
      </trkpt>
      <trkpt lat="43.60716" lon="3.42934">
        <ele>184</ele>
        <time>2017-11-12T12:39:32.000Z</time>
      </trkpt>
      <trkpt lat="43.6072" lon="3.42916">
        <ele>184</ele>
        <time>2017-11-12T12:39:36.000Z</time>
      </trkpt>
      <trkpt lat="43.6072" lon="3.42916">
        <ele>184</ele>
        <time>2017-11-12T12:39:38.000Z</time>
      </trkpt>
      <trkpt lat="43.6072" lon="3.42916">
        <ele>184</ele>
        <time>2017-11-12T12:39:40.000Z</time>
      </trkpt>
      <trkpt lat="43.6072" lon="3.42916">
        <ele>184</ele>
        <time>2017-11-12T12:39:42.000Z</time>
      </trkpt>
      <trkpt lat="43.6072" lon="3.42916">
        <ele>184</ele>
        <time>2017-11-12T12:39:44.000Z</time>
      </trkpt>
      <trkpt lat="43.60709" lon="3.42904">
        <ele>185</ele>
        <time>2017-11-12T12:39:56.000Z</time>
      </trkpt>
      <trkpt lat="43.60702" lon="3.42895">
        <ele>185</ele>
        <time>2017-11-12T12:39:58.000Z</time>
      </trkpt>
      <trkpt lat="43.60697" lon="3.42888">
        <ele>185</ele>
        <time>2017-11-12T12:40:00.000Z</time>
      </trkpt>
      <trkpt lat="43.60693" lon="3.42883">
        <ele>186</ele>
        <time>2017-11-12T12:40:02.000Z</time>
      </trkpt>
      <trkpt lat="43.6069" lon="3.42878">
        <ele>186</ele>
        <time>2017-11-12T12:40:04.000Z</time>
      </trkpt>
      <trkpt lat="43.6069" lon="3.42878">
        <ele>186</ele>
        <time>2017-11-12T12:40:07.000Z</time>
      </trkpt>
      <trkpt lat="43.6069" lon="3.42878">
        <ele>186</ele>
        <time>2017-11-12T12:40:08.000Z</time>
      </trkpt>
      <trkpt lat="43.6069" lon="3.42878">
        <ele>186</ele>
        <time>2017-11-12T12:40:10.000Z</time>
      </trkpt>
      <trkpt lat="43.6069" lon="3.42878">
        <ele>186</ele>
        <time>2017-11-12T12:40:12.000Z</time>
      </trkpt>
      <trkpt lat="43.60701" lon="3.42869">
        <ele>186</ele>
        <time>2017-11-12T12:40:16.000Z</time>
      </trkpt>
      <trkpt lat="43.60712" lon="3.42863">
        <ele>187</ele>
        <time>2017-11-12T12:40:22.000Z</time>
      </trkpt>
      <trkpt lat="43.60722" lon="3.42856">
        <ele>187</ele>
        <time>2017-11-12T12:40:28.000Z</time>
      </trkpt>
      <trkpt lat="43.6073" lon="3.42851">
        <ele>188</ele>
        <time>2017-11-12T12:40:34.000Z</time>
      </trkpt>
      <trkpt lat="43.60741" lon="3.42841">
        <ele>188</ele>
        <time>2017-11-12T12:40:40.000Z</time>
      </trkpt>
      <trkpt lat="43.60751" lon="3.4283">
        <ele>188</ele>
        <time>2017-11-12T12:40:47.000Z</time>
      </trkpt>
      <trkpt lat="43.60759" lon="3.42824">
        <ele>188</ele>
        <time>2017-11-12T12:40:50.000Z</time>
      </trkpt>
      <trkpt lat="43.60769" lon="3.42815">
        <ele>189</ele>
        <time>2017-11-12T12:40:54.000Z</time>
      </trkpt>
      <trkpt lat="43.60776" lon="3.42805">
        <ele>189</ele>
        <time>2017-11-12T12:40:58.000Z</time>
      </trkpt>
      <trkpt lat="43.60776" lon="3.42805">
        <ele>189</ele>
        <time>2017-11-12T12:41:02.000Z</time>
      </trkpt>
      <trkpt lat="43.60776" lon="3.42805">
        <ele>189</ele>
        <time>2017-11-12T12:41:04.000Z</time>
      </trkpt>
      <trkpt lat="43.60776" lon="3.42805">
        <ele>189</ele>
        <time>2017-11-12T12:41:06.000Z</time>
      </trkpt>
      <trkpt lat="43.60776" lon="3.42805">
        <ele>189</ele>
        <time>2017-11-12T12:41:08.000Z</time>
      </trkpt>
      <trkpt lat="43.60776" lon="3.42805">
        <ele>189</ele>
        <time>2017-11-12T12:41:10.000Z</time>
      </trkpt>
      <trkpt lat="43.60776" lon="3.42805">
        <ele>189</ele>
        <time>2017-11-12T12:41:12.000Z</time>
      </trkpt>
      <trkpt lat="43.60776" lon="3.42805">
        <ele>189</ele>
        <time>2017-11-12T12:41:14.000Z</time>
      </trkpt>
      <trkpt lat="43.60803" lon="3.42765">
        <ele>193</ele>
        <time>2017-11-12T12:41:18.000Z</time>
      </trkpt>
      <trkpt lat="43.60813" lon="3.42756">
        <ele>194</ele>
        <time>2017-11-12T12:41:22.000Z</time>
      </trkpt>
      <trkpt lat="43.60822" lon="3.42746">
        <ele>195</ele>
        <time>2017-11-12T12:41:26.000Z</time>
      </trkpt>
      <trkpt lat="43.60826" lon="3.42741">
        <ele>195</ele>
        <time>2017-11-12T12:41:30.000Z</time>
      </trkpt>
      <trkpt lat="43.6083" lon="3.42734">
        <ele>196</ele>
        <time>2017-11-12T12:41:34.000Z</time>
      </trkpt>
      <trkpt lat="43.6083" lon="3.42734">
        <ele>196</ele>
        <time>2017-11-12T12:41:36.000Z</time>
      </trkpt>
      <trkpt lat="43.60835" lon="3.42724">
        <ele>196</ele>
        <time>2017-11-12T12:41:38.000Z</time>
      </trkpt>
      <trkpt lat="43.6084" lon="3.42714">
        <ele>199</ele>
        <time>2017-11-12T12:41:40.000Z</time>
      </trkpt>
      <trkpt lat="43.60843" lon="3.42703">
        <ele>200</ele>
        <time>2017-11-12T12:41:42.000Z</time>
      </trkpt>
      <trkpt lat="43.60846" lon="3.42691">
        <ele>201</ele>
        <time>2017-11-12T12:41:44.000Z</time>
      </trkpt>
      <trkpt lat="43.60849" lon="3.42678">
        <ele>201</ele>
        <time>2017-11-12T12:41:46.000Z</time>
      </trkpt>
      <trkpt lat="43.60857" lon="3.42649">
        <ele>200</ele>
        <time>2017-11-12T12:41:49.000Z</time>
      </trkpt>
      <trkpt lat="43.60861" lon="3.42635">
        <ele>200</ele>
        <time>2017-11-12T12:41:50.000Z</time>
      </trkpt>
      <trkpt lat="43.60866" lon="3.42621">
        <ele>200</ele>
        <time>2017-11-12T12:41:52.000Z</time>
      </trkpt>
      <trkpt lat="43.60859" lon="3.42607">
        <ele>200</ele>
        <time>2017-11-12T12:41:56.000Z</time>
      </trkpt>
      <trkpt lat="43.60859" lon="3.42607">
        <ele>200</ele>
        <time>2017-11-12T12:41:58.000Z</time>
      </trkpt>
      <trkpt lat="43.60859" lon="3.42607">
        <ele>200</ele>
        <time>2017-11-12T12:42:00.000Z</time>
      </trkpt>
      <trkpt lat="43.60859" lon="3.42607">
        <ele>200</ele>
        <time>2017-11-12T12:42:02.000Z</time>
      </trkpt>
      <trkpt lat="43.60859" lon="3.42607">
        <ele>200</ele>
        <time>2017-11-12T12:42:04.000Z</time>
      </trkpt>
      <trkpt lat="43.60859" lon="3.42607">
        <ele>200</ele>
        <time>2017-11-12T12:42:06.000Z</time>
      </trkpt>
      <trkpt lat="43.60859" lon="3.42607">
        <ele>200</ele>
        <time>2017-11-12T12:42:08.000Z</time>
      </trkpt>
      <trkpt lat="43.60859" lon="3.42607">
        <ele>200</ele>
        <time>2017-11-12T12:42:10.000Z</time>
      </trkpt>
      <trkpt lat="43.60859" lon="3.42607">
        <ele>200</ele>
        <time>2017-11-12T12:42:12.000Z</time>
      </trkpt>
      <trkpt lat="43.60859" lon="3.42607">
        <ele>200</ele>
        <time>2017-11-12T12:42:14.000Z</time>
      </trkpt>
      <trkpt lat="43.60859" lon="3.42607">
        <ele>200</ele>
        <time>2017-11-12T12:42:16.000Z</time>
      </trkpt>
      <trkpt lat="43.60859" lon="3.42607">
        <ele>200</ele>
        <time>2017-11-12T12:42:18.000Z</time>
      </trkpt>
      <trkpt lat="43.60859" lon="3.42607">
        <ele>200</ele>
        <time>2017-11-12T12:42:20.000Z</time>
      </trkpt>
      <trkpt lat="43.60859" lon="3.42607">
        <ele>200</ele>
        <time>2017-11-12T12:42:22.000Z</time>
      </trkpt>
      <trkpt lat="43.60859" lon="3.42607">
        <ele>200</ele>
        <time>2017-11-12T12:42:24.000Z</time>
      </trkpt>
      <trkpt lat="43.60859" lon="3.42607">
        <ele>200</ele>
        <time>2017-11-12T12:42:26.000Z</time>
      </trkpt>
      <trkpt lat="43.60859" lon="3.42607">
        <ele>200</ele>
        <time>2017-11-12T12:42:28.000Z</time>
      </trkpt>
      <trkpt lat="43.60859" lon="3.42607">
        <ele>200</ele>
        <time>2017-11-12T12:42:30.000Z</time>
      </trkpt>
      <trkpt lat="43.60859" lon="3.42607">
        <ele>200</ele>
        <time>2017-11-12T12:42:32.000Z</time>
      </trkpt>
      <trkpt lat="43.60859" lon="3.42607">
        <ele>200</ele>
        <time>2017-11-12T12:42:34.000Z</time>
      </trkpt>
      <trkpt lat="43.60859" lon="3.42607">
        <ele>200</ele>
        <time>2017-11-12T12:42:36.000Z</time>
      </trkpt>
      <trkpt lat="43.60853" lon="3.42487">
        <ele>203</ele>
        <time>2017-11-12T12:42:42.000Z</time>
      </trkpt>
      <trkpt lat="43.60856" lon="3.42475">
        <ele>204</ele>
        <time>2017-11-12T12:42:46.000Z</time>
      </trkpt>
      <trkpt lat="43.60859" lon="3.42462">
        <ele>205</ele>
        <time>2017-11-12T12:42:50.000Z</time>
      </trkpt>
      <trkpt lat="43.60862" lon="3.42449">
        <ele>206</ele>
        <time>2017-11-12T12:42:54.000Z</time>
      </trkpt>
      <trkpt lat="43.60866" lon="3.42432">
        <ele>207</ele>
        <time>2017-11-12T12:43:00.000Z</time>
      </trkpt>
      <trkpt lat="43.60866" lon="3.42432">
        <ele>207</ele>
        <time>2017-11-12T12:43:02.000Z</time>
      </trkpt>
      <trkpt lat="43.60866" lon="3.42432">
        <ele>207</ele>
        <time>2017-11-12T12:43:04.000Z</time>
      </trkpt>
      <trkpt lat="43.60868" lon="3.42418">
        <ele>208</ele>
        <time>2017-11-12T12:43:08.000Z</time>
      </trkpt>
      <trkpt lat="43.60871" lon="3.42407">
        <ele>209</ele>
        <time>2017-11-12T12:43:10.000Z</time>
      </trkpt>
      <trkpt lat="43.60873" lon="3.42398">
        <ele>209</ele>
        <time>2017-11-12T12:43:12.000Z</time>
      </trkpt>
      <trkpt lat="43.60875" lon="3.42389">
        <ele>210</ele>
        <time>2017-11-12T12:43:14.000Z</time>
      </trkpt>
      <trkpt lat="43.60876" lon="3.42381">
        <ele>210</ele>
        <time>2017-11-12T12:43:16.000Z</time>
      </trkpt>
      <trkpt lat="43.60878" lon="3.42364">
        <ele>210</ele>
        <time>2017-11-12T12:43:18.000Z</time>
      </trkpt>
      <trkpt lat="43.6088" lon="3.4235">
        <ele>211</ele>
        <time>2017-11-12T12:43:22.000Z</time>
      </trkpt>
      <trkpt lat="43.6088" lon="3.4235">
        <ele>211</ele>
        <time>2017-11-12T12:43:24.000Z</time>
      </trkpt>
      <trkpt lat="43.6088" lon="3.4235">
        <ele>211</ele>
        <time>2017-11-12T12:43:26.000Z</time>
      </trkpt>
      <trkpt lat="43.6088" lon="3.4235">
        <ele>211</ele>
        <time>2017-11-12T12:43:28.000Z</time>
      </trkpt>
      <trkpt lat="43.6088" lon="3.4235">
        <ele>211</ele>
        <time>2017-11-12T12:43:30.000Z</time>
      </trkpt>
      <trkpt lat="43.6088" lon="3.4235">
        <ele>211</ele>
        <time>2017-11-12T12:43:32.000Z</time>
      </trkpt>
      <trkpt lat="43.6088" lon="3.4235">
        <ele>211</ele>
        <time>2017-11-12T12:43:34.000Z</time>
      </trkpt>
      <trkpt lat="43.6088" lon="3.4235">
        <ele>211</ele>
        <time>2017-11-12T12:43:36.000Z</time>
      </trkpt>
      <trkpt lat="43.6088" lon="3.4235">
        <ele>211</ele>
        <time>2017-11-12T12:43:38.000Z</time>
      </trkpt>
      <trkpt lat="43.60907" lon="3.42293">
        <ele>214</ele>
        <time>2017-11-12T12:43:42.000Z</time>
      </trkpt>
      <trkpt lat="43.60915" lon="3.42285">
        <ele>215</ele>
        <time>2017-11-12T12:43:46.000Z</time>
      </trkpt>
      <trkpt lat="43.60923" lon="3.42278">
        <ele>216</ele>
        <time>2017-11-12T12:43:50.000Z</time>
      </trkpt>
      <trkpt lat="43.60931" lon="3.42271">
        <ele>217</ele>
        <time>2017-11-12T12:43:54.000Z</time>
      </trkpt>
      <trkpt lat="43.60931" lon="3.42271">
        <ele>217</ele>
        <time>2017-11-12T12:43:58.000Z</time>
      </trkpt>
      <trkpt lat="43.60931" lon="3.42271">
        <ele>217</ele>
        <time>2017-11-12T12:44:00.000Z</time>
      </trkpt>
      <trkpt lat="43.60931" lon="3.42271">
        <ele>217</ele>
        <time>2017-11-12T12:44:02.000Z</time>
      </trkpt>
      <trkpt lat="43.60931" lon="3.42271">
        <ele>217</ele>
        <time>2017-11-12T12:44:04.000Z</time>
      </trkpt>
      <trkpt lat="43.60931" lon="3.42271">
        <ele>217</ele>
        <time>2017-11-12T12:44:06.000Z</time>
      </trkpt>
      <trkpt lat="43.60971" lon="3.42251">
        <ele>219</ele>
        <time>2017-11-12T12:44:12.000Z</time>
      </trkpt>
      <trkpt lat="43.60971" lon="3.42251">
        <ele>219</ele>
        <time>2017-11-12T12:44:18.000Z</time>
      </trkpt>
      <trkpt lat="43.60971" lon="3.42251">
        <ele>219</ele>
        <time>2017-11-12T12:44:20.000Z</time>
      </trkpt>
      <trkpt lat="43.60971" lon="3.42251">
        <ele>219</ele>
        <time>2017-11-12T12:44:22.000Z</time>
      </trkpt>
      <trkpt lat="43.60971" lon="3.42251">
        <ele>219</ele>
        <time>2017-11-12T12:44:25.000Z</time>
      </trkpt>
      <trkpt lat="43.60971" lon="3.42251">
        <ele>219</ele>
        <time>2017-11-12T12:44:26.000Z</time>
      </trkpt>
      <trkpt lat="43.60971" lon="3.42251">
        <ele>219</ele>
        <time>2017-11-12T12:44:28.000Z</time>
      </trkpt>
      <trkpt lat="43.60971" lon="3.42251">
        <ele>219</ele>
        <time>2017-11-12T12:44:30.000Z</time>
      </trkpt>
      <trkpt lat="43.60971" lon="3.42251">
        <ele>219</ele>
        <time>2017-11-12T12:44:32.000Z</time>
      </trkpt>
      <trkpt lat="43.60971" lon="3.42251">
        <ele>219</ele>
        <time>2017-11-12T12:44:34.000Z</time>
      </trkpt>
      <trkpt lat="43.60971" lon="3.42251">
        <ele>219</ele>
        <time>2017-11-12T12:44:36.000Z</time>
      </trkpt>
      <trkpt lat="43.60971" lon="3.42251">
        <ele>219</ele>
        <time>2017-11-12T12:44:38.000Z</time>
      </trkpt>
      <trkpt lat="43.60971" lon="3.42251">
        <ele>219</ele>
        <time>2017-11-12T12:44:40.000Z</time>
      </trkpt>
      <trkpt lat="43.60971" lon="3.42251">
        <ele>219</ele>
        <time>2017-11-12T12:44:42.000Z</time>
      </trkpt>
      <trkpt lat="43.60971" lon="3.42251">
        <ele>219</ele>
        <time>2017-11-12T12:44:44.000Z</time>
      </trkpt>
      <trkpt lat="43.60971" lon="3.42251">
        <ele>219</ele>
        <time>2017-11-12T12:44:46.000Z</time>
      </trkpt>
      <trkpt lat="43.61002" lon="3.42222">
        <ele>223</ele>
        <time>2017-11-12T12:44:48.000Z</time>
      </trkpt>
      <trkpt lat="43.61018" lon="3.42205">
        <ele>223</ele>
        <time>2017-11-12T12:44:50.000Z</time>
      </trkpt>
      <trkpt lat="43.61028" lon="3.42195">
        <ele>224</ele>
        <time>2017-11-12T12:44:52.000Z</time>
      </trkpt>
      <trkpt lat="43.61034" lon="3.42187">
        <ele>224</ele>
        <time>2017-11-12T12:44:54.000Z</time>
      </trkpt>
      <trkpt lat="43.61039" lon="3.4218">
        <ele>224</ele>
        <time>2017-11-12T12:44:56.000Z</time>
      </trkpt>
      <trkpt lat="43.61047" lon="3.4217">
        <ele>224</ele>
        <time>2017-11-12T12:44:58.000Z</time>
      </trkpt>
      <trkpt lat="43.61055" lon="3.42154">
        <ele>225</ele>
        <time>2017-11-12T12:45:04.000Z</time>
      </trkpt>
      <trkpt lat="43.61061" lon="3.42141">
        <ele>226</ele>
        <time>2017-11-12T12:45:10.000Z</time>
      </trkpt>
      <trkpt lat="43.61061" lon="3.42141">
        <ele>226</ele>
        <time>2017-11-12T12:45:12.000Z</time>
      </trkpt>
      <trkpt lat="43.61061" lon="3.42141">
        <ele>226</ele>
        <time>2017-11-12T12:45:14.000Z</time>
      </trkpt>
      <trkpt lat="43.61061" lon="3.42141">
        <ele>226</ele>
        <time>2017-11-12T12:45:16.000Z</time>
      </trkpt>
      <trkpt lat="43.61061" lon="3.42141">
        <ele>226</ele>
        <time>2017-11-12T12:45:18.000Z</time>
      </trkpt>
      <trkpt lat="43.61061" lon="3.42141">
        <ele>226</ele>
        <time>2017-11-12T12:45:20.000Z</time>
      </trkpt>
      <trkpt lat="43.61061" lon="3.42141">
        <ele>226</ele>
        <time>2017-11-12T12:45:22.000Z</time>
      </trkpt>
      <trkpt lat="43.61061" lon="3.42141">
        <ele>226</ele>
        <time>2017-11-12T12:45:24.000Z</time>
      </trkpt>
      <trkpt lat="43.61061" lon="3.42141">
        <ele>226</ele>
        <time>2017-11-12T12:45:29.000Z</time>
      </trkpt>
      <trkpt lat="43.61061" lon="3.42141">
        <ele>226</ele>
        <time>2017-11-12T12:45:30.000Z</time>
      </trkpt>
      <trkpt lat="43.61061" lon="3.42141">
        <ele>226</ele>
        <time>2017-11-12T12:45:32.000Z</time>
      </trkpt>
      <trkpt lat="43.61061" lon="3.42141">
        <ele>226</ele>
        <time>2017-11-12T12:45:34.000Z</time>
      </trkpt>
      <trkpt lat="43.61061" lon="3.42141">
        <ele>226</ele>
        <time>2017-11-12T12:45:36.000Z</time>
      </trkpt>
      <trkpt lat="43.61061" lon="3.42141">
        <ele>226</ele>
        <time>2017-11-12T12:45:38.000Z</time>
      </trkpt>
      <trkpt lat="43.61061" lon="3.42141">
        <ele>226</ele>
        <time>2017-11-12T12:45:40.000Z</time>
      </trkpt>
      <trkpt lat="43.61061" lon="3.42141">
        <ele>226</ele>
        <time>2017-11-12T12:45:42.000Z</time>
      </trkpt>
      <trkpt lat="43.61061" lon="3.42141">
        <ele>226</ele>
        <time>2017-11-12T12:45:44.000Z</time>
      </trkpt>
      <trkpt lat="43.61061" lon="3.42141">
        <ele>226</ele>
        <time>2017-11-12T12:45:46.000Z</time>
      </trkpt>
      <trkpt lat="43.61061" lon="3.42141">
        <ele>226</ele>
        <time>2017-11-12T12:45:49.000Z</time>
      </trkpt>
      <trkpt lat="43.61061" lon="3.42141">
        <ele>226</ele>
        <time>2017-11-12T12:45:50.000Z</time>
      </trkpt>
      <trkpt lat="43.61061" lon="3.42141">
        <ele>226</ele>
        <time>2017-11-12T12:45:52.000Z</time>
      </trkpt>
      <trkpt lat="43.61061" lon="3.42141">
        <ele>226</ele>
        <time>2017-11-12T12:45:54.000Z</time>
      </trkpt>
      <trkpt lat="43.61061" lon="3.42141">
        <ele>226</ele>
        <time>2017-11-12T12:45:56.000Z</time>
      </trkpt>
      <trkpt lat="43.61061" lon="3.42141">
        <ele>226</ele>
        <time>2017-11-12T12:45:58.000Z</time>
      </trkpt>
      <trkpt lat="43.61061" lon="3.42141">
        <ele>226</ele>
        <time>2017-11-12T12:46:08.000Z</time>
      </trkpt>
      <trkpt lat="43.61061" lon="3.42141">
        <ele>226</ele>
        <time>2017-11-12T12:46:10.000Z</time>
      </trkpt>
      <trkpt lat="43.61097" lon="3.42071">
        <ele>237</ele>
        <time>2017-11-12T12:46:12.000Z</time>
      </trkpt>
      <trkpt lat="43.61116" lon="3.42033">
        <ele>237</ele>
        <time>2017-11-12T12:46:14.000Z</time>
      </trkpt>
      <trkpt lat="43.61126" lon="3.42013">
        <ele>238</ele>
        <time>2017-11-12T12:46:16.000Z</time>
      </trkpt>
      <trkpt lat="43.61132" lon="3.42">
        <ele>238</ele>
        <time>2017-11-12T12:46:18.000Z</time>
      </trkpt>
      <trkpt lat="43.61134" lon="3.41992">
        <ele>238</ele>
        <time>2017-11-12T12:46:20.000Z</time>
      </trkpt>
      <trkpt lat="43.61134" lon="3.41992">
        <ele>238</ele>
        <time>2017-11-12T12:46:22.000Z</time>
      </trkpt>
      <trkpt lat="43.61134" lon="3.41992">
        <ele>238</ele>
        <time>2017-11-12T12:46:24.000Z</time>
      </trkpt>
      <trkpt lat="43.61135" lon="3.41957">
        <ele>240</ele>
        <time>2017-11-12T12:46:30.000Z</time>
      </trkpt>
      <trkpt lat="43.61134" lon="3.41941">
        <ele>241</ele>
        <time>2017-11-12T12:46:36.000Z</time>
      </trkpt>
      <trkpt lat="43.61132" lon="3.41925">
        <ele>242</ele>
        <time>2017-11-12T12:46:42.000Z</time>
      </trkpt>
      <trkpt lat="43.61132" lon="3.41925">
        <ele>242</ele>
        <time>2017-11-12T12:46:44.000Z</time>
      </trkpt>
      <trkpt lat="43.61132" lon="3.41925">
        <ele>242</ele>
        <time>2017-11-12T12:46:46.000Z</time>
      </trkpt>
      <trkpt lat="43.6113" lon="3.41908">
        <ele>243</ele>
        <time>2017-11-12T12:46:48.000Z</time>
      </trkpt>
      <trkpt lat="43.61131" lon="3.41896">
        <ele>244</ele>
        <time>2017-11-12T12:46:52.000Z</time>
      </trkpt>
      <trkpt lat="43.61132" lon="3.4188">
        <ele>246</ele>
        <time>2017-11-12T12:46:58.000Z</time>
      </trkpt>
      <trkpt lat="43.61132" lon="3.4188">
        <ele>246</ele>
        <time>2017-11-12T12:47:00.000Z</time>
      </trkpt>
      <trkpt lat="43.61132" lon="3.4188">
        <ele>246</ele>
        <time>2017-11-12T12:47:02.000Z</time>
      </trkpt>
      <trkpt lat="43.61132" lon="3.4188">
        <ele>246</ele>
        <time>2017-11-12T12:47:04.000Z</time>
      </trkpt>
      <trkpt lat="43.61132" lon="3.4188">
        <ele>246</ele>
        <time>2017-11-12T12:47:06.000Z</time>
      </trkpt>
      <trkpt lat="43.61132" lon="3.4188">
        <ele>246</ele>
        <time>2017-11-12T12:47:08.000Z</time>
      </trkpt>
      <trkpt lat="43.61132" lon="3.4188">
        <ele>246</ele>
        <time>2017-11-12T12:47:11.000Z</time>
      </trkpt>
      <trkpt lat="43.61132" lon="3.4188">
        <ele>246</ele>
        <time>2017-11-12T12:47:12.000Z</time>
      </trkpt>
      <trkpt lat="43.61132" lon="3.4188">
        <ele>246</ele>
        <time>2017-11-12T12:47:14.000Z</time>
      </trkpt>
      <trkpt lat="43.61132" lon="3.4188">
        <ele>246</ele>
        <time>2017-11-12T12:47:16.000Z</time>
      </trkpt>
      <trkpt lat="43.61132" lon="3.4188">
        <ele>246</ele>
        <time>2017-11-12T12:47:18.000Z</time>
      </trkpt>
      <trkpt lat="43.61132" lon="3.4188">
        <ele>246</ele>
        <time>2017-11-12T12:47:20.000Z</time>
      </trkpt>
      <trkpt lat="43.61132" lon="3.4188">
        <ele>246</ele>
        <time>2017-11-12T12:47:22.000Z</time>
      </trkpt>
      <trkpt lat="43.61132" lon="3.4188">
        <ele>246</ele>
        <time>2017-11-12T12:47:24.000Z</time>
      </trkpt>
      <trkpt lat="43.61132" lon="3.4188">
        <ele>246</ele>
        <time>2017-11-12T12:47:26.000Z</time>
      </trkpt>
      <trkpt lat="43.61132" lon="3.4188">
        <ele>246</ele>
        <time>2017-11-12T12:47:28.000Z</time>
      </trkpt>
      <trkpt lat="43.61132" lon="3.4188">
        <ele>246</ele>
        <time>2017-11-12T12:47:34.000Z</time>
      </trkpt>
      <trkpt lat="43.61132" lon="3.4188">
        <ele>246</ele>
        <time>2017-11-12T12:47:36.000Z</time>
      </trkpt>
      <trkpt lat="43.61132" lon="3.4188">
        <ele>246</ele>
        <time>2017-11-12T12:47:38.000Z</time>
      </trkpt>
      <trkpt lat="43.61132" lon="3.4188">
        <ele>246</ele>
        <time>2017-11-12T12:47:40.000Z</time>
      </trkpt>
      <trkpt lat="43.61132" lon="3.4188">
        <ele>246</ele>
        <time>2017-11-12T12:47:42.000Z</time>
      </trkpt>
      <trkpt lat="43.61132" lon="3.4188">
        <ele>246</ele>
        <time>2017-11-12T12:47:50.000Z</time>
      </trkpt>
      <trkpt lat="43.61132" lon="3.4188">
        <ele>246</ele>
        <time>2017-11-12T12:47:52.000Z</time>
      </trkpt>
      <trkpt lat="43.61132" lon="3.4188">
        <ele>246</ele>
        <time>2017-11-12T12:47:54.000Z</time>
      </trkpt>
      <trkpt lat="43.61132" lon="3.4188">
        <ele>246</ele>
        <time>2017-11-12T12:47:56.000Z</time>
      </trkpt>
      <trkpt lat="43.61132" lon="3.4188">
        <ele>246</ele>
        <time>2017-11-12T12:47:58.000Z</time>
      </trkpt>
      <trkpt lat="43.61132" lon="3.4188">
        <ele>246</ele>
        <time>2017-11-12T12:48:00.000Z</time>
      </trkpt>
      <trkpt lat="43.61132" lon="3.4188">
        <ele>246</ele>
        <time>2017-11-12T12:48:02.000Z</time>
      </trkpt>
      <trkpt lat="43.61143" lon="3.41804">
        <ele>262</ele>
        <time>2017-11-12T12:48:06.000Z</time>
      </trkpt>
      <trkpt lat="43.61149" lon="3.41764">
        <ele>263</ele>
        <time>2017-11-12T12:48:08.000Z</time>
      </trkpt>
      <trkpt lat="43.61152" lon="3.41741">
        <ele>263</ele>
        <time>2017-11-12T12:48:10.000Z</time>
      </trkpt>
      <trkpt lat="43.61154" lon="3.41728">
        <ele>263</ele>
        <time>2017-11-12T12:48:12.000Z</time>
      </trkpt>
      <trkpt lat="43.61156" lon="3.41719">
        <ele>264</ele>
        <time>2017-11-12T12:48:14.000Z</time>
      </trkpt>
      <trkpt lat="43.61158" lon="3.41705">
        <ele>264</ele>
        <time>2017-11-12T12:48:16.000Z</time>
      </trkpt>
      <trkpt lat="43.61161" lon="3.41692">
        <ele>266</ele>
        <time>2017-11-12T12:48:22.000Z</time>
      </trkpt>
      <trkpt lat="43.61161" lon="3.41692">
        <ele>266</ele>
        <time>2017-11-12T12:48:24.000Z</time>
      </trkpt>
      <trkpt lat="43.61161" lon="3.41692">
        <ele>266</ele>
        <time>2017-11-12T12:48:26.000Z</time>
      </trkpt>
      <trkpt lat="43.61161" lon="3.41692">
        <ele>266</ele>
        <time>2017-11-12T12:48:29.000Z</time>
      </trkpt>
      <trkpt lat="43.61161" lon="3.41692">
        <ele>266</ele>
        <time>2017-11-12T12:48:30.000Z</time>
      </trkpt>
      <trkpt lat="43.61161" lon="3.41692">
        <ele>266</ele>
        <time>2017-11-12T12:48:32.000Z</time>
      </trkpt>
      <trkpt lat="43.61161" lon="3.41692">
        <ele>266</ele>
        <time>2017-11-12T12:48:34.000Z</time>
      </trkpt>
      <trkpt lat="43.61169" lon="3.41656">
        <ele>268</ele>
        <time>2017-11-12T12:48:38.000Z</time>
      </trkpt>
      <trkpt lat="43.61172" lon="3.41641">
        <ele>269</ele>
        <time>2017-11-12T12:48:44.000Z</time>
      </trkpt>
      <trkpt lat="43.61177" lon="3.41625">
        <ele>270</ele>
        <time>2017-11-12T12:48:50.000Z</time>
      </trkpt>
      <trkpt lat="43.6118" lon="3.41613">
        <ele>270</ele>
        <time>2017-11-12T12:48:54.000Z</time>
      </trkpt>
      <trkpt lat="43.61182" lon="3.41596">
        <ele>271</ele>
        <time>2017-11-12T12:49:00.000Z</time>
      </trkpt>
      <trkpt lat="43.61182" lon="3.41596">
        <ele>271</ele>
        <time>2017-11-12T12:49:02.000Z</time>
      </trkpt>
      <trkpt lat="43.61184" lon="3.41583">
        <ele>272</ele>
        <time>2017-11-12T12:49:04.000Z</time>
      </trkpt>
      <trkpt lat="43.61185" lon="3.4157">
        <ele>272</ele>
        <time>2017-11-12T12:49:08.000Z</time>
      </trkpt>
      <trkpt lat="43.61186" lon="3.41553">
        <ele>273</ele>
        <time>2017-11-12T12:49:14.000Z</time>
      </trkpt>
      <trkpt lat="43.61186" lon="3.41553">
        <ele>273</ele>
        <time>2017-11-12T12:49:16.000Z</time>
      </trkpt>
      <trkpt lat="43.61186" lon="3.41553">
        <ele>273</ele>
        <time>2017-11-12T12:49:18.000Z</time>
      </trkpt>
      <trkpt lat="43.61186" lon="3.41553">
        <ele>273</ele>
        <time>2017-11-12T12:49:20.000Z</time>
      </trkpt>
      <trkpt lat="43.61192" lon="3.41524">
        <ele>274</ele>
        <time>2017-11-12T12:49:24.000Z</time>
      </trkpt>
      <trkpt lat="43.61196" lon="3.41513">
        <ele>275</ele>
        <time>2017-11-12T12:49:28.000Z</time>
      </trkpt>
      <trkpt lat="43.61196" lon="3.41513">
        <ele>275</ele>
        <time>2017-11-12T12:49:30.000Z</time>
      </trkpt>
      <trkpt lat="43.61196" lon="3.41513">
        <ele>275</ele>
        <time>2017-11-12T12:49:32.000Z</time>
      </trkpt>
      <trkpt lat="43.61205" lon="3.41484">
        <ele>275</ele>
        <time>2017-11-12T12:49:38.000Z</time>
      </trkpt>
      <trkpt lat="43.61206" lon="3.41478">
        <ele>276</ele>
        <time>2017-11-12T12:49:43.000Z</time>
      </trkpt>
      <trkpt lat="43.61206" lon="3.41478">
        <ele>276</ele>
        <time>2017-11-12T12:49:44.000Z</time>
      </trkpt>
      <trkpt lat="43.61206" lon="3.41478">
        <ele>276</ele>
        <time>2017-11-12T12:49:46.000Z</time>
      </trkpt>
      <trkpt lat="43.61206" lon="3.41478">
        <ele>276</ele>
        <time>2017-11-12T12:49:48.000Z</time>
      </trkpt>
      <trkpt lat="43.61206" lon="3.41478">
        <ele>276</ele>
        <time>2017-11-12T12:49:50.000Z</time>
      </trkpt>
      <trkpt lat="43.61206" lon="3.41478">
        <ele>276</ele>
        <time>2017-11-12T12:49:52.000Z</time>
      </trkpt>
      <trkpt lat="43.61206" lon="3.41478">
        <ele>276</ele>
        <time>2017-11-12T12:49:54.000Z</time>
      </trkpt>
      <trkpt lat="43.61206" lon="3.41478">
        <ele>276</ele>
        <time>2017-11-12T12:49:56.000Z</time>
      </trkpt>
      <trkpt lat="43.61206" lon="3.41478">
        <ele>276</ele>
        <time>2017-11-12T12:49:58.000Z</time>
      </trkpt>
      <trkpt lat="43.61206" lon="3.41478">
        <ele>276</ele>
        <time>2017-11-12T12:50:00.000Z</time>
      </trkpt>
      <trkpt lat="43.61206" lon="3.41478">
        <ele>276</ele>
        <time>2017-11-12T12:50:02.000Z</time>
      </trkpt>
      <trkpt lat="43.61206" lon="3.41478">
        <ele>276</ele>
        <time>2017-11-12T12:50:04.000Z</time>
      </trkpt>
      <trkpt lat="43.61206" lon="3.41478">
        <ele>276</ele>
        <time>2017-11-12T12:50:06.000Z</time>
      </trkpt>
      <trkpt lat="43.61206" lon="3.41478">
        <ele>276</ele>
        <time>2017-11-12T12:50:08.000Z</time>
      </trkpt>
      <trkpt lat="43.61206" lon="3.41478">
        <ele>276</ele>
        <time>2017-11-12T12:50:10.000Z</time>
      </trkpt>
      <trkpt lat="43.61206" lon="3.41478">
        <ele>276</ele>
        <time>2017-11-12T12:50:12.000Z</time>
      </trkpt>
      <trkpt lat="43.61206" lon="3.41478">
        <ele>276</ele>
        <time>2017-11-12T12:50:14.000Z</time>
      </trkpt>
      <trkpt lat="43.61183" lon="3.4145">
        <ele>279</ele>
        <time>2017-11-12T12:50:20.000Z</time>
      </trkpt>
      <trkpt lat="43.61171" lon="3.41435">
        <ele>279</ele>
        <time>2017-11-12T12:50:22.000Z</time>
      </trkpt>
      <trkpt lat="43.61163" lon="3.41425">
        <ele>280</ele>
        <time>2017-11-12T12:50:24.000Z</time>
      </trkpt>
      <trkpt lat="43.61158" lon="3.41419">
        <ele>280</ele>
        <time>2017-11-12T12:50:26.000Z</time>
      </trkpt>
      <trkpt lat="43.61155" lon="3.41414">
        <ele>280</ele>
        <time>2017-11-12T12:50:28.000Z</time>
      </trkpt>
      <trkpt lat="43.61155" lon="3.41414">
        <ele>280</ele>
        <time>2017-11-12T12:50:30.000Z</time>
      </trkpt>
      <trkpt lat="43.61147" lon="3.41402">
        <ele>281</ele>
        <time>2017-11-12T12:50:32.000Z</time>
      </trkpt>
      <trkpt lat="43.61147" lon="3.41402">
        <ele>281</ele>
        <time>2017-11-12T12:50:40.000Z</time>
      </trkpt>
      <trkpt lat="43.61147" lon="3.41402">
        <ele>281</ele>
        <time>2017-11-12T12:50:42.000Z</time>
      </trkpt>
      <trkpt lat="43.61147" lon="3.41402">
        <ele>281</ele>
        <time>2017-11-12T12:50:44.000Z</time>
      </trkpt>
      <trkpt lat="43.61147" lon="3.41402">
        <ele>281</ele>
        <time>2017-11-12T12:50:46.000Z</time>
      </trkpt>
      <trkpt lat="43.61147" lon="3.41402">
        <ele>281</ele>
        <time>2017-11-12T12:50:48.000Z</time>
      </trkpt>
      <trkpt lat="43.61123" lon="3.41367">
        <ele>286</ele>
        <time>2017-11-12T12:50:54.000Z</time>
      </trkpt>
      <trkpt lat="43.61116" lon="3.41359">
        <ele>287</ele>
        <time>2017-11-12T12:50:58.000Z</time>
      </trkpt>
      <trkpt lat="43.61106" lon="3.41346">
        <ele>287</ele>
        <time>2017-11-12T12:51:04.000Z</time>
      </trkpt>
      <trkpt lat="43.61095" lon="3.41335">
        <ele>288</ele>
        <time>2017-11-12T12:51:10.000Z</time>
      </trkpt>
      <trkpt lat="43.61085" lon="3.41326">
        <ele>288</ele>
        <time>2017-11-12T12:51:16.000Z</time>
      </trkpt>
      <trkpt lat="43.61076" lon="3.41313">
        <ele>288</ele>
        <time>2017-11-12T12:51:22.000Z</time>
      </trkpt>
      <trkpt lat="43.61076" lon="3.41313">
        <ele>288</ele>
        <time>2017-11-12T12:51:24.000Z</time>
      </trkpt>
      <trkpt lat="43.61076" lon="3.41313">
        <ele>288</ele>
        <time>2017-11-12T12:51:26.000Z</time>
      </trkpt>
      <trkpt lat="43.61068" lon="3.413">
        <ele>289</ele>
        <time>2017-11-12T12:51:28.000Z</time>
      </trkpt>
      <trkpt lat="43.61058" lon="3.41288">
        <ele>289</ele>
        <time>2017-11-12T12:51:34.000Z</time>
      </trkpt>
      <trkpt lat="43.61058" lon="3.41288">
        <ele>289</ele>
        <time>2017-11-12T12:51:36.000Z</time>
      </trkpt>
      <trkpt lat="43.61058" lon="3.41288">
        <ele>289</ele>
        <time>2017-11-12T12:51:38.000Z</time>
      </trkpt>
      <trkpt lat="43.61058" lon="3.41288">
        <ele>289</ele>
        <time>2017-11-12T12:51:40.000Z</time>
      </trkpt>
      <trkpt lat="43.61058" lon="3.41288">
        <ele>289</ele>
        <time>2017-11-12T12:51:42.000Z</time>
      </trkpt>
      <trkpt lat="43.61058" lon="3.41288">
        <ele>289</ele>
        <time>2017-11-12T12:51:44.000Z</time>
      </trkpt>
      <trkpt lat="43.61058" lon="3.41288">
        <ele>289</ele>
        <time>2017-11-12T12:51:46.000Z</time>
      </trkpt>
      <trkpt lat="43.61058" lon="3.41288">
        <ele>289</ele>
        <time>2017-11-12T12:51:48.000Z</time>
      </trkpt>
      <trkpt lat="43.61058" lon="3.41288">
        <ele>289</ele>
        <time>2017-11-12T12:51:50.000Z</time>
      </trkpt>
      <trkpt lat="43.61058" lon="3.41288">
        <ele>289</ele>
        <time>2017-11-12T12:51:52.000Z</time>
      </trkpt>
      <trkpt lat="43.61058" lon="3.41288">
        <ele>289</ele>
        <time>2017-11-12T12:51:54.000Z</time>
      </trkpt>
      <trkpt lat="43.61058" lon="3.41288">
        <ele>289</ele>
        <time>2017-11-12T12:51:56.000Z</time>
      </trkpt>
      <trkpt lat="43.61058" lon="3.41288">
        <ele>289</ele>
        <time>2017-11-12T12:51:58.000Z</time>
      </trkpt>
      <trkpt lat="43.61058" lon="3.41288">
        <ele>289</ele>
        <time>2017-11-12T12:52:00.000Z</time>
      </trkpt>
      <trkpt lat="43.61058" lon="3.41288">
        <ele>289</ele>
        <time>2017-11-12T12:52:06.000Z</time>
      </trkpt>
      <trkpt lat="43.61058" lon="3.41288">
        <ele>289</ele>
        <time>2017-11-12T12:52:08.000Z</time>
      </trkpt>
      <trkpt lat="43.61058" lon="3.41288">
        <ele>289</ele>
        <time>2017-11-12T12:52:10.000Z</time>
      </trkpt>
      <trkpt lat="43.61026" lon="3.41262">
        <ele>295</ele>
        <time>2017-11-12T12:52:14.000Z</time>
      </trkpt>
      <trkpt lat="43.61008" lon="3.41249">
        <ele>295</ele>
        <time>2017-11-12T12:52:16.000Z</time>
      </trkpt>
      <trkpt lat="43.60997" lon="3.41241">
        <ele>296</ele>
        <time>2017-11-12T12:52:18.000Z</time>
      </trkpt>
      <trkpt lat="43.6099" lon="3.41236">
        <ele>296</ele>
        <time>2017-11-12T12:52:20.000Z</time>
      </trkpt>
      <trkpt lat="43.60985" lon="3.41232">
        <ele>297</ele>
        <time>2017-11-12T12:52:22.000Z</time>
      </trkpt>
      <trkpt lat="43.60985" lon="3.41232">
        <ele>297</ele>
        <time>2017-11-12T12:52:25.000Z</time>
      </trkpt>
      <trkpt lat="43.60985" lon="3.41232">
        <ele>297</ele>
        <time>2017-11-12T12:52:26.000Z</time>
      </trkpt>
      <trkpt lat="43.60985" lon="3.41232">
        <ele>297</ele>
        <time>2017-11-12T12:52:28.000Z</time>
      </trkpt>
      <trkpt lat="43.6096" lon="3.4121">
        <ele>298</ele>
        <time>2017-11-12T12:52:34.000Z</time>
      </trkpt>
      <trkpt lat="43.60947" lon="3.41209">
        <ele>299</ele>
        <time>2017-11-12T12:52:40.000Z</time>
      </trkpt>
      <trkpt lat="43.60938" lon="3.41208">
        <ele>302</ele>
        <time>2017-11-12T12:52:42.000Z</time>
      </trkpt>
      <trkpt lat="43.60921" lon="3.41208">
        <ele>303</ele>
        <time>2017-11-12T12:52:46.000Z</time>
      </trkpt>
      <trkpt lat="43.60909" lon="3.41207">
        <ele>303</ele>
        <time>2017-11-12T12:52:50.000Z</time>
      </trkpt>
      <trkpt lat="43.60896" lon="3.41211">
        <ele>303</ele>
        <time>2017-11-12T12:52:54.000Z</time>
      </trkpt>
      <trkpt lat="43.60883" lon="3.41213">
        <ele>303</ele>
        <time>2017-11-12T12:52:58.000Z</time>
      </trkpt>
      <trkpt lat="43.6087" lon="3.4122">
        <ele>303</ele>
        <time>2017-11-12T12:53:02.000Z</time>
      </trkpt>
      <trkpt lat="43.60854" lon="3.41226">
        <ele>303</ele>
        <time>2017-11-12T12:53:06.000Z</time>
      </trkpt>
      <trkpt lat="43.60854" lon="3.41226">
        <ele>303</ele>
        <time>2017-11-12T12:53:10.000Z</time>
      </trkpt>
      <trkpt lat="43.60854" lon="3.41226">
        <ele>303</ele>
        <time>2017-11-12T12:53:12.000Z</time>
      </trkpt>
      <trkpt lat="43.60854" lon="3.41226">
        <ele>303</ele>
        <time>2017-11-12T12:53:14.000Z</time>
      </trkpt>
      <trkpt lat="43.60854" lon="3.41226">
        <ele>303</ele>
        <time>2017-11-12T12:53:16.000Z</time>
      </trkpt>
      <trkpt lat="43.60854" lon="3.41226">
        <ele>303</ele>
        <time>2017-11-12T12:53:18.000Z</time>
      </trkpt>
      <trkpt lat="43.60854" lon="3.41226">
        <ele>303</ele>
        <time>2017-11-12T12:53:20.000Z</time>
      </trkpt>
      <trkpt lat="43.60854" lon="3.41226">
        <ele>303</ele>
        <time>2017-11-12T12:53:22.000Z</time>
      </trkpt>
      <trkpt lat="43.60854" lon="3.41226">
        <ele>303</ele>
        <time>2017-11-12T12:53:24.000Z</time>
      </trkpt>
      <trkpt lat="43.60854" lon="3.41226">
        <ele>303</ele>
        <time>2017-11-12T12:53:26.000Z</time>
      </trkpt>
      <trkpt lat="43.60854" lon="3.41226">
        <ele>303</ele>
        <time>2017-11-12T12:53:28.000Z</time>
      </trkpt>
      <trkpt lat="43.60854" lon="3.41226">
        <ele>303</ele>
        <time>2017-11-12T12:53:30.000Z</time>
      </trkpt>
      <trkpt lat="43.60842" lon="3.41171">
        <ele>302</ele>
        <time>2017-11-12T12:53:36.000Z</time>
      </trkpt>
      <trkpt lat="43.60832" lon="3.41161">
        <ele>300</ele>
        <time>2017-11-12T12:53:42.000Z</time>
      </trkpt>
      <trkpt lat="43.60832" lon="3.41161">
        <ele>300</ele>
        <time>2017-11-12T12:53:46.000Z</time>
      </trkpt>
      <trkpt lat="43.60832" lon="3.41161">
        <ele>300</ele>
        <time>2017-11-12T12:53:48.000Z</time>
      </trkpt>
      <trkpt lat="43.60837" lon="3.41149">
        <ele>297</ele>
        <time>2017-11-12T12:53:52.000Z</time>
      </trkpt>
      <trkpt lat="43.60841" lon="3.4114">
        <ele>296</ele>
        <time>2017-11-12T12:53:54.000Z</time>
      </trkpt>
      <trkpt lat="43.60842" lon="3.41133">
        <ele>296</ele>
        <time>2017-11-12T12:53:56.000Z</time>
      </trkpt>
      <trkpt lat="43.60842" lon="3.41133">
        <ele>296</ele>
        <time>2017-11-12T12:53:58.000Z</time>
      </trkpt>
      <trkpt lat="43.60842" lon="3.41133">
        <ele>296</ele>
        <time>2017-11-12T12:54:00.000Z</time>
      </trkpt>
      <trkpt lat="43.60842" lon="3.41133">
        <ele>296</ele>
        <time>2017-11-12T12:54:02.000Z</time>
      </trkpt>
      <trkpt lat="43.60842" lon="3.41133">
        <ele>296</ele>
        <time>2017-11-12T12:54:04.000Z</time>
      </trkpt>
      <trkpt lat="43.60837" lon="3.41112">
        <ele>290</ele>
        <time>2017-11-12T12:54:08.000Z</time>
      </trkpt>
      <trkpt lat="43.60835" lon="3.41099">
        <ele>289</ele>
        <time>2017-11-12T12:54:10.000Z</time>
      </trkpt>
      <trkpt lat="43.60836" lon="3.4109">
        <ele>288</ele>
        <time>2017-11-12T12:54:12.000Z</time>
      </trkpt>
      <trkpt lat="43.60836" lon="3.4109">
        <ele>288</ele>
        <time>2017-11-12T12:54:14.000Z</time>
      </trkpt>
      <trkpt lat="43.60836" lon="3.4109">
        <ele>288</ele>
        <time>2017-11-12T12:54:16.000Z</time>
      </trkpt>
      <trkpt lat="43.60829" lon="3.41053">
        <ele>264</ele>
        <time>2017-11-12T12:54:23.000Z</time>
      </trkpt>
      <trkpt lat="43.60823" lon="3.41022">
        <ele>259</ele>
        <time>2017-11-12T12:54:25.000Z</time>
      </trkpt>
      <trkpt lat="43.60817" lon="3.40997">
        <ele>254</ele>
        <time>2017-11-12T12:54:27.000Z</time>
      </trkpt>
      <trkpt lat="43.60814" lon="3.40978">
        <ele>251</ele>
        <time>2017-11-12T12:54:29.000Z</time>
      </trkpt>
      <trkpt lat="43.60814" lon="3.40978">
        <ele>251</ele>
        <time>2017-11-12T12:54:32.000Z</time>
      </trkpt>
      <trkpt lat="43.60814" lon="3.40978">
        <ele>251</ele>
        <time>2017-11-12T12:54:34.000Z</time>
      </trkpt>
      <trkpt lat="43.60814" lon="3.40978">
        <ele>251</ele>
        <time>2017-11-12T12:54:36.000Z</time>
      </trkpt>
      <trkpt lat="43.60789" lon="3.40956">
        <ele>243</ele>
        <time>2017-11-12T12:54:42.000Z</time>
      </trkpt>
      <trkpt lat="43.60771" lon="3.4094">
        <ele>240</ele>
        <time>2017-11-12T12:54:44.000Z</time>
      </trkpt>
      <trkpt lat="43.60758" lon="3.40929">
        <ele>237</ele>
        <time>2017-11-12T12:54:46.000Z</time>
      </trkpt>
      <trkpt lat="43.60744" lon="3.4092">
        <ele>234</ele>
        <time>2017-11-12T12:54:48.000Z</time>
      </trkpt>
      <trkpt lat="43.60729" lon="3.40914">
        <ele>232</ele>
        <time>2017-11-12T12:54:50.000Z</time>
      </trkpt>
      <trkpt lat="43.60695" lon="3.40914">
        <ele>230</ele>
        <time>2017-11-12T12:54:53.000Z</time>
      </trkpt>
      <trkpt lat="43.60682" lon="3.40919">
        <ele>229</ele>
        <time>2017-11-12T12:54:55.000Z</time>
      </trkpt>
      <trkpt lat="43.60682" lon="3.40919">
        <ele>229</ele>
        <time>2017-11-12T12:54:57.000Z</time>
      </trkpt>
      <trkpt lat="43.60682" lon="3.40919">
        <ele>229</ele>
        <time>2017-11-12T12:54:59.000Z</time>
      </trkpt>
      <trkpt lat="43.60682" lon="3.40919">
        <ele>229</ele>
        <time>2017-11-12T12:55:01.000Z</time>
      </trkpt>
      <trkpt lat="43.60682" lon="3.40919">
        <ele>229</ele>
        <time>2017-11-12T12:55:03.000Z</time>
      </trkpt>
      <trkpt lat="43.60682" lon="3.40919">
        <ele>229</ele>
        <time>2017-11-12T12:55:05.000Z</time>
      </trkpt>
      <trkpt lat="43.60682" lon="3.40919">
        <ele>229</ele>
        <time>2017-11-12T12:55:07.000Z</time>
      </trkpt>
      <trkpt lat="43.60682" lon="3.40919">
        <ele>229</ele>
        <time>2017-11-12T12:55:09.000Z</time>
      </trkpt>
      <trkpt lat="43.60682" lon="3.40919">
        <ele>229</ele>
        <time>2017-11-12T12:55:11.000Z</time>
      </trkpt>
      <trkpt lat="43.60682" lon="3.40919">
        <ele>229</ele>
        <time>2017-11-12T12:55:13.000Z</time>
      </trkpt>
      <trkpt lat="43.60603" lon="3.40952">
        <ele>220</ele>
        <time>2017-11-12T12:55:15.000Z</time>
      </trkpt>
      <trkpt lat="43.60588" lon="3.40945">
        <ele>219</ele>
        <time>2017-11-12T12:55:17.000Z</time>
      </trkpt>
      <trkpt lat="43.60576" lon="3.40936">
        <ele>218</ele>
        <time>2017-11-12T12:55:19.000Z</time>
      </trkpt>
      <trkpt lat="43.60576" lon="3.40936">
        <ele>218</ele>
        <time>2017-11-12T12:55:22.000Z</time>
      </trkpt>
      <trkpt lat="43.60576" lon="3.40936">
        <ele>218</ele>
        <time>2017-11-12T12:55:24.000Z</time>
      </trkpt>
      <trkpt lat="43.60576" lon="3.40936">
        <ele>218</ele>
        <time>2017-11-12T12:55:26.000Z</time>
      </trkpt>
      <trkpt lat="43.60576" lon="3.40936">
        <ele>218</ele>
        <time>2017-11-12T12:55:28.000Z</time>
      </trkpt>
      <trkpt lat="43.60573" lon="3.40891">
        <ele>214</ele>
        <time>2017-11-12T12:55:48.000Z</time>
      </trkpt>
      <trkpt lat="43.60585" lon="3.40852">
        <ele>206</ele>
        <time>2017-11-12T12:55:53.000Z</time>
      </trkpt>
      <trkpt lat="43.6059" lon="3.40833">
        <ele>204</ele>
        <time>2017-11-12T12:55:55.000Z</time>
      </trkpt>
      <trkpt lat="43.60594" lon="3.40815">
        <ele>202</ele>
        <time>2017-11-12T12:55:57.000Z</time>
      </trkpt>
      <trkpt lat="43.60603" lon="3.40805">
        <ele>200</ele>
        <time>2017-11-12T12:55:59.000Z</time>
      </trkpt>
      <trkpt lat="43.60611" lon="3.40795">
        <ele>198</ele>
        <time>2017-11-12T12:56:01.000Z</time>
      </trkpt>
      <trkpt lat="43.60611" lon="3.40795">
        <ele>198</ele>
        <time>2017-11-12T12:56:03.000Z</time>
      </trkpt>
      <trkpt lat="43.60611" lon="3.40795">
        <ele>198</ele>
        <time>2017-11-12T12:56:05.000Z</time>
      </trkpt>
      <trkpt lat="43.60611" lon="3.40795">
        <ele>198</ele>
        <time>2017-11-12T12:56:07.000Z</time>
      </trkpt>
      <trkpt lat="43.60611" lon="3.40795">
        <ele>198</ele>
        <time>2017-11-12T12:56:09.000Z</time>
      </trkpt>
      <trkpt lat="43.60611" lon="3.40795">
        <ele>198</ele>
        <time>2017-11-12T12:56:11.000Z</time>
      </trkpt>
      <trkpt lat="43.60611" lon="3.40795">
        <ele>198</ele>
        <time>2017-11-12T12:56:13.000Z</time>
      </trkpt>
      <trkpt lat="43.60611" lon="3.40795">
        <ele>198</ele>
        <time>2017-11-12T12:56:15.000Z</time>
      </trkpt>
      <trkpt lat="43.60611" lon="3.40795">
        <ele>198</ele>
        <time>2017-11-12T12:56:17.000Z</time>
      </trkpt>
      <trkpt lat="43.60656" lon="3.4067">
        <ele>195</ele>
        <time>2017-11-12T12:56:21.000Z</time>
      </trkpt>
      <trkpt lat="43.60666" lon="3.40651">
        <ele>194</ele>
        <time>2017-11-12T12:56:25.000Z</time>
      </trkpt>
      <trkpt lat="43.60666" lon="3.40651">
        <ele>194</ele>
        <time>2017-11-12T12:56:27.000Z</time>
      </trkpt>
      <trkpt lat="43.60666" lon="3.40651">
        <ele>194</ele>
        <time>2017-11-12T12:56:29.000Z</time>
      </trkpt>
      <trkpt lat="43.60666" lon="3.40651">
        <ele>194</ele>
        <time>2017-11-12T12:56:35.000Z</time>
      </trkpt>
      <trkpt lat="43.60666" lon="3.40651">
        <ele>194</ele>
        <time>2017-11-12T12:56:37.000Z</time>
      </trkpt>
      <trkpt lat="43.60666" lon="3.40651">
        <ele>194</ele>
        <time>2017-11-12T12:56:41.000Z</time>
      </trkpt>
      <trkpt lat="43.60706" lon="3.40609">
        <ele>190</ele>
        <time>2017-11-12T12:56:47.000Z</time>
      </trkpt>
      <trkpt lat="43.60695" lon="3.40605">
        <ele>189</ele>
        <time>2017-11-12T12:56:51.000Z</time>
      </trkpt>
      <trkpt lat="43.6068" lon="3.406">
        <ele>189</ele>
        <time>2017-11-12T12:56:55.000Z</time>
      </trkpt>
      <trkpt lat="43.60665" lon="3.40593">
        <ele>188</ele>
        <time>2017-11-12T12:56:59.000Z</time>
      </trkpt>
      <trkpt lat="43.60655" lon="3.40591">
        <ele>186</ele>
        <time>2017-11-12T12:57:01.000Z</time>
      </trkpt>
      <trkpt lat="43.60655" lon="3.40591">
        <ele>186</ele>
        <time>2017-11-12T12:57:03.000Z</time>
      </trkpt>
      <trkpt lat="43.60655" lon="3.40591">
        <ele>186</ele>
        <time>2017-11-12T12:57:05.000Z</time>
      </trkpt>
      <trkpt lat="43.60655" lon="3.40591">
        <ele>186</ele>
        <time>2017-11-12T12:57:07.000Z</time>
      </trkpt>
      <trkpt lat="43.60661" lon="3.40563">
        <ele>184</ele>
        <time>2017-11-12T12:57:15.000Z</time>
      </trkpt>
      <trkpt lat="43.60675" lon="3.40554">
        <ele>183</ele>
        <time>2017-11-12T12:57:19.000Z</time>
      </trkpt>
      <trkpt lat="43.60682" lon="3.4055">
        <ele>182</ele>
        <time>2017-11-12T12:57:23.000Z</time>
      </trkpt>
      <trkpt lat="43.60689" lon="3.40545">
        <ele>182</ele>
        <time>2017-11-12T12:57:25.000Z</time>
      </trkpt>
      <trkpt lat="43.60696" lon="3.4054">
        <ele>181</ele>
        <time>2017-11-12T12:57:27.000Z</time>
      </trkpt>
      <trkpt lat="43.60703" lon="3.40536">
        <ele>181</ele>
        <time>2017-11-12T12:57:29.000Z</time>
      </trkpt>
      <trkpt lat="43.60711" lon="3.40531">
        <ele>181</ele>
        <time>2017-11-12T12:57:31.000Z</time>
      </trkpt>
      <trkpt lat="43.60724" lon="3.40522">
        <ele>180</ele>
        <time>2017-11-12T12:57:33.000Z</time>
      </trkpt>
      <trkpt lat="43.60724" lon="3.40522">
        <ele>180</ele>
        <time>2017-11-12T12:57:35.000Z</time>
      </trkpt>
      <trkpt lat="43.60724" lon="3.40522">
        <ele>180</ele>
        <time>2017-11-12T12:57:37.000Z</time>
      </trkpt>
      <trkpt lat="43.60751" lon="3.40502">
        <ele>179</ele>
        <time>2017-11-12T12:57:41.000Z</time>
      </trkpt>
      <trkpt lat="43.60751" lon="3.40502">
        <ele>179</ele>
        <time>2017-11-12T12:57:43.000Z</time>
      </trkpt>
      <trkpt lat="43.60751" lon="3.40502">
        <ele>179</ele>
        <time>2017-11-12T12:57:45.000Z</time>
      </trkpt>
      <trkpt lat="43.60751" lon="3.40502">
        <ele>179</ele>
        <time>2017-11-12T12:57:47.000Z</time>
      </trkpt>
      <trkpt lat="43.60751" lon="3.40502">
        <ele>179</ele>
        <time>2017-11-12T12:57:49.000Z</time>
      </trkpt>
      <trkpt lat="43.60751" lon="3.40502">
        <ele>179</ele>
        <time>2017-11-12T12:57:51.000Z</time>
      </trkpt>
      <trkpt lat="43.60751" lon="3.40502">
        <ele>179</ele>
        <time>2017-11-12T12:57:53.000Z</time>
      </trkpt>
      <trkpt lat="43.60803" lon="3.40459">
        <ele>179</ele>
        <time>2017-11-12T12:57:57.000Z</time>
      </trkpt>
      <trkpt lat="43.60817" lon="3.40446">
        <ele>178</ele>
        <time>2017-11-12T12:58:01.000Z</time>
      </trkpt>
      <trkpt lat="43.60817" lon="3.40446">
        <ele>178</ele>
        <time>2017-11-12T12:58:03.000Z</time>
      </trkpt>
      <trkpt lat="43.60828" lon="3.40432">
        <ele>178</ele>
        <time>2017-11-12T12:58:05.000Z</time>
      </trkpt>
      <trkpt lat="43.60828" lon="3.40432">
        <ele>178</ele>
        <time>2017-11-12T12:58:09.000Z</time>
      </trkpt>
      <trkpt lat="43.60828" lon="3.40432">
        <ele>178</ele>
        <time>2017-11-12T12:58:11.000Z</time>
      </trkpt>
      <trkpt lat="43.60828" lon="3.40432">
        <ele>178</ele>
        <time>2017-11-12T12:58:13.000Z</time>
      </trkpt>
      <trkpt lat="43.60828" lon="3.40432">
        <ele>178</ele>
        <time>2017-11-12T12:58:15.000Z</time>
      </trkpt>
      <trkpt lat="43.60828" lon="3.40432">
        <ele>178</ele>
        <time>2017-11-12T12:58:17.000Z</time>
      </trkpt>
      <trkpt lat="43.60828" lon="3.40432">
        <ele>178</ele>
        <time>2017-11-12T12:58:19.000Z</time>
      </trkpt>
      <trkpt lat="43.60828" lon="3.40432">
        <ele>178</ele>
        <time>2017-11-12T12:58:21.000Z</time>
      </trkpt>
      <trkpt lat="43.60828" lon="3.40432">
        <ele>178</ele>
        <time>2017-11-12T12:58:23.000Z</time>
      </trkpt>
      <trkpt lat="43.60828" lon="3.40432">
        <ele>178</ele>
        <time>2017-11-12T12:58:25.000Z</time>
      </trkpt>
      <trkpt lat="43.60828" lon="3.40432">
        <ele>178</ele>
        <time>2017-11-12T12:58:27.000Z</time>
      </trkpt>
      <trkpt lat="43.60828" lon="3.40432">
        <ele>178</ele>
        <time>2017-11-12T12:58:29.000Z</time>
      </trkpt>
      <trkpt lat="43.60828" lon="3.40432">
        <ele>178</ele>
        <time>2017-11-12T12:58:31.000Z</time>
      </trkpt>
      <trkpt lat="43.60891" lon="3.40359">
        <ele>178</ele>
        <time>2017-11-12T12:58:35.000Z</time>
      </trkpt>
      <trkpt lat="43.60899" lon="3.4035">
        <ele>178</ele>
        <time>2017-11-12T12:58:39.000Z</time>
      </trkpt>
      <trkpt lat="43.60899" lon="3.4035">
        <ele>178</ele>
        <time>2017-11-12T12:58:41.000Z</time>
      </trkpt>
      <trkpt lat="43.60907" lon="3.4034">
        <ele>178</ele>
        <time>2017-11-12T12:58:43.000Z</time>
      </trkpt>
      <trkpt lat="43.60915" lon="3.40329">
        <ele>179</ele>
        <time>2017-11-12T12:58:47.000Z</time>
      </trkpt>
      <trkpt lat="43.60915" lon="3.40329">
        <ele>179</ele>
        <time>2017-11-12T12:58:51.000Z</time>
      </trkpt>
      <trkpt lat="43.60915" lon="3.40329">
        <ele>179</ele>
        <time>2017-11-12T12:58:53.000Z</time>
      </trkpt>
      <trkpt lat="43.60915" lon="3.40329">
        <ele>179</ele>
        <time>2017-11-12T12:58:55.000Z</time>
      </trkpt>
      <trkpt lat="43.60915" lon="3.40329">
        <ele>179</ele>
        <time>2017-11-12T12:58:57.000Z</time>
      </trkpt>
      <trkpt lat="43.60928" lon="3.40309">
        <ele>179</ele>
        <time>2017-11-12T12:59:01.000Z</time>
      </trkpt>
      <trkpt lat="43.60938" lon="3.40297">
        <ele>179</ele>
        <time>2017-11-12T12:59:03.000Z</time>
      </trkpt>
      <trkpt lat="43.60945" lon="3.40288">
        <ele>179</ele>
        <time>2017-11-12T12:59:05.000Z</time>
      </trkpt>
      <trkpt lat="43.6095" lon="3.40281">
        <ele>179</ele>
        <time>2017-11-12T12:59:07.000Z</time>
      </trkpt>
      <trkpt lat="43.60954" lon="3.40276">
        <ele>179</ele>
        <time>2017-11-12T12:59:09.000Z</time>
      </trkpt>
      <trkpt lat="43.60954" lon="3.40276">
        <ele>179</ele>
        <time>2017-11-12T12:59:11.000Z</time>
      </trkpt>
      <trkpt lat="43.60954" lon="3.40276">
        <ele>179</ele>
        <time>2017-11-12T12:59:13.000Z</time>
      </trkpt>
      <trkpt lat="43.60977" lon="3.40245">
        <ele>178</ele>
        <time>2017-11-12T12:59:18.000Z</time>
      </trkpt>
      <trkpt lat="43.60986" lon="3.40234">
        <ele>178</ele>
        <time>2017-11-12T12:59:21.000Z</time>
      </trkpt>
      <trkpt lat="43.60986" lon="3.40234">
        <ele>178</ele>
        <time>2017-11-12T12:59:23.000Z</time>
      </trkpt>
      <trkpt lat="43.60986" lon="3.40234">
        <ele>178</ele>
        <time>2017-11-12T12:59:25.000Z</time>
      </trkpt>
      <trkpt lat="43.60986" lon="3.40234">
        <ele>178</ele>
        <time>2017-11-12T12:59:31.000Z</time>
      </trkpt>
      <trkpt lat="43.60986" lon="3.40234">
        <ele>178</ele>
        <time>2017-11-12T12:59:33.000Z</time>
      </trkpt>
      <trkpt lat="43.61016" lon="3.40193">
        <ele>178</ele>
        <time>2017-11-12T12:59:37.000Z</time>
      </trkpt>
      <trkpt lat="43.61024" lon="3.40186">
        <ele>178</ele>
        <time>2017-11-12T12:59:41.000Z</time>
      </trkpt>
      <trkpt lat="43.61024" lon="3.40186">
        <ele>178</ele>
        <time>2017-11-12T12:59:43.000Z</time>
      </trkpt>
      <trkpt lat="43.61024" lon="3.40186">
        <ele>178</ele>
        <time>2017-11-12T12:59:45.000Z</time>
      </trkpt>
      <trkpt lat="43.61024" lon="3.40186">
        <ele>178</ele>
        <time>2017-11-12T12:59:47.000Z</time>
      </trkpt>
      <trkpt lat="43.61024" lon="3.40186">
        <ele>178</ele>
        <time>2017-11-12T12:59:49.000Z</time>
      </trkpt>
      <trkpt lat="43.61047" lon="3.40151">
        <ele>180</ele>
        <time>2017-11-12T12:59:55.000Z</time>
      </trkpt>
      <trkpt lat="43.61053" lon="3.40137">
        <ele>181</ele>
        <time>2017-11-12T12:59:59.000Z</time>
      </trkpt>
      <trkpt lat="43.61063" lon="3.40122">
        <ele>181</ele>
        <time>2017-11-12T13:00:03.000Z</time>
      </trkpt>
      <trkpt lat="43.61071" lon="3.40106">
        <ele>182</ele>
        <time>2017-11-12T13:00:07.000Z</time>
      </trkpt>
      <trkpt lat="43.61071" lon="3.40106">
        <ele>182</ele>
        <time>2017-11-12T13:00:09.000Z</time>
      </trkpt>
      <trkpt lat="43.61081" lon="3.40093">
        <ele>183</ele>
        <time>2017-11-12T13:00:11.000Z</time>
      </trkpt>
      <trkpt lat="43.61092" lon="3.40082">
        <ele>183</ele>
        <time>2017-11-12T13:00:15.000Z</time>
      </trkpt>
      <trkpt lat="43.61103" lon="3.40074">
        <ele>184</ele>
        <time>2017-11-12T13:00:19.000Z</time>
      </trkpt>
      <trkpt lat="43.61103" lon="3.40074">
        <ele>184</ele>
        <time>2017-11-12T13:00:21.000Z</time>
      </trkpt>
      <trkpt lat="43.61103" lon="3.40074">
        <ele>184</ele>
        <time>2017-11-12T13:00:23.000Z</time>
      </trkpt>
      <trkpt lat="43.61103" lon="3.40074">
        <ele>184</ele>
        <time>2017-11-12T13:00:25.000Z</time>
      </trkpt>
      <trkpt lat="43.61103" lon="3.40074">
        <ele>184</ele>
        <time>2017-11-12T13:00:29.000Z</time>
      </trkpt>
      <trkpt lat="43.6114" lon="3.40053">
        <ele>185</ele>
        <time>2017-11-12T13:00:35.000Z</time>
      </trkpt>
      <trkpt lat="43.6114" lon="3.40053">
        <ele>185</ele>
        <time>2017-11-12T13:00:37.000Z</time>
      </trkpt>
      <trkpt lat="43.6114" lon="3.40053">
        <ele>185</ele>
        <time>2017-11-12T13:00:39.000Z</time>
      </trkpt>
      <trkpt lat="43.6114" lon="3.40053">
        <ele>185</ele>
        <time>2017-11-12T13:00:41.000Z</time>
      </trkpt>
      <trkpt lat="43.61174" lon="3.40029">
        <ele>184</ele>
        <time>2017-11-12T13:00:43.000Z</time>
      </trkpt>
      <trkpt lat="43.61188" lon="3.40021">
        <ele>183</ele>
        <time>2017-11-12T13:00:47.000Z</time>
      </trkpt>
      <trkpt lat="43.61188" lon="3.40021">
        <ele>183</ele>
        <time>2017-11-12T13:00:49.000Z</time>
      </trkpt>
      <trkpt lat="43.61188" lon="3.40021">
        <ele>183</ele>
        <time>2017-11-12T13:00:51.000Z</time>
      </trkpt>
      <trkpt lat="43.61188" lon="3.40021">
        <ele>183</ele>
        <time>2017-11-12T13:00:53.000Z</time>
      </trkpt>
      <trkpt lat="43.61188" lon="3.40021">
        <ele>183</ele>
        <time>2017-11-12T13:00:55.000Z</time>
      </trkpt>
      <trkpt lat="43.61188" lon="3.40021">
        <ele>183</ele>
        <time>2017-11-12T13:00:57.000Z</time>
      </trkpt>
      <trkpt lat="43.61188" lon="3.40021">
        <ele>183</ele>
        <time>2017-11-12T13:00:59.000Z</time>
      </trkpt>
      <trkpt lat="43.61188" lon="3.40021">
        <ele>183</ele>
        <time>2017-11-12T13:01:01.000Z</time>
      </trkpt>
      <trkpt lat="43.61188" lon="3.40021">
        <ele>183</ele>
        <time>2017-11-12T13:01:03.000Z</time>
      </trkpt>
      <trkpt lat="43.61188" lon="3.40021">
        <ele>183</ele>
        <time>2017-11-12T13:01:06.000Z</time>
      </trkpt>
      <trkpt lat="43.61188" lon="3.40021">
        <ele>183</ele>
        <time>2017-11-12T13:01:08.000Z</time>
      </trkpt>
      <trkpt lat="43.6123" lon="3.39942">
        <ele>182</ele>
        <time>2017-11-12T13:01:15.000Z</time>
      </trkpt>
      <trkpt lat="43.6123" lon="3.39942">
        <ele>182</ele>
        <time>2017-11-12T13:01:16.000Z</time>
      </trkpt>
      <trkpt lat="43.6123" lon="3.39942">
        <ele>182</ele>
        <time>2017-11-12T13:01:18.000Z</time>
      </trkpt>
      <trkpt lat="43.6123" lon="3.39942">
        <ele>182</ele>
        <time>2017-11-12T13:01:20.000Z</time>
      </trkpt>
      <trkpt lat="43.6123" lon="3.39942">
        <ele>182</ele>
        <time>2017-11-12T13:01:22.000Z</time>
      </trkpt>
      <trkpt lat="43.6126" lon="3.39917">
        <ele>182</ele>
        <time>2017-11-12T13:01:28.000Z</time>
      </trkpt>
      <trkpt lat="43.61272" lon="3.39912">
        <ele>182</ele>
        <time>2017-11-12T13:01:31.000Z</time>
      </trkpt>
      <trkpt lat="43.61272" lon="3.39912">
        <ele>182</ele>
        <time>2017-11-12T13:01:33.000Z</time>
      </trkpt>
      <trkpt lat="43.61272" lon="3.39912">
        <ele>182</ele>
        <time>2017-11-12T13:01:35.000Z</time>
      </trkpt>
      <trkpt lat="43.61295" lon="3.39899">
        <ele>183</ele>
        <time>2017-11-12T13:01:37.000Z</time>
      </trkpt>
      <trkpt lat="43.61309" lon="3.39889">
        <ele>184</ele>
        <time>2017-11-12T13:01:41.000Z</time>
      </trkpt>
      <trkpt lat="43.61331" lon="3.39875">
        <ele>184</ele>
        <time>2017-11-12T13:01:46.000Z</time>
      </trkpt>
      <trkpt lat="43.61341" lon="3.39865">
        <ele>184</ele>
        <time>2017-11-12T13:01:51.000Z</time>
      </trkpt>
      <trkpt lat="43.61336" lon="3.39848">
        <ele>185</ele>
        <time>2017-11-12T13:01:55.000Z</time>
      </trkpt>
      <trkpt lat="43.61334" lon="3.39839">
        <ele>185</ele>
        <time>2017-11-12T13:02:01.000Z</time>
      </trkpt>
      <trkpt lat="43.61334" lon="3.39839">
        <ele>185</ele>
        <time>2017-11-12T13:02:03.000Z</time>
      </trkpt>
      <trkpt lat="43.61334" lon="3.39839">
        <ele>185</ele>
        <time>2017-11-12T13:02:05.000Z</time>
      </trkpt>
      <trkpt lat="43.61334" lon="3.39839">
        <ele>185</ele>
        <time>2017-11-12T13:02:07.000Z</time>
      </trkpt>
      <trkpt lat="43.61334" lon="3.39839">
        <ele>185</ele>
        <time>2017-11-12T13:02:09.000Z</time>
      </trkpt>
      <trkpt lat="43.61334" lon="3.39839">
        <ele>185</ele>
        <time>2017-11-12T13:02:11.000Z</time>
      </trkpt>
      <trkpt lat="43.61334" lon="3.39839">
        <ele>185</ele>
        <time>2017-11-12T13:02:13.000Z</time>
      </trkpt>
      <trkpt lat="43.61334" lon="3.39839">
        <ele>185</ele>
        <time>2017-11-12T13:02:17.000Z</time>
      </trkpt>
      <trkpt lat="43.61334" lon="3.39839">
        <ele>185</ele>
        <time>2017-11-12T13:02:19.000Z</time>
      </trkpt>
      <trkpt lat="43.61334" lon="3.39839">
        <ele>185</ele>
        <time>2017-11-12T13:02:21.000Z</time>
      </trkpt>
      <trkpt lat="43.61334" lon="3.39839">
        <ele>185</ele>
        <time>2017-11-12T13:02:23.000Z</time>
      </trkpt>
      <trkpt lat="43.61334" lon="3.39839">
        <ele>185</ele>
        <time>2017-11-12T13:02:25.000Z</time>
      </trkpt>
      <trkpt lat="43.61334" lon="3.39839">
        <ele>185</ele>
        <time>2017-11-12T13:02:27.000Z</time>
      </trkpt>
      <trkpt lat="43.61334" lon="3.39839">
        <ele>185</ele>
        <time>2017-11-12T13:02:29.000Z</time>
      </trkpt>
      <trkpt lat="43.61334" lon="3.39839">
        <ele>185</ele>
        <time>2017-11-12T13:02:31.000Z</time>
      </trkpt>
      <trkpt lat="43.61325" lon="3.39793">
        <ele>192</ele>
        <time>2017-11-12T13:02:37.000Z</time>
      </trkpt>
      <trkpt lat="43.61322" lon="3.39768">
        <ele>192</ele>
        <time>2017-11-12T13:02:39.000Z</time>
      </trkpt>
      <trkpt lat="43.61322" lon="3.39755">
        <ele>193</ele>
        <time>2017-11-12T13:02:41.000Z</time>
      </trkpt>
      <trkpt lat="43.61324" lon="3.39747">
        <ele>193</ele>
        <time>2017-11-12T13:02:43.000Z</time>
      </trkpt>
      <trkpt lat="43.61327" lon="3.39741">
        <ele>194</ele>
        <time>2017-11-12T13:02:47.000Z</time>
      </trkpt>
      <trkpt lat="43.61332" lon="3.39736">
        <ele>194</ele>
        <time>2017-11-12T13:02:51.000Z</time>
      </trkpt>
      <trkpt lat="43.61336" lon="3.39733">
        <ele>195</ele>
        <time>2017-11-12T13:02:53.000Z</time>
      </trkpt>
      <trkpt lat="43.6134" lon="3.39729">
        <ele>195</ele>
        <time>2017-11-12T13:02:55.000Z</time>
      </trkpt>
      <trkpt lat="43.61344" lon="3.39726">
        <ele>196</ele>
        <time>2017-11-12T13:02:57.000Z</time>
      </trkpt>
      <trkpt lat="43.6135" lon="3.39722">
        <ele>196</ele>
        <time>2017-11-12T13:03:01.000Z</time>
      </trkpt>
      <trkpt lat="43.61355" lon="3.3972">
        <ele>197</ele>
        <time>2017-11-12T13:03:03.000Z</time>
      </trkpt>
      <trkpt lat="43.61361" lon="3.39716">
        <ele>197</ele>
        <time>2017-11-12T13:03:07.000Z</time>
      </trkpt>
      <trkpt lat="43.61361" lon="3.39716">
        <ele>197</ele>
        <time>2017-11-12T13:03:09.000Z</time>
      </trkpt>
      <trkpt lat="43.61361" lon="3.39716">
        <ele>197</ele>
        <time>2017-11-12T13:03:11.000Z</time>
      </trkpt>
      <trkpt lat="43.61361" lon="3.39716">
        <ele>197</ele>
        <time>2017-11-12T13:03:13.000Z</time>
      </trkpt>
      <trkpt lat="43.61361" lon="3.39716">
        <ele>197</ele>
        <time>2017-11-12T13:03:15.000Z</time>
      </trkpt>
      <trkpt lat="43.61361" lon="3.39716">
        <ele>197</ele>
        <time>2017-11-12T13:03:17.000Z</time>
      </trkpt>
      <trkpt lat="43.61361" lon="3.39716">
        <ele>197</ele>
        <time>2017-11-12T13:03:19.000Z</time>
      </trkpt>
      <trkpt lat="43.61367" lon="3.39706">
        <ele>198</ele>
        <time>2017-11-12T13:03:25.000Z</time>
      </trkpt>
      <trkpt lat="43.61364" lon="3.39701">
        <ele>199</ele>
        <time>2017-11-12T13:03:33.000Z</time>
      </trkpt>
      <trkpt lat="43.61364" lon="3.39701">
        <ele>199</ele>
        <time>2017-11-12T13:03:35.000Z</time>
      </trkpt>
      <trkpt lat="43.61364" lon="3.39701">
        <ele>199</ele>
        <time>2017-11-12T13:03:37.000Z</time>
      </trkpt>
      <trkpt lat="43.61364" lon="3.39701">
        <ele>199</ele>
        <time>2017-11-12T13:03:39.000Z</time>
      </trkpt>
      <trkpt lat="43.61364" lon="3.39701">
        <ele>199</ele>
        <time>2017-11-12T13:03:41.000Z</time>
      </trkpt>
      <trkpt lat="43.61364" lon="3.39701">
        <ele>199</ele>
        <time>2017-11-12T13:03:43.000Z</time>
      </trkpt>
      <trkpt lat="43.61364" lon="3.39701">
        <ele>199</ele>
        <time>2017-11-12T13:03:45.000Z</time>
      </trkpt>
      <trkpt lat="43.61343" lon="3.397">
        <ele>199</ele>
        <time>2017-11-12T13:03:51.000Z</time>
      </trkpt>
      <trkpt lat="43.61331" lon="3.39699">
        <ele>200</ele>
        <time>2017-11-12T13:03:53.000Z</time>
      </trkpt>
      <trkpt lat="43.61324" lon="3.39698">
        <ele>200</ele>
        <time>2017-11-12T13:03:55.000Z</time>
      </trkpt>
      <trkpt lat="43.61318" lon="3.39698">
        <ele>200</ele>
        <time>2017-11-12T13:03:57.000Z</time>
      </trkpt>
      <trkpt lat="43.61313" lon="3.39698">
        <ele>200</ele>
        <time>2017-11-12T13:03:59.000Z</time>
      </trkpt>
      <trkpt lat="43.61301" lon="3.397">
        <ele>200</ele>
        <time>2017-11-12T13:04:03.000Z</time>
      </trkpt>
      <trkpt lat="43.61301" lon="3.397">
        <ele>200</ele>
        <time>2017-11-12T13:04:08.000Z</time>
      </trkpt>
      <trkpt lat="43.61301" lon="3.397">
        <ele>200</ele>
        <time>2017-11-12T13:04:09.000Z</time>
      </trkpt>
      <trkpt lat="43.61301" lon="3.397">
        <ele>200</ele>
        <time>2017-11-12T13:04:11.000Z</time>
      </trkpt>
      <trkpt lat="43.61285" lon="3.39701">
        <ele>201</ele>
        <time>2017-11-12T13:04:15.000Z</time>
      </trkpt>
      <trkpt lat="43.61275" lon="3.39699">
        <ele>201</ele>
        <time>2017-11-12T13:04:21.000Z</time>
      </trkpt>
      <trkpt lat="43.61275" lon="3.39699">
        <ele>201</ele>
        <time>2017-11-12T13:04:23.000Z</time>
      </trkpt>
      <trkpt lat="43.61275" lon="3.39699">
        <ele>201</ele>
        <time>2017-11-12T13:04:25.000Z</time>
      </trkpt>
      <trkpt lat="43.61275" lon="3.39699">
        <ele>201</ele>
        <time>2017-11-12T13:04:27.000Z</time>
      </trkpt>
      <trkpt lat="43.61275" lon="3.39699">
        <ele>201</ele>
        <time>2017-11-12T13:04:29.000Z</time>
      </trkpt>
      <trkpt lat="43.61275" lon="3.39699">
        <ele>201</ele>
        <time>2017-11-12T13:04:31.000Z</time>
      </trkpt>
      <trkpt lat="43.61275" lon="3.39699">
        <ele>201</ele>
        <time>2017-11-12T13:04:33.000Z</time>
      </trkpt>
      <trkpt lat="43.61275" lon="3.39699">
        <ele>201</ele>
        <time>2017-11-12T13:04:35.000Z</time>
      </trkpt>
      <trkpt lat="43.61246" lon="3.39686">
        <ele>204</ele>
        <time>2017-11-12T13:04:39.000Z</time>
      </trkpt>
      <trkpt lat="43.61236" lon="3.39681">
        <ele>205</ele>
        <time>2017-11-12T13:04:45.000Z</time>
      </trkpt>
      <trkpt lat="43.61236" lon="3.39681">
        <ele>205</ele>
        <time>2017-11-12T13:04:47.000Z</time>
      </trkpt>
      <trkpt lat="43.61236" lon="3.39681">
        <ele>205</ele>
        <time>2017-11-12T13:04:49.000Z</time>
      </trkpt>
      <trkpt lat="43.61236" lon="3.39681">
        <ele>205</ele>
        <time>2017-11-12T13:04:51.000Z</time>
      </trkpt>
      <trkpt lat="43.61224" lon="3.39665">
        <ele>207</ele>
        <time>2017-11-12T13:04:55.000Z</time>
      </trkpt>
      <trkpt lat="43.61224" lon="3.39665">
        <ele>207</ele>
        <time>2017-11-12T13:05:03.000Z</time>
      </trkpt>
      <trkpt lat="43.61224" lon="3.39665">
        <ele>207</ele>
        <time>2017-11-12T13:05:05.000Z</time>
      </trkpt>
      <trkpt lat="43.61224" lon="3.39665">
        <ele>207</ele>
        <time>2017-11-12T13:05:08.000Z</time>
      </trkpt>
      <trkpt lat="43.61224" lon="3.39665">
        <ele>207</ele>
        <time>2017-11-12T13:05:09.000Z</time>
      </trkpt>
      <trkpt lat="43.61224" lon="3.39665">
        <ele>207</ele>
        <time>2017-11-12T13:05:11.000Z</time>
      </trkpt>
      <trkpt lat="43.61224" lon="3.39665">
        <ele>207</ele>
        <time>2017-11-12T13:05:13.000Z</time>
      </trkpt>
      <trkpt lat="43.61224" lon="3.39665">
        <ele>207</ele>
        <time>2017-11-12T13:05:15.000Z</time>
      </trkpt>
      <trkpt lat="43.61224" lon="3.39665">
        <ele>207</ele>
        <time>2017-11-12T13:05:17.000Z</time>
      </trkpt>
      <trkpt lat="43.61224" lon="3.39665">
        <ele>207</ele>
        <time>2017-11-12T13:05:19.000Z</time>
      </trkpt>
      <trkpt lat="43.61224" lon="3.39665">
        <ele>207</ele>
        <time>2017-11-12T13:05:21.000Z</time>
      </trkpt>
      <trkpt lat="43.61224" lon="3.39665">
        <ele>207</ele>
        <time>2017-11-12T13:05:23.000Z</time>
      </trkpt>
      <trkpt lat="43.61224" lon="3.39665">
        <ele>207</ele>
        <time>2017-11-12T13:05:25.000Z</time>
      </trkpt>
      <trkpt lat="43.61224" lon="3.39665">
        <ele>207</ele>
        <time>2017-11-12T13:05:27.000Z</time>
      </trkpt>
      <trkpt lat="43.6122" lon="3.39652">
        <ele>217</ele>
        <time>2017-11-12T13:05:31.000Z</time>
      </trkpt>
      <trkpt lat="43.61216" lon="3.39646">
        <ele>217</ele>
        <time>2017-11-12T13:05:33.000Z</time>
      </trkpt>
      <trkpt lat="43.6121" lon="3.39645">
        <ele>217</ele>
        <time>2017-11-12T13:05:35.000Z</time>
      </trkpt>
      <trkpt lat="43.61204" lon="3.39646">
        <ele>218</ele>
        <time>2017-11-12T13:05:37.000Z</time>
      </trkpt>
      <trkpt lat="43.61197" lon="3.39648">
        <ele>218</ele>
        <time>2017-11-12T13:05:39.000Z</time>
      </trkpt>
      <trkpt lat="43.61186" lon="3.39649">
        <ele>218</ele>
        <time>2017-11-12T13:05:41.000Z</time>
      </trkpt>
      <trkpt lat="43.61176" lon="3.3965">
        <ele>218</ele>
        <time>2017-11-12T13:05:46.000Z</time>
      </trkpt>
      <trkpt lat="43.61165" lon="3.39656">
        <ele>218</ele>
        <time>2017-11-12T13:05:49.000Z</time>
      </trkpt>
      <trkpt lat="43.61152" lon="3.39665">
        <ele>218</ele>
        <time>2017-11-12T13:05:53.000Z</time>
      </trkpt>
      <trkpt lat="43.61145" lon="3.39676">
        <ele>218</ele>
        <time>2017-11-12T13:05:57.000Z</time>
      </trkpt>
      <trkpt lat="43.61145" lon="3.39676">
        <ele>218</ele>
        <time>2017-11-12T13:05:59.000Z</time>
      </trkpt>
      <trkpt lat="43.61135" lon="3.39687">
        <ele>218</ele>
        <time>2017-11-12T13:06:01.000Z</time>
      </trkpt>
      <trkpt lat="43.61124" lon="3.39697">
        <ele>218</ele>
        <time>2017-11-12T13:06:05.000Z</time>
      </trkpt>
      <trkpt lat="43.6111" lon="3.39705">
        <ele>217</ele>
        <time>2017-11-12T13:06:09.000Z</time>
      </trkpt>
      <trkpt lat="43.611" lon="3.39721">
        <ele>216</ele>
        <time>2017-11-12T13:06:13.000Z</time>
      </trkpt>
      <trkpt lat="43.61093" lon="3.3974">
        <ele>215</ele>
        <time>2017-11-12T13:06:17.000Z</time>
      </trkpt>
      <trkpt lat="43.61089" lon="3.39759">
        <ele>214</ele>
        <time>2017-11-12T13:06:21.000Z</time>
      </trkpt>
      <trkpt lat="43.61089" lon="3.39759">
        <ele>214</ele>
        <time>2017-11-12T13:06:23.000Z</time>
      </trkpt>
      <trkpt lat="43.61089" lon="3.39759">
        <ele>214</ele>
        <time>2017-11-12T13:06:25.000Z</time>
      </trkpt>
      <trkpt lat="43.61089" lon="3.39759">
        <ele>214</ele>
        <time>2017-11-12T13:06:27.000Z</time>
      </trkpt>
      <trkpt lat="43.61089" lon="3.39759">
        <ele>214</ele>
        <time>2017-11-12T13:06:29.000Z</time>
      </trkpt>
      <trkpt lat="43.61089" lon="3.39759">
        <ele>214</ele>
        <time>2017-11-12T13:06:31.000Z</time>
      </trkpt>
      <trkpt lat="43.61089" lon="3.39759">
        <ele>214</ele>
        <time>2017-11-12T13:06:33.000Z</time>
      </trkpt>
      <trkpt lat="43.61089" lon="3.39759">
        <ele>214</ele>
        <time>2017-11-12T13:06:35.000Z</time>
      </trkpt>
      <trkpt lat="43.61089" lon="3.39759">
        <ele>214</ele>
        <time>2017-11-12T13:06:37.000Z</time>
      </trkpt>
      <trkpt lat="43.61089" lon="3.39759">
        <ele>214</ele>
        <time>2017-11-12T13:06:39.000Z</time>
      </trkpt>
      <trkpt lat="43.61089" lon="3.39759">
        <ele>214</ele>
        <time>2017-11-12T13:06:41.000Z</time>
      </trkpt>
      <trkpt lat="43.61089" lon="3.39759">
        <ele>214</ele>
        <time>2017-11-12T13:06:44.000Z</time>
      </trkpt>
      <trkpt lat="43.61089" lon="3.39759">
        <ele>214</ele>
        <time>2017-11-12T13:06:45.000Z</time>
      </trkpt>
      <trkpt lat="43.61089" lon="3.39759">
        <ele>214</ele>
        <time>2017-11-12T13:06:47.000Z</time>
      </trkpt>
      <trkpt lat="43.61089" lon="3.39759">
        <ele>214</ele>
        <time>2017-11-12T13:06:49.000Z</time>
      </trkpt>
      <trkpt lat="43.61037" lon="3.39828">
        <ele>211</ele>
        <time>2017-11-12T13:06:53.000Z</time>
      </trkpt>
      <trkpt lat="43.61034" lon="3.3984">
        <ele>210</ele>
        <time>2017-11-12T13:06:59.000Z</time>
      </trkpt>
      <trkpt lat="43.61034" lon="3.3984">
        <ele>210</ele>
        <time>2017-11-12T13:07:01.000Z</time>
      </trkpt>
      <trkpt lat="43.61034" lon="3.3984">
        <ele>210</ele>
        <time>2017-11-12T13:07:03.000Z</time>
      </trkpt>
      <trkpt lat="43.61028" lon="3.39855">
        <ele>208</ele>
        <time>2017-11-12T13:07:09.000Z</time>
      </trkpt>
      <trkpt lat="43.61022" lon="3.39867">
        <ele>206</ele>
        <time>2017-11-12T13:07:11.000Z</time>
      </trkpt>
      <trkpt lat="43.61016" lon="3.3988">
        <ele>202</ele>
        <time>2017-11-12T13:07:13.000Z</time>
      </trkpt>
      <trkpt lat="43.61012" lon="3.39893">
        <ele>202</ele>
        <time>2017-11-12T13:07:15.000Z</time>
      </trkpt>
      <trkpt lat="43.6101" lon="3.39902">
        <ele>202</ele>
        <time>2017-11-12T13:07:17.000Z</time>
      </trkpt>
      <trkpt lat="43.61008" lon="3.39917">
        <ele>201</ele>
        <time>2017-11-12T13:07:19.000Z</time>
      </trkpt>
      <trkpt lat="43.61008" lon="3.39917">
        <ele>201</ele>
        <time>2017-11-12T13:07:21.000Z</time>
      </trkpt>
      <trkpt lat="43.61008" lon="3.39917">
        <ele>201</ele>
        <time>2017-11-12T13:07:23.000Z</time>
      </trkpt>
      <trkpt lat="43.61008" lon="3.39917">
        <ele>201</ele>
        <time>2017-11-12T13:07:25.000Z</time>
      </trkpt>
      <trkpt lat="43.61008" lon="3.39917">
        <ele>201</ele>
        <time>2017-11-12T13:07:27.000Z</time>
      </trkpt>
      <trkpt lat="43.61008" lon="3.39917">
        <ele>201</ele>
        <time>2017-11-12T13:07:29.000Z</time>
      </trkpt>
      <trkpt lat="43.61008" lon="3.39917">
        <ele>201</ele>
        <time>2017-11-12T13:07:31.000Z</time>
      </trkpt>
      <trkpt lat="43.61008" lon="3.39917">
        <ele>201</ele>
        <time>2017-11-12T13:07:33.000Z</time>
      </trkpt>
      <trkpt lat="43.61008" lon="3.39917">
        <ele>201</ele>
        <time>2017-11-12T13:07:35.000Z</time>
      </trkpt>
      <trkpt lat="43.61008" lon="3.39917">
        <ele>201</ele>
        <time>2017-11-12T13:07:37.000Z</time>
      </trkpt>
      <trkpt lat="43.61008" lon="3.39917">
        <ele>201</ele>
        <time>2017-11-12T13:07:39.000Z</time>
      </trkpt>
      <trkpt lat="43.61008" lon="3.39917">
        <ele>201</ele>
        <time>2017-11-12T13:07:41.000Z</time>
      </trkpt>
      <trkpt lat="43.60994" lon="3.3999">
        <ele>197</ele>
        <time>2017-11-12T13:07:45.000Z</time>
      </trkpt>
      <trkpt lat="43.60996" lon="3.40002">
        <ele>197</ele>
        <time>2017-11-12T13:07:47.000Z</time>
      </trkpt>
      <trkpt lat="43.60997" lon="3.4002">
        <ele>196</ele>
        <time>2017-11-12T13:07:51.000Z</time>
      </trkpt>
      <trkpt lat="43.60999" lon="3.40036">
        <ele>195</ele>
        <time>2017-11-12T13:07:55.000Z</time>
      </trkpt>
      <trkpt lat="43.61005" lon="3.40053">
        <ele>195</ele>
        <time>2017-11-12T13:07:59.000Z</time>
      </trkpt>
      <trkpt lat="43.6101" lon="3.4007">
        <ele>194</ele>
        <time>2017-11-12T13:08:03.000Z</time>
      </trkpt>
      <trkpt lat="43.61017" lon="3.40084">
        <ele>194</ele>
        <time>2017-11-12T13:08:07.000Z</time>
      </trkpt>
      <trkpt lat="43.61017" lon="3.40084">
        <ele>194</ele>
        <time>2017-11-12T13:08:09.000Z</time>
      </trkpt>
      <trkpt lat="43.61017" lon="3.40084">
        <ele>194</ele>
        <time>2017-11-12T13:08:11.000Z</time>
      </trkpt>
      <trkpt lat="43.61017" lon="3.40084">
        <ele>194</ele>
        <time>2017-11-12T13:08:13.000Z</time>
      </trkpt>
      <trkpt lat="43.61017" lon="3.40084">
        <ele>194</ele>
        <time>2017-11-12T13:08:15.000Z</time>
      </trkpt>
      <trkpt lat="43.61017" lon="3.40084">
        <ele>194</ele>
        <time>2017-11-12T13:08:17.000Z</time>
      </trkpt>
      <trkpt lat="43.61017" lon="3.40084">
        <ele>194</ele>
        <time>2017-11-12T13:08:19.000Z</time>
      </trkpt>
      <trkpt lat="43.61017" lon="3.40084">
        <ele>194</ele>
        <time>2017-11-12T13:08:21.000Z</time>
      </trkpt>
      <trkpt lat="43.61017" lon="3.40084">
        <ele>194</ele>
        <time>2017-11-12T13:08:23.000Z</time>
      </trkpt>
      <trkpt lat="43.61017" lon="3.40084">
        <ele>194</ele>
        <time>2017-11-12T13:08:25.000Z</time>
      </trkpt>
      <trkpt lat="43.61017" lon="3.40084">
        <ele>194</ele>
        <time>2017-11-12T13:08:27.000Z</time>
      </trkpt>
      <trkpt lat="43.61069" lon="3.40088">
        <ele>192</ele>
        <time>2017-11-12T13:08:33.000Z</time>
      </trkpt>
      <trkpt lat="43.61076" lon="3.40086">
        <ele>192</ele>
        <time>2017-11-12T13:08:39.000Z</time>
      </trkpt>
      <trkpt lat="43.61081" lon="3.40082">
        <ele>192</ele>
        <time>2017-11-12T13:08:41.000Z</time>
      </trkpt>
      <trkpt lat="43.61089" lon="3.40078">
        <ele>191</ele>
        <time>2017-11-12T13:08:43.000Z</time>
      </trkpt>
      <trkpt lat="43.61097" lon="3.40073">
        <ele>191</ele>
        <time>2017-11-12T13:08:45.000Z</time>
      </trkpt>
      <trkpt lat="43.61104" lon="3.40068">
        <ele>191</ele>
        <time>2017-11-12T13:08:47.000Z</time>
      </trkpt>
      <trkpt lat="43.61113" lon="3.4006">
        <ele>191</ele>
        <time>2017-11-12T13:08:49.000Z</time>
      </trkpt>
      <trkpt lat="43.61113" lon="3.4006">
        <ele>191</ele>
        <time>2017-11-12T13:08:51.000Z</time>
      </trkpt>
      <trkpt lat="43.61113" lon="3.4006">
        <ele>191</ele>
        <time>2017-11-12T13:08:53.000Z</time>
      </trkpt>
      <trkpt lat="43.61113" lon="3.4006">
        <ele>191</ele>
        <time>2017-11-12T13:08:55.000Z</time>
      </trkpt>
      <trkpt lat="43.61113" lon="3.4006">
        <ele>191</ele>
        <time>2017-11-12T13:08:57.000Z</time>
      </trkpt>
      <trkpt lat="43.61113" lon="3.4006">
        <ele>191</ele>
        <time>2017-11-12T13:08:59.000Z</time>
      </trkpt>
      <trkpt lat="43.61148" lon="3.40044">
        <ele>190</ele>
        <time>2017-11-12T13:09:03.000Z</time>
      </trkpt>
      <trkpt lat="43.61156" lon="3.40039">
        <ele>190</ele>
        <time>2017-11-12T13:09:05.000Z</time>
      </trkpt>
      <trkpt lat="43.61165" lon="3.40035">
        <ele>189</ele>
        <time>2017-11-12T13:09:07.000Z</time>
      </trkpt>
      <trkpt lat="43.61178" lon="3.40026">
        <ele>189</ele>
        <time>2017-11-12T13:09:11.000Z</time>
      </trkpt>
      <trkpt lat="43.61196" lon="3.40016">
        <ele>188</ele>
        <time>2017-11-12T13:09:16.000Z</time>
      </trkpt>
      <trkpt lat="43.61205" lon="3.4001">
        <ele>188</ele>
        <time>2017-11-12T13:09:18.000Z</time>
      </trkpt>
      <trkpt lat="43.61216" lon="3.40002">
        <ele>187</ele>
        <time>2017-11-12T13:09:23.000Z</time>
      </trkpt>
      <trkpt lat="43.61216" lon="3.40002">
        <ele>187</ele>
        <time>2017-11-12T13:09:28.000Z</time>
      </trkpt>
      <trkpt lat="43.61216" lon="3.40002">
        <ele>187</ele>
        <time>2017-11-12T13:09:30.000Z</time>
      </trkpt>
      <trkpt lat="43.61216" lon="3.40002">
        <ele>187</ele>
        <time>2017-11-12T13:09:33.000Z</time>
      </trkpt>
      <trkpt lat="43.61216" lon="3.40002">
        <ele>187</ele>
        <time>2017-11-12T13:09:35.000Z</time>
      </trkpt>
      <trkpt lat="43.61216" lon="3.40002">
        <ele>187</ele>
        <time>2017-11-12T13:09:37.000Z</time>
      </trkpt>
      <trkpt lat="43.61216" lon="3.40002">
        <ele>187</ele>
        <time>2017-11-12T13:09:39.000Z</time>
      </trkpt>
      <trkpt lat="43.61216" lon="3.40002">
        <ele>187</ele>
        <time>2017-11-12T13:09:41.000Z</time>
      </trkpt>
      <trkpt lat="43.61216" lon="3.40002">
        <ele>187</ele>
        <time>2017-11-12T13:09:43.000Z</time>
      </trkpt>
      <trkpt lat="43.61213" lon="3.39907">
        <ele>186</ele>
        <time>2017-11-12T13:09:47.000Z</time>
      </trkpt>
      <trkpt lat="43.61209" lon="3.3989">
        <ele>186</ele>
        <time>2017-11-12T13:09:51.000Z</time>
      </trkpt>
      <trkpt lat="43.61205" lon="3.39876">
        <ele>187</ele>
        <time>2017-11-12T13:09:55.000Z</time>
      </trkpt>
      <trkpt lat="43.61205" lon="3.39876">
        <ele>187</ele>
        <time>2017-11-12T13:09:57.000Z</time>
      </trkpt>
      <trkpt lat="43.61205" lon="3.39876">
        <ele>187</ele>
        <time>2017-11-12T13:09:59.000Z</time>
      </trkpt>
      <trkpt lat="43.61205" lon="3.39876">
        <ele>187</ele>
        <time>2017-11-12T13:10:01.000Z</time>
      </trkpt>
      <trkpt lat="43.61205" lon="3.39876">
        <ele>187</ele>
        <time>2017-11-12T13:10:03.000Z</time>
      </trkpt>
      <trkpt lat="43.61205" lon="3.39876">
        <ele>187</ele>
        <time>2017-11-12T13:10:05.000Z</time>
      </trkpt>
      <trkpt lat="43.61205" lon="3.39876">
        <ele>187</ele>
        <time>2017-11-12T13:10:07.000Z</time>
      </trkpt>
      <trkpt lat="43.61205" lon="3.39876">
        <ele>187</ele>
        <time>2017-11-12T13:10:09.000Z</time>
      </trkpt>
      <trkpt lat="43.61205" lon="3.39876">
        <ele>187</ele>
        <time>2017-11-12T13:10:11.000Z</time>
      </trkpt>
      <trkpt lat="43.61205" lon="3.39876">
        <ele>187</ele>
        <time>2017-11-12T13:10:13.000Z</time>
      </trkpt>
      <trkpt lat="43.61205" lon="3.39876">
        <ele>187</ele>
        <time>2017-11-12T13:10:15.000Z</time>
      </trkpt>
      <trkpt lat="43.61201" lon="3.39849">
        <ele>189</ele>
        <time>2017-11-12T13:10:19.000Z</time>
      </trkpt>
      <trkpt lat="43.61201" lon="3.39833">
        <ele>189</ele>
        <time>2017-11-12T13:10:21.000Z</time>
      </trkpt>
      <trkpt lat="43.61204" lon="3.39823">
        <ele>189</ele>
        <time>2017-11-12T13:10:23.000Z</time>
      </trkpt>
      <trkpt lat="43.61208" lon="3.39816">
        <ele>190</ele>
        <time>2017-11-12T13:10:25.000Z</time>
      </trkpt>
      <trkpt lat="43.61213" lon="3.39811">
        <ele>190</ele>
        <time>2017-11-12T13:10:27.000Z</time>
      </trkpt>
      <trkpt lat="43.6122" lon="3.39803">
        <ele>190</ele>
        <time>2017-11-12T13:10:29.000Z</time>
      </trkpt>
      <trkpt lat="43.61235" lon="3.39796">
        <ele>191</ele>
        <time>2017-11-12T13:10:33.000Z</time>
      </trkpt>
      <trkpt lat="43.6125" lon="3.39786">
        <ele>191</ele>
        <time>2017-11-12T13:10:37.000Z</time>
      </trkpt>
      <trkpt lat="43.61263" lon="3.39779">
        <ele>192</ele>
        <time>2017-11-12T13:10:41.000Z</time>
      </trkpt>
      <trkpt lat="43.61274" lon="3.39774">
        <ele>192</ele>
        <time>2017-11-12T13:10:45.000Z</time>
      </trkpt>
      <trkpt lat="43.61284" lon="3.39765">
        <ele>192</ele>
        <time>2017-11-12T13:10:49.000Z</time>
      </trkpt>
      <trkpt lat="43.61295" lon="3.39756">
        <ele>192</ele>
        <time>2017-11-12T13:10:55.000Z</time>
      </trkpt>
      <trkpt lat="43.61295" lon="3.39756">
        <ele>192</ele>
        <time>2017-11-12T13:10:57.000Z</time>
      </trkpt>
      <trkpt lat="43.61304" lon="3.3975">
        <ele>192</ele>
        <time>2017-11-12T13:11:01.000Z</time>
      </trkpt>
      <trkpt lat="43.61304" lon="3.3975">
        <ele>192</ele>
        <time>2017-11-12T13:11:03.000Z</time>
      </trkpt>
      <trkpt lat="43.61304" lon="3.3975">
        <ele>192</ele>
        <time>2017-11-12T13:11:05.000Z</time>
      </trkpt>
      <trkpt lat="43.61304" lon="3.3975">
        <ele>192</ele>
        <time>2017-11-12T13:11:08.000Z</time>
      </trkpt>
      <trkpt lat="43.61304" lon="3.3975">
        <ele>192</ele>
        <time>2017-11-12T13:11:10.000Z</time>
      </trkpt>
      <trkpt lat="43.61304" lon="3.3975">
        <ele>192</ele>
        <time>2017-11-12T13:11:13.000Z</time>
      </trkpt>
      <trkpt lat="43.61304" lon="3.3975">
        <ele>192</ele>
        <time>2017-11-12T13:11:15.000Z</time>
      </trkpt>
      <trkpt lat="43.61304" lon="3.3975">
        <ele>192</ele>
        <time>2017-11-12T13:11:17.000Z</time>
      </trkpt>
      <trkpt lat="43.61304" lon="3.3975">
        <ele>192</ele>
        <time>2017-11-12T13:11:19.000Z</time>
      </trkpt>
      <trkpt lat="43.6136" lon="3.39717">
        <ele>194</ele>
        <time>2017-11-12T13:11:23.000Z</time>
      </trkpt>
      <trkpt lat="43.61369" lon="3.39712">
        <ele>196</ele>
        <time>2017-11-12T13:11:29.000Z</time>
      </trkpt>
      <trkpt lat="43.61369" lon="3.39712">
        <ele>196</ele>
        <time>2017-11-12T13:11:31.000Z</time>
      </trkpt>
      <trkpt lat="43.61369" lon="3.39712">
        <ele>196</ele>
        <time>2017-11-12T13:11:34.000Z</time>
      </trkpt>
      <trkpt lat="43.61369" lon="3.39712">
        <ele>196</ele>
        <time>2017-11-12T13:11:36.000Z</time>
      </trkpt>
      <trkpt lat="43.61369" lon="3.39712">
        <ele>196</ele>
        <time>2017-11-12T13:11:38.000Z</time>
      </trkpt>
      <trkpt lat="43.61407" lon="3.39701">
        <ele>197</ele>
        <time>2017-11-12T13:11:42.000Z</time>
      </trkpt>
      <trkpt lat="43.61426" lon="3.39707">
        <ele>197</ele>
        <time>2017-11-12T13:11:46.000Z</time>
      </trkpt>
      <trkpt lat="43.61436" lon="3.39708">
        <ele>198</ele>
        <time>2017-11-12T13:11:48.000Z</time>
      </trkpt>
      <trkpt lat="43.61448" lon="3.39713">
        <ele>199</ele>
        <time>2017-11-12T13:11:51.000Z</time>
      </trkpt>
      <trkpt lat="43.61456" lon="3.39721">
        <ele>199</ele>
        <time>2017-11-12T13:11:52.000Z</time>
      </trkpt>
      <trkpt lat="43.61454" lon="3.39735">
        <ele>199</ele>
        <time>2017-11-12T13:11:54.000Z</time>
      </trkpt>
      <trkpt lat="43.61452" lon="3.39748">
        <ele>199</ele>
        <time>2017-11-12T13:11:56.000Z</time>
      </trkpt>
      <trkpt lat="43.61454" lon="3.39761">
        <ele>198</ele>
        <time>2017-11-12T13:11:58.000Z</time>
      </trkpt>
      <trkpt lat="43.61457" lon="3.39778">
        <ele>199</ele>
        <time>2017-11-12T13:12:00.000Z</time>
      </trkpt>
      <trkpt lat="43.61461" lon="3.39792">
        <ele>199</ele>
        <time>2017-11-12T13:12:02.000Z</time>
      </trkpt>
      <trkpt lat="43.61467" lon="3.39805">
        <ele>199</ele>
        <time>2017-11-12T13:12:04.000Z</time>
      </trkpt>
      <trkpt lat="43.61473" lon="3.39816">
        <ele>199</ele>
        <time>2017-11-12T13:12:06.000Z</time>
      </trkpt>
      <trkpt lat="43.61487" lon="3.3982">
        <ele>199</ele>
        <time>2017-11-12T13:12:10.000Z</time>
      </trkpt>
      <trkpt lat="43.61487" lon="3.3982">
        <ele>199</ele>
        <time>2017-11-12T13:12:12.000Z</time>
      </trkpt>
      <trkpt lat="43.61487" lon="3.3982">
        <ele>199</ele>
        <time>2017-11-12T13:12:14.000Z</time>
      </trkpt>
      <trkpt lat="43.61487" lon="3.3982">
        <ele>199</ele>
        <time>2017-11-12T13:12:16.000Z</time>
      </trkpt>
      <trkpt lat="43.61487" lon="3.3982">
        <ele>199</ele>
        <time>2017-11-12T13:12:18.000Z</time>
      </trkpt>
      <trkpt lat="43.61487" lon="3.3982">
        <ele>199</ele>
        <time>2017-11-12T13:12:20.000Z</time>
      </trkpt>
      <trkpt lat="43.61487" lon="3.3982">
        <ele>199</ele>
        <time>2017-11-12T13:12:22.000Z</time>
      </trkpt>
      <trkpt lat="43.61509" lon="3.39856">
        <ele>190</ele>
        <time>2017-11-12T13:12:26.000Z</time>
      </trkpt>
      <trkpt lat="43.61523" lon="3.39878">
        <ele>188</ele>
        <time>2017-11-12T13:12:28.000Z</time>
      </trkpt>
      <trkpt lat="43.61533" lon="3.39894">
        <ele>187</ele>
        <time>2017-11-12T13:12:30.000Z</time>
      </trkpt>
      <trkpt lat="43.6154" lon="3.39908">
        <ele>187</ele>
        <time>2017-11-12T13:12:32.000Z</time>
      </trkpt>
      <trkpt lat="43.61546" lon="3.39921">
        <ele>187</ele>
        <time>2017-11-12T13:12:34.000Z</time>
      </trkpt>
      <trkpt lat="43.61559" lon="3.39946">
        <ele>188</ele>
        <time>2017-11-12T13:12:36.000Z</time>
      </trkpt>
      <trkpt lat="43.61566" lon="3.3996">
        <ele>188</ele>
        <time>2017-11-12T13:12:38.000Z</time>
      </trkpt>
      <trkpt lat="43.61572" lon="3.39972">
        <ele>187</ele>
        <time>2017-11-12T13:12:40.000Z</time>
      </trkpt>
      <trkpt lat="43.6158" lon="3.39984">
        <ele>187</ele>
        <time>2017-11-12T13:12:42.000Z</time>
      </trkpt>
      <trkpt lat="43.61586" lon="3.39996">
        <ele>187</ele>
        <time>2017-11-12T13:12:44.000Z</time>
      </trkpt>
      <trkpt lat="43.61592" lon="3.40008">
        <ele>188</ele>
        <time>2017-11-12T13:12:46.000Z</time>
      </trkpt>
      <trkpt lat="43.61599" lon="3.40019">
        <ele>188</ele>
        <time>2017-11-12T13:12:48.000Z</time>
      </trkpt>
      <trkpt lat="43.61605" lon="3.40032">
        <ele>188</ele>
        <time>2017-11-12T13:12:50.000Z</time>
      </trkpt>
      <trkpt lat="43.61611" lon="3.40044">
        <ele>188</ele>
        <time>2017-11-12T13:12:52.000Z</time>
      </trkpt>
      <trkpt lat="43.61614" lon="3.40058">
        <ele>188</ele>
        <time>2017-11-12T13:12:54.000Z</time>
      </trkpt>
      <trkpt lat="43.61618" lon="3.4007">
        <ele>187</ele>
        <time>2017-11-12T13:12:56.000Z</time>
      </trkpt>
      <trkpt lat="43.61618" lon="3.4007">
        <ele>187</ele>
        <time>2017-11-12T13:12:58.000Z</time>
      </trkpt>
      <trkpt lat="43.61618" lon="3.4007">
        <ele>187</ele>
        <time>2017-11-12T13:13:00.000Z</time>
      </trkpt>
      <trkpt lat="43.61618" lon="3.4007">
        <ele>187</ele>
        <time>2017-11-12T13:13:02.000Z</time>
      </trkpt>
      <trkpt lat="43.61618" lon="3.4007">
        <ele>187</ele>
        <time>2017-11-12T13:13:04.000Z</time>
      </trkpt>
      <trkpt lat="43.61618" lon="3.4007">
        <ele>187</ele>
        <time>2017-11-12T13:13:06.000Z</time>
      </trkpt>
      <trkpt lat="43.6165" lon="3.4016">
        <ele>184</ele>
        <time>2017-11-12T13:13:10.000Z</time>
      </trkpt>
      <trkpt lat="43.61656" lon="3.40172">
        <ele>185</ele>
        <time>2017-11-12T13:13:12.000Z</time>
      </trkpt>
      <trkpt lat="43.61662" lon="3.40185">
        <ele>184</ele>
        <time>2017-11-12T13:13:14.000Z</time>
      </trkpt>
      <trkpt lat="43.61662" lon="3.40185">
        <ele>184</ele>
        <time>2017-11-12T13:13:16.000Z</time>
      </trkpt>
      <trkpt lat="43.61662" lon="3.40185">
        <ele>184</ele>
        <time>2017-11-12T13:13:18.000Z</time>
      </trkpt>
      <trkpt lat="43.61662" lon="3.40185">
        <ele>184</ele>
        <time>2017-11-12T13:13:20.000Z</time>
      </trkpt>
      <trkpt lat="43.61662" lon="3.40185">
        <ele>184</ele>
        <time>2017-11-12T13:13:22.000Z</time>
      </trkpt>
      <trkpt lat="43.61662" lon="3.40185">
        <ele>184</ele>
        <time>2017-11-12T13:13:24.000Z</time>
      </trkpt>
      <trkpt lat="43.61662" lon="3.40185">
        <ele>184</ele>
        <time>2017-11-12T13:13:26.000Z</time>
      </trkpt>
      <trkpt lat="43.61662" lon="3.40185">
        <ele>184</ele>
        <time>2017-11-12T13:13:28.000Z</time>
      </trkpt>
      <trkpt lat="43.61662" lon="3.40185">
        <ele>184</ele>
        <time>2017-11-12T13:13:30.000Z</time>
      </trkpt>
      <trkpt lat="43.61662" lon="3.40185">
        <ele>184</ele>
        <time>2017-11-12T13:13:32.000Z</time>
      </trkpt>
      <trkpt lat="43.61662" lon="3.40185">
        <ele>184</ele>
        <time>2017-11-12T13:13:34.000Z</time>
      </trkpt>
      <trkpt lat="43.61662" lon="3.40185">
        <ele>184</ele>
        <time>2017-11-12T13:13:36.000Z</time>
      </trkpt>
      <trkpt lat="43.61662" lon="3.40185">
        <ele>184</ele>
        <time>2017-11-12T13:13:38.000Z</time>
      </trkpt>
      <trkpt lat="43.61662" lon="3.40185">
        <ele>184</ele>
        <time>2017-11-12T13:13:41.000Z</time>
      </trkpt>
      <trkpt lat="43.61662" lon="3.40185">
        <ele>184</ele>
        <time>2017-11-12T13:13:42.000Z</time>
      </trkpt>
      <trkpt lat="43.61662" lon="3.40185">
        <ele>184</ele>
        <time>2017-11-12T13:13:44.000Z</time>
      </trkpt>
      <trkpt lat="43.61662" lon="3.40185">
        <ele>184</ele>
        <time>2017-11-12T13:13:46.000Z</time>
      </trkpt>
      <trkpt lat="43.61662" lon="3.40185">
        <ele>184</ele>
        <time>2017-11-12T13:13:48.000Z</time>
      </trkpt>
      <trkpt lat="43.61662" lon="3.40185">
        <ele>184</ele>
        <time>2017-11-12T13:13:50.000Z</time>
      </trkpt>
      <trkpt lat="43.61662" lon="3.40185">
        <ele>184</ele>
        <time>2017-11-12T13:13:52.000Z</time>
      </trkpt>
      <trkpt lat="43.61662" lon="3.40185">
        <ele>184</ele>
        <time>2017-11-12T13:13:55.000Z</time>
      </trkpt>
      <trkpt lat="43.61662" lon="3.40185">
        <ele>184</ele>
        <time>2017-11-12T13:13:56.000Z</time>
      </trkpt>
      <trkpt lat="43.61662" lon="3.40185">
        <ele>184</ele>
        <time>2017-11-12T13:13:58.000Z</time>
      </trkpt>
      <trkpt lat="43.61662" lon="3.40185">
        <ele>184</ele>
        <time>2017-11-12T13:14:00.000Z</time>
      </trkpt>
      <trkpt lat="43.61662" lon="3.40185">
        <ele>184</ele>
        <time>2017-11-12T13:14:02.000Z</time>
      </trkpt>
      <trkpt lat="43.61662" lon="3.40185">
        <ele>184</ele>
        <time>2017-11-12T13:14:04.000Z</time>
      </trkpt>
      <trkpt lat="43.61662" lon="3.40185">
        <ele>184</ele>
        <time>2017-11-12T13:14:06.000Z</time>
      </trkpt>
      <trkpt lat="43.6171" lon="3.40264">
        <ele>187</ele>
        <time>2017-11-12T13:14:10.000Z</time>
      </trkpt>
      <trkpt lat="43.61737" lon="3.403">
        <ele>188</ele>
        <time>2017-11-12T13:14:12.000Z</time>
      </trkpt>
      <trkpt lat="43.61753" lon="3.40315">
        <ele>188</ele>
        <time>2017-11-12T13:14:14.000Z</time>
      </trkpt>
      <trkpt lat="43.61763" lon="3.40319">
        <ele>188</ele>
        <time>2017-11-12T13:14:16.000Z</time>
      </trkpt>
      <trkpt lat="43.61771" lon="3.40317">
        <ele>189</ele>
        <time>2017-11-12T13:14:18.000Z</time>
      </trkpt>
      <trkpt lat="43.61783" lon="3.40308">
        <ele>189</ele>
        <time>2017-11-12T13:14:20.000Z</time>
      </trkpt>
      <trkpt lat="43.61792" lon="3.40295">
        <ele>190</ele>
        <time>2017-11-12T13:14:24.000Z</time>
      </trkpt>
      <trkpt lat="43.61792" lon="3.40295">
        <ele>190</ele>
        <time>2017-11-12T13:14:26.000Z</time>
      </trkpt>
      <trkpt lat="43.618" lon="3.40282">
        <ele>190</ele>
        <time>2017-11-12T13:14:28.000Z</time>
      </trkpt>
      <trkpt lat="43.618" lon="3.40282">
        <ele>190</ele>
        <time>2017-11-12T13:14:30.000Z</time>
      </trkpt>
      <trkpt lat="43.618" lon="3.40282">
        <ele>190</ele>
        <time>2017-11-12T13:14:32.000Z</time>
      </trkpt>
      <trkpt lat="43.618" lon="3.40282">
        <ele>190</ele>
        <time>2017-11-12T13:14:34.000Z</time>
      </trkpt>
      <trkpt lat="43.618" lon="3.40282">
        <ele>190</ele>
        <time>2017-11-12T13:14:36.000Z</time>
      </trkpt>
      <trkpt lat="43.618" lon="3.40282">
        <ele>190</ele>
        <time>2017-11-12T13:14:38.000Z</time>
      </trkpt>
      <trkpt lat="43.61826" lon="3.40223">
        <ele>196</ele>
        <time>2017-11-12T13:14:42.000Z</time>
      </trkpt>
      <trkpt lat="43.61832" lon="3.40202">
        <ele>197</ele>
        <time>2017-11-12T13:14:46.000Z</time>
      </trkpt>
      <trkpt lat="43.61836" lon="3.4019">
        <ele>197</ele>
        <time>2017-11-12T13:14:48.000Z</time>
      </trkpt>
      <trkpt lat="43.61841" lon="3.4017">
        <ele>197</ele>
        <time>2017-11-12T13:14:52.000Z</time>
      </trkpt>
      <trkpt lat="43.61844" lon="3.40157">
        <ele>197</ele>
        <time>2017-11-12T13:14:54.000Z</time>
      </trkpt>
      <trkpt lat="43.61848" lon="3.40134">
        <ele>196</ele>
        <time>2017-11-12T13:14:58.000Z</time>
      </trkpt>
      <trkpt lat="43.61852" lon="3.40111">
        <ele>196</ele>
        <time>2017-11-12T13:15:02.000Z</time>
      </trkpt>
      <trkpt lat="43.61855" lon="3.40089">
        <ele>196</ele>
        <time>2017-11-12T13:15:06.000Z</time>
      </trkpt>
      <trkpt lat="43.61855" lon="3.40089">
        <ele>196</ele>
        <time>2017-11-12T13:15:08.000Z</time>
      </trkpt>
      <trkpt lat="43.61855" lon="3.40089">
        <ele>196</ele>
        <time>2017-11-12T13:15:10.000Z</time>
      </trkpt>
      <trkpt lat="43.61855" lon="3.40089">
        <ele>196</ele>
        <time>2017-11-12T13:15:12.000Z</time>
      </trkpt>
      <trkpt lat="43.61855" lon="3.40089">
        <ele>196</ele>
        <time>2017-11-12T13:15:14.000Z</time>
      </trkpt>
      <trkpt lat="43.61855" lon="3.40089">
        <ele>196</ele>
        <time>2017-11-12T13:15:16.000Z</time>
      </trkpt>
      <trkpt lat="43.61855" lon="3.40089">
        <ele>196</ele>
        <time>2017-11-12T13:15:18.000Z</time>
      </trkpt>
      <trkpt lat="43.61855" lon="3.40089">
        <ele>196</ele>
        <time>2017-11-12T13:15:20.000Z</time>
      </trkpt>
      <trkpt lat="43.61855" lon="3.40089">
        <ele>196</ele>
        <time>2017-11-12T13:15:22.000Z</time>
      </trkpt>
      <trkpt lat="43.61855" lon="3.40089">
        <ele>196</ele>
        <time>2017-11-12T13:15:24.000Z</time>
      </trkpt>
      <trkpt lat="43.61882" lon="3.39977">
        <ele>198</ele>
        <time>2017-11-12T13:15:28.000Z</time>
      </trkpt>
      <trkpt lat="43.61887" lon="3.39956">
        <ele>198</ele>
        <time>2017-11-12T13:15:32.000Z</time>
      </trkpt>
      <trkpt lat="43.61887" lon="3.39956">
        <ele>198</ele>
        <time>2017-11-12T13:15:34.000Z</time>
      </trkpt>
      <trkpt lat="43.61887" lon="3.39956">
        <ele>198</ele>
        <time>2017-11-12T13:15:36.000Z</time>
      </trkpt>
      <trkpt lat="43.61887" lon="3.39956">
        <ele>198</ele>
        <time>2017-11-12T13:15:38.000Z</time>
      </trkpt>
      <trkpt lat="43.61887" lon="3.39956">
        <ele>198</ele>
        <time>2017-11-12T13:15:40.000Z</time>
      </trkpt>
      <trkpt lat="43.61887" lon="3.39956">
        <ele>198</ele>
        <time>2017-11-12T13:15:42.000Z</time>
      </trkpt>
      <trkpt lat="43.61887" lon="3.39956">
        <ele>198</ele>
        <time>2017-11-12T13:15:44.000Z</time>
      </trkpt>
      <trkpt lat="43.61887" lon="3.39956">
        <ele>198</ele>
        <time>2017-11-12T13:15:46.000Z</time>
      </trkpt>
      <trkpt lat="43.61897" lon="3.39914">
        <ele>200</ele>
        <time>2017-11-12T13:15:50.000Z</time>
      </trkpt>
      <trkpt lat="43.61904" lon="3.39889">
        <ele>200</ele>
        <time>2017-11-12T13:15:52.000Z</time>
      </trkpt>
      <trkpt lat="43.61907" lon="3.39872">
        <ele>200</ele>
        <time>2017-11-12T13:15:54.000Z</time>
      </trkpt>
      <trkpt lat="43.61909" lon="3.39858">
        <ele>200</ele>
        <time>2017-11-12T13:15:56.000Z</time>
      </trkpt>
      <trkpt lat="43.61909" lon="3.39858">
        <ele>200</ele>
        <time>2017-11-12T13:15:58.000Z</time>
      </trkpt>
      <trkpt lat="43.61909" lon="3.39858">
        <ele>200</ele>
        <time>2017-11-12T13:16:00.000Z</time>
      </trkpt>
      <trkpt lat="43.61909" lon="3.39858">
        <ele>200</ele>
        <time>2017-11-12T13:16:02.000Z</time>
      </trkpt>
      <trkpt lat="43.61909" lon="3.39858">
        <ele>200</ele>
        <time>2017-11-12T13:16:04.000Z</time>
      </trkpt>
      <trkpt lat="43.61909" lon="3.39858">
        <ele>200</ele>
        <time>2017-11-12T13:16:06.000Z</time>
      </trkpt>
      <trkpt lat="43.61909" lon="3.39858">
        <ele>200</ele>
        <time>2017-11-12T13:16:08.000Z</time>
      </trkpt>
      <trkpt lat="43.61909" lon="3.39858">
        <ele>200</ele>
        <time>2017-11-12T13:16:10.000Z</time>
      </trkpt>
      <trkpt lat="43.61909" lon="3.39858">
        <ele>200</ele>
        <time>2017-11-12T13:16:12.000Z</time>
      </trkpt>
      <trkpt lat="43.61909" lon="3.39858">
        <ele>200</ele>
        <time>2017-11-12T13:16:14.000Z</time>
      </trkpt>
      <trkpt lat="43.61909" lon="3.39858">
        <ele>200</ele>
        <time>2017-11-12T13:16:16.000Z</time>
      </trkpt>
      <trkpt lat="43.61909" lon="3.39858">
        <ele>200</ele>
        <time>2017-11-12T13:16:18.000Z</time>
      </trkpt>
      <trkpt lat="43.61909" lon="3.39858">
        <ele>200</ele>
        <time>2017-11-12T13:16:20.000Z</time>
      </trkpt>
      <trkpt lat="43.61909" lon="3.39858">
        <ele>200</ele>
        <time>2017-11-12T13:16:22.000Z</time>
      </trkpt>
      <trkpt lat="43.61909" lon="3.39858">
        <ele>200</ele>
        <time>2017-11-12T13:16:24.000Z</time>
      </trkpt>
      <trkpt lat="43.61909" lon="3.39858">
        <ele>200</ele>
        <time>2017-11-12T13:16:26.000Z</time>
      </trkpt>
      <trkpt lat="43.61909" lon="3.39858">
        <ele>200</ele>
        <time>2017-11-12T13:16:28.000Z</time>
      </trkpt>
      <trkpt lat="43.61909" lon="3.39858">
        <ele>200</ele>
        <time>2017-11-12T13:16:30.000Z</time>
      </trkpt>
      <trkpt lat="43.61948" lon="3.39804">
        <ele>203</ele>
        <time>2017-11-12T13:16:38.000Z</time>
      </trkpt>
      <trkpt lat="43.6197" lon="3.39776">
        <ele>203</ele>
        <time>2017-11-12T13:16:40.000Z</time>
      </trkpt>
      <trkpt lat="43.61984" lon="3.39762">
        <ele>203</ele>
        <time>2017-11-12T13:16:42.000Z</time>
      </trkpt>
      <trkpt lat="43.61993" lon="3.39755">
        <ele>204</ele>
        <time>2017-11-12T13:16:44.000Z</time>
      </trkpt>
      <trkpt lat="43.62001" lon="3.3975">
        <ele>204</ele>
        <time>2017-11-12T13:16:46.000Z</time>
      </trkpt>
      <trkpt lat="43.62013" lon="3.39746">
        <ele>204</ele>
        <time>2017-11-12T13:16:48.000Z</time>
      </trkpt>
      <trkpt lat="43.62013" lon="3.39746">
        <ele>204</ele>
        <time>2017-11-12T13:16:50.000Z</time>
      </trkpt>
      <trkpt lat="43.62013" lon="3.39746">
        <ele>204</ele>
        <time>2017-11-12T13:16:52.000Z</time>
      </trkpt>
      <trkpt lat="43.62013" lon="3.39746">
        <ele>204</ele>
        <time>2017-11-12T13:16:54.000Z</time>
      </trkpt>
      <trkpt lat="43.62013" lon="3.39746">
        <ele>204</ele>
        <time>2017-11-12T13:16:56.000Z</time>
      </trkpt>
      <trkpt lat="43.62013" lon="3.39746">
        <ele>204</ele>
        <time>2017-11-12T13:16:58.000Z</time>
      </trkpt>
      <trkpt lat="43.62013" lon="3.39746">
        <ele>204</ele>
        <time>2017-11-12T13:17:00.000Z</time>
      </trkpt>
      <trkpt lat="43.62013" lon="3.39746">
        <ele>204</ele>
        <time>2017-11-12T13:17:02.000Z</time>
      </trkpt>
      <trkpt lat="43.62013" lon="3.39746">
        <ele>204</ele>
        <time>2017-11-12T13:17:04.000Z</time>
      </trkpt>
      <trkpt lat="43.62013" lon="3.39746">
        <ele>204</ele>
        <time>2017-11-12T13:17:06.000Z</time>
      </trkpt>
      <trkpt lat="43.62013" lon="3.39746">
        <ele>204</ele>
        <time>2017-11-12T13:17:08.000Z</time>
      </trkpt>
      <trkpt lat="43.62013" lon="3.39746">
        <ele>204</ele>
        <time>2017-11-12T13:17:10.000Z</time>
      </trkpt>
      <trkpt lat="43.62077" lon="3.39739">
        <ele>206</ele>
        <time>2017-11-12T13:17:14.000Z</time>
      </trkpt>
      <trkpt lat="43.62091" lon="3.39737">
        <ele>206</ele>
        <time>2017-11-12T13:17:18.000Z</time>
      </trkpt>
      <trkpt lat="43.62102" lon="3.39737">
        <ele>207</ele>
        <time>2017-11-12T13:17:22.000Z</time>
      </trkpt>
      <trkpt lat="43.62102" lon="3.39737">
        <ele>207</ele>
        <time>2017-11-12T13:17:24.000Z</time>
      </trkpt>
      <trkpt lat="43.62102" lon="3.39737">
        <ele>207</ele>
        <time>2017-11-12T13:17:26.000Z</time>
      </trkpt>
      <trkpt lat="43.62102" lon="3.39737">
        <ele>207</ele>
        <time>2017-11-12T13:17:28.000Z</time>
      </trkpt>
      <trkpt lat="43.62102" lon="3.39737">
        <ele>207</ele>
        <time>2017-11-12T13:17:30.000Z</time>
      </trkpt>
      <trkpt lat="43.62102" lon="3.39737">
        <ele>207</ele>
        <time>2017-11-12T13:17:32.000Z</time>
      </trkpt>
      <trkpt lat="43.62102" lon="3.39737">
        <ele>207</ele>
        <time>2017-11-12T13:17:34.000Z</time>
      </trkpt>
      <trkpt lat="43.62102" lon="3.39737">
        <ele>207</ele>
        <time>2017-11-12T13:17:36.000Z</time>
      </trkpt>
      <trkpt lat="43.62102" lon="3.39737">
        <ele>207</ele>
        <time>2017-11-12T13:17:38.000Z</time>
      </trkpt>
      <trkpt lat="43.62102" lon="3.39737">
        <ele>207</ele>
        <time>2017-11-12T13:17:40.000Z</time>
      </trkpt>
      <trkpt lat="43.62102" lon="3.39737">
        <ele>207</ele>
        <time>2017-11-12T13:17:42.000Z</time>
      </trkpt>
      <trkpt lat="43.62102" lon="3.39737">
        <ele>207</ele>
        <time>2017-11-12T13:17:44.000Z</time>
      </trkpt>
      <trkpt lat="43.62102" lon="3.39737">
        <ele>207</ele>
        <time>2017-11-12T13:17:46.000Z</time>
      </trkpt>
      <trkpt lat="43.62102" lon="3.39737">
        <ele>207</ele>
        <time>2017-11-12T13:17:48.000Z</time>
      </trkpt>
      <trkpt lat="43.62102" lon="3.39737">
        <ele>207</ele>
        <time>2017-11-12T13:17:50.000Z</time>
      </trkpt>
      <trkpt lat="43.62102" lon="3.39737">
        <ele>207</ele>
        <time>2017-11-12T13:17:52.000Z</time>
      </trkpt>
      <trkpt lat="43.62102" lon="3.39737">
        <ele>207</ele>
        <time>2017-11-12T13:17:54.000Z</time>
      </trkpt>
      <trkpt lat="43.6212" lon="3.39782">
        <ele>215</ele>
        <time>2017-11-12T13:17:58.000Z</time>
      </trkpt>
      <trkpt lat="43.6213" lon="3.39813">
        <ele>215</ele>
        <time>2017-11-12T13:18:00.000Z</time>
      </trkpt>
      <trkpt lat="43.62134" lon="3.39836">
        <ele>214</ele>
        <time>2017-11-12T13:18:02.000Z</time>
      </trkpt>
      <trkpt lat="43.62135" lon="3.39858">
        <ele>212</ele>
        <time>2017-11-12T13:18:04.000Z</time>
      </trkpt>
      <trkpt lat="43.62135" lon="3.39879">
        <ele>210</ele>
        <time>2017-11-12T13:18:06.000Z</time>
      </trkpt>
      <trkpt lat="43.62129" lon="3.39917">
        <ele>210</ele>
        <time>2017-11-12T13:18:08.000Z</time>
      </trkpt>
      <trkpt lat="43.62121" lon="3.3993">
        <ele>210</ele>
        <time>2017-11-12T13:18:10.000Z</time>
      </trkpt>
      <trkpt lat="43.62114" lon="3.39939">
        <ele>210</ele>
        <time>2017-11-12T13:18:12.000Z</time>
      </trkpt>
      <trkpt lat="43.62114" lon="3.39939">
        <ele>210</ele>
        <time>2017-11-12T13:18:14.000Z</time>
      </trkpt>
      <trkpt lat="43.62114" lon="3.39939">
        <ele>210</ele>
        <time>2017-11-12T13:18:16.000Z</time>
      </trkpt>
      <trkpt lat="43.62114" lon="3.39939">
        <ele>210</ele>
        <time>2017-11-12T13:18:18.000Z</time>
      </trkpt>
      <trkpt lat="43.62114" lon="3.39939">
        <ele>210</ele>
        <time>2017-11-12T13:18:20.000Z</time>
      </trkpt>
      <trkpt lat="43.62114" lon="3.39939">
        <ele>210</ele>
        <time>2017-11-12T13:18:22.000Z</time>
      </trkpt>
      <trkpt lat="43.62114" lon="3.39939">
        <ele>210</ele>
        <time>2017-11-12T13:18:24.000Z</time>
      </trkpt>
      <trkpt lat="43.62114" lon="3.39939">
        <ele>210</ele>
        <time>2017-11-12T13:18:26.000Z</time>
      </trkpt>
      <trkpt lat="43.62114" lon="3.39939">
        <ele>210</ele>
        <time>2017-11-12T13:18:28.000Z</time>
      </trkpt>
      <trkpt lat="43.62114" lon="3.39939">
        <ele>210</ele>
        <time>2017-11-12T13:18:32.000Z</time>
      </trkpt>
      <trkpt lat="43.62062" lon="3.40012">
        <ele>213</ele>
        <time>2017-11-12T13:18:36.000Z</time>
      </trkpt>
      <trkpt lat="43.62053" lon="3.4003">
        <ele>213</ele>
        <time>2017-11-12T13:18:40.000Z</time>
      </trkpt>
      <trkpt lat="43.62053" lon="3.4003">
        <ele>213</ele>
        <time>2017-11-12T13:18:42.000Z</time>
      </trkpt>
      <trkpt lat="43.62047" lon="3.40044">
        <ele>213</ele>
        <time>2017-11-12T13:18:44.000Z</time>
      </trkpt>
      <trkpt lat="43.62047" lon="3.40044">
        <ele>213</ele>
        <time>2017-11-12T13:18:46.000Z</time>
      </trkpt>
      <trkpt lat="43.62047" lon="3.40044">
        <ele>213</ele>
        <time>2017-11-12T13:18:48.000Z</time>
      </trkpt>
      <trkpt lat="43.62047" lon="3.40044">
        <ele>213</ele>
        <time>2017-11-12T13:18:50.000Z</time>
      </trkpt>
      <trkpt lat="43.62047" lon="3.40044">
        <ele>213</ele>
        <time>2017-11-12T13:18:52.000Z</time>
      </trkpt>
      <trkpt lat="43.62047" lon="3.40044">
        <ele>213</ele>
        <time>2017-11-12T13:18:54.000Z</time>
      </trkpt>
      <trkpt lat="43.62047" lon="3.40044">
        <ele>213</ele>
        <time>2017-11-12T13:18:56.000Z</time>
      </trkpt>
      <trkpt lat="43.62047" lon="3.40044">
        <ele>213</ele>
        <time>2017-11-12T13:18:58.000Z</time>
      </trkpt>
      <trkpt lat="43.62017" lon="3.40093">
        <ele>215</ele>
        <time>2017-11-12T13:19:04.000Z</time>
      </trkpt>
      <trkpt lat="43.62011" lon="3.40103">
        <ele>216</ele>
        <time>2017-11-12T13:19:08.000Z</time>
      </trkpt>
      <trkpt lat="43.62006" lon="3.40113">
        <ele>216</ele>
        <time>2017-11-12T13:19:12.000Z</time>
      </trkpt>
      <trkpt lat="43.62006" lon="3.40113">
        <ele>216</ele>
        <time>2017-11-12T13:19:14.000Z</time>
      </trkpt>
      <trkpt lat="43.62006" lon="3.40113">
        <ele>216</ele>
        <time>2017-11-12T13:19:16.000Z</time>
      </trkpt>
      <trkpt lat="43.62006" lon="3.40113">
        <ele>216</ele>
        <time>2017-11-12T13:19:18.000Z</time>
      </trkpt>
      <trkpt lat="43.62006" lon="3.40113">
        <ele>216</ele>
        <time>2017-11-12T13:19:26.000Z</time>
      </trkpt>
      <trkpt lat="43.61995" lon="3.40134">
        <ele>218</ele>
        <time>2017-11-12T13:19:30.000Z</time>
      </trkpt>
      <trkpt lat="43.61988" lon="3.40147">
        <ele>219</ele>
        <time>2017-11-12T13:19:32.000Z</time>
      </trkpt>
      <trkpt lat="43.61983" lon="3.40157">
        <ele>219</ele>
        <time>2017-11-12T13:19:34.000Z</time>
      </trkpt>
      <trkpt lat="43.6198" lon="3.40164">
        <ele>219</ele>
        <time>2017-11-12T13:19:36.000Z</time>
      </trkpt>
      <trkpt lat="43.61976" lon="3.40171">
        <ele>220</ele>
        <time>2017-11-12T13:19:39.000Z</time>
      </trkpt>
      <trkpt lat="43.61971" lon="3.40182">
        <ele>220</ele>
        <time>2017-11-12T13:19:40.000Z</time>
      </trkpt>
      <trkpt lat="43.61971" lon="3.40182">
        <ele>220</ele>
        <time>2017-11-12T13:19:44.000Z</time>
      </trkpt>
      <trkpt lat="43.61971" lon="3.40182">
        <ele>220</ele>
        <time>2017-11-12T13:19:46.000Z</time>
      </trkpt>
      <trkpt lat="43.61971" lon="3.40182">
        <ele>220</ele>
        <time>2017-11-12T13:19:48.000Z</time>
      </trkpt>
      <trkpt lat="43.61954" lon="3.40215">
        <ele>222</ele>
        <time>2017-11-12T13:19:52.000Z</time>
      </trkpt>
      <trkpt lat="43.61954" lon="3.40215">
        <ele>222</ele>
        <time>2017-11-12T13:19:54.000Z</time>
      </trkpt>
      <trkpt lat="43.61954" lon="3.40215">
        <ele>222</ele>
        <time>2017-11-12T13:19:56.000Z</time>
      </trkpt>
      <trkpt lat="43.61954" lon="3.40215">
        <ele>222</ele>
        <time>2017-11-12T13:19:58.000Z</time>
      </trkpt>
      <trkpt lat="43.61954" lon="3.40215">
        <ele>222</ele>
        <time>2017-11-12T13:20:00.000Z</time>
      </trkpt>
      <trkpt lat="43.61954" lon="3.40215">
        <ele>222</ele>
        <time>2017-11-12T13:20:03.000Z</time>
      </trkpt>
      <trkpt lat="43.61954" lon="3.40215">
        <ele>222</ele>
        <time>2017-11-12T13:20:04.000Z</time>
      </trkpt>
      <trkpt lat="43.61954" lon="3.40215">
        <ele>222</ele>
        <time>2017-11-12T13:20:06.000Z</time>
      </trkpt>
      <trkpt lat="43.61954" lon="3.40215">
        <ele>222</ele>
        <time>2017-11-12T13:20:09.000Z</time>
      </trkpt>
      <trkpt lat="43.61954" lon="3.40215">
        <ele>222</ele>
        <time>2017-11-12T13:20:10.000Z</time>
      </trkpt>
      <trkpt lat="43.61954" lon="3.40215">
        <ele>222</ele>
        <time>2017-11-12T13:20:12.000Z</time>
      </trkpt>
      <trkpt lat="43.61948" lon="3.40275">
        <ele>228</ele>
        <time>2017-11-12T13:20:16.000Z</time>
      </trkpt>
      <trkpt lat="43.61949" lon="3.40288">
        <ele>228</ele>
        <time>2017-11-12T13:20:20.000Z</time>
      </trkpt>
      <trkpt lat="43.61949" lon="3.40288">
        <ele>228</ele>
        <time>2017-11-12T13:20:26.000Z</time>
      </trkpt>
      <trkpt lat="43.61949" lon="3.40288">
        <ele>228</ele>
        <time>2017-11-12T13:20:28.000Z</time>
      </trkpt>
      <trkpt lat="43.61949" lon="3.40288">
        <ele>228</ele>
        <time>2017-11-12T13:20:30.000Z</time>
      </trkpt>
      <trkpt lat="43.61949" lon="3.40288">
        <ele>228</ele>
        <time>2017-11-12T13:20:32.000Z</time>
      </trkpt>
      <trkpt lat="43.61949" lon="3.40288">
        <ele>228</ele>
        <time>2017-11-12T13:20:34.000Z</time>
      </trkpt>
      <trkpt lat="43.61949" lon="3.40288">
        <ele>228</ele>
        <time>2017-11-12T13:20:36.000Z</time>
      </trkpt>
      <trkpt lat="43.61949" lon="3.40288">
        <ele>228</ele>
        <time>2017-11-12T13:20:38.000Z</time>
      </trkpt>
      <trkpt lat="43.61946" lon="3.40349">
        <ele>233</ele>
        <time>2017-11-12T13:20:42.000Z</time>
      </trkpt>
      <trkpt lat="43.61945" lon="3.40367">
        <ele>234</ele>
        <time>2017-11-12T13:20:48.000Z</time>
      </trkpt>
      <trkpt lat="43.61944" lon="3.40374">
        <ele>235</ele>
        <time>2017-11-12T13:20:52.000Z</time>
      </trkpt>
      <trkpt lat="43.61943" lon="3.4038">
        <ele>235</ele>
        <time>2017-11-12T13:20:54.000Z</time>
      </trkpt>
      <trkpt lat="43.61943" lon="3.40388">
        <ele>236</ele>
        <time>2017-11-12T13:20:56.000Z</time>
      </trkpt>
      <trkpt lat="43.61942" lon="3.40396">
        <ele>236</ele>
        <time>2017-11-12T13:20:58.000Z</time>
      </trkpt>
      <trkpt lat="43.61941" lon="3.40404">
        <ele>236</ele>
        <time>2017-11-12T13:21:00.000Z</time>
      </trkpt>
      <trkpt lat="43.6194" lon="3.4042">
        <ele>237</ele>
        <time>2017-11-12T13:21:02.000Z</time>
      </trkpt>
      <trkpt lat="43.61941" lon="3.40435">
        <ele>237</ele>
        <time>2017-11-12T13:21:06.000Z</time>
      </trkpt>
      <trkpt lat="43.61943" lon="3.40454">
        <ele>239</ele>
        <time>2017-11-12T13:21:10.000Z</time>
      </trkpt>
      <trkpt lat="43.61946" lon="3.40474">
        <ele>239</ele>
        <time>2017-11-12T13:21:14.000Z</time>
      </trkpt>
      <trkpt lat="43.61951" lon="3.40494">
        <ele>239</ele>
        <time>2017-11-12T13:21:18.000Z</time>
      </trkpt>
      <trkpt lat="43.61951" lon="3.40494">
        <ele>239</ele>
        <time>2017-11-12T13:21:20.000Z</time>
      </trkpt>
      <trkpt lat="43.61951" lon="3.40494">
        <ele>239</ele>
        <time>2017-11-12T13:21:22.000Z</time>
      </trkpt>
      <trkpt lat="43.61951" lon="3.40494">
        <ele>239</ele>
        <time>2017-11-12T13:21:24.000Z</time>
      </trkpt>
      <trkpt lat="43.61951" lon="3.40494">
        <ele>239</ele>
        <time>2017-11-12T13:21:26.000Z</time>
      </trkpt>
      <trkpt lat="43.61951" lon="3.40494">
        <ele>239</ele>
        <time>2017-11-12T13:21:28.000Z</time>
      </trkpt>
      <trkpt lat="43.61951" lon="3.40494">
        <ele>239</ele>
        <time>2017-11-12T13:21:30.000Z</time>
      </trkpt>
      <trkpt lat="43.61951" lon="3.40494">
        <ele>239</ele>
        <time>2017-11-12T13:21:32.000Z</time>
      </trkpt>
      <trkpt lat="43.61982" lon="3.40543">
        <ele>239</ele>
        <time>2017-11-12T13:21:36.000Z</time>
      </trkpt>
      <trkpt lat="43.6199" lon="3.40548">
        <ele>238</ele>
        <time>2017-11-12T13:21:38.000Z</time>
      </trkpt>
      <trkpt lat="43.62001" lon="3.40553">
        <ele>237</ele>
        <time>2017-11-12T13:21:40.000Z</time>
      </trkpt>
      <trkpt lat="43.62017" lon="3.40553">
        <ele>235</ele>
        <time>2017-11-12T13:21:42.000Z</time>
      </trkpt>
      <trkpt lat="43.62048" lon="3.40548">
        <ele>233</ele>
        <time>2017-11-12T13:21:45.000Z</time>
      </trkpt>
      <trkpt lat="43.62067" lon="3.40554">
        <ele>231</ele>
        <time>2017-11-12T13:21:47.000Z</time>
      </trkpt>
      <trkpt lat="43.62086" lon="3.40569">
        <ele>230</ele>
        <time>2017-11-12T13:21:49.000Z</time>
      </trkpt>
      <trkpt lat="43.62102" lon="3.40588">
        <ele>230</ele>
        <time>2017-11-12T13:21:51.000Z</time>
      </trkpt>
      <trkpt lat="43.62116" lon="3.40611">
        <ele>229</ele>
        <time>2017-11-12T13:21:53.000Z</time>
      </trkpt>
      <trkpt lat="43.62127" lon="3.40634">
        <ele>228</ele>
        <time>2017-11-12T13:21:55.000Z</time>
      </trkpt>
      <trkpt lat="43.62136" lon="3.40659">
        <ele>228</ele>
        <time>2017-11-12T13:21:57.000Z</time>
      </trkpt>
      <trkpt lat="43.62143" lon="3.40684">
        <ele>227</ele>
        <time>2017-11-12T13:21:59.000Z</time>
      </trkpt>
      <trkpt lat="43.62149" lon="3.40709">
        <ele>227</ele>
        <time>2017-11-12T13:22:01.000Z</time>
      </trkpt>
      <trkpt lat="43.62155" lon="3.40733">
        <ele>226</ele>
        <time>2017-11-12T13:22:03.000Z</time>
      </trkpt>
      <trkpt lat="43.62158" lon="3.40757">
        <ele>226</ele>
        <time>2017-11-12T13:22:05.000Z</time>
      </trkpt>
      <trkpt lat="43.62164" lon="3.4078">
        <ele>225</ele>
        <time>2017-11-12T13:22:07.000Z</time>
      </trkpt>
      <trkpt lat="43.62169" lon="3.40803">
        <ele>224</ele>
        <time>2017-11-12T13:22:09.000Z</time>
      </trkpt>
      <trkpt lat="43.62173" lon="3.40826">
        <ele>224</ele>
        <time>2017-11-12T13:22:11.000Z</time>
      </trkpt>
      <trkpt lat="43.62178" lon="3.40849">
        <ele>223</ele>
        <time>2017-11-12T13:22:13.000Z</time>
      </trkpt>
      <trkpt lat="43.62183" lon="3.40872">
        <ele>223</ele>
        <time>2017-11-12T13:22:15.000Z</time>
      </trkpt>
      <trkpt lat="43.62187" lon="3.40894">
        <ele>223</ele>
        <time>2017-11-12T13:22:17.000Z</time>
      </trkpt>
      <trkpt lat="43.62194" lon="3.40913">
        <ele>223</ele>
        <time>2017-11-12T13:22:19.000Z</time>
      </trkpt>
      <trkpt lat="43.62205" lon="3.40927">
        <ele>222</ele>
        <time>2017-11-12T13:22:22.000Z</time>
      </trkpt>
      <trkpt lat="43.62216" lon="3.40942">
        <ele>221</ele>
        <time>2017-11-12T13:22:23.000Z</time>
      </trkpt>
      <trkpt lat="43.62226" lon="3.40959">
        <ele>220</ele>
        <time>2017-11-12T13:22:25.000Z</time>
      </trkpt>
      <trkpt lat="43.62237" lon="3.40975">
        <ele>219</ele>
        <time>2017-11-12T13:22:27.000Z</time>
      </trkpt>
      <trkpt lat="43.62247" lon="3.40992">
        <ele>218</ele>
        <time>2017-11-12T13:22:29.000Z</time>
      </trkpt>
      <trkpt lat="43.62256" lon="3.41012">
        <ele>217</ele>
        <time>2017-11-12T13:22:31.000Z</time>
      </trkpt>
      <trkpt lat="43.62265" lon="3.41031">
        <ele>216</ele>
        <time>2017-11-12T13:22:33.000Z</time>
      </trkpt>
      <trkpt lat="43.62272" lon="3.41052">
        <ele>215</ele>
        <time>2017-11-12T13:22:35.000Z</time>
      </trkpt>
      <trkpt lat="43.6228" lon="3.41074">
        <ele>214</ele>
        <time>2017-11-12T13:22:37.000Z</time>
      </trkpt>
      <trkpt lat="43.62287" lon="3.41096">
        <ele>213</ele>
        <time>2017-11-12T13:22:39.000Z</time>
      </trkpt>
      <trkpt lat="43.62291" lon="3.4112">
        <ele>212</ele>
        <time>2017-11-12T13:22:41.000Z</time>
      </trkpt>
      <trkpt lat="43.62293" lon="3.41146">
        <ele>211</ele>
        <time>2017-11-12T13:22:43.000Z</time>
      </trkpt>
      <trkpt lat="43.62293" lon="3.41172">
        <ele>210</ele>
        <time>2017-11-12T13:22:45.000Z</time>
      </trkpt>
      <trkpt lat="43.62291" lon="3.41199">
        <ele>209</ele>
        <time>2017-11-12T13:22:47.000Z</time>
      </trkpt>
      <trkpt lat="43.62292" lon="3.41225">
        <ele>208</ele>
        <time>2017-11-12T13:22:49.000Z</time>
      </trkpt>
      <trkpt lat="43.62294" lon="3.4125">
        <ele>207</ele>
        <time>2017-11-12T13:22:51.000Z</time>
      </trkpt>
      <trkpt lat="43.62294" lon="3.41273">
        <ele>206</ele>
        <time>2017-11-12T13:22:53.000Z</time>
      </trkpt>
      <trkpt lat="43.62295" lon="3.41296">
        <ele>205</ele>
        <time>2017-11-12T13:22:55.000Z</time>
      </trkpt>
      <trkpt lat="43.62296" lon="3.41318">
        <ele>204</ele>
        <time>2017-11-12T13:22:57.000Z</time>
      </trkpt>
      <trkpt lat="43.62296" lon="3.4134">
        <ele>203</ele>
        <time>2017-11-12T13:22:59.000Z</time>
      </trkpt>
      <trkpt lat="43.62297" lon="3.41361">
        <ele>202</ele>
        <time>2017-11-12T13:23:01.000Z</time>
      </trkpt>
      <trkpt lat="43.623" lon="3.41382">
        <ele>202</ele>
        <time>2017-11-12T13:23:03.000Z</time>
      </trkpt>
      <trkpt lat="43.62304" lon="3.41402">
        <ele>201</ele>
        <time>2017-11-12T13:23:05.000Z</time>
      </trkpt>
      <trkpt lat="43.62306" lon="3.41422">
        <ele>201</ele>
        <time>2017-11-12T13:23:07.000Z</time>
      </trkpt>
      <trkpt lat="43.62307" lon="3.41441">
        <ele>200</ele>
        <time>2017-11-12T13:23:09.000Z</time>
      </trkpt>
      <trkpt lat="43.62306" lon="3.41459">
        <ele>199</ele>
        <time>2017-11-12T13:23:11.000Z</time>
      </trkpt>
      <trkpt lat="43.62305" lon="3.41476">
        <ele>199</ele>
        <time>2017-11-12T13:23:13.000Z</time>
      </trkpt>
      <trkpt lat="43.62304" lon="3.41491">
        <ele>199</ele>
        <time>2017-11-12T13:23:15.000Z</time>
      </trkpt>
      <trkpt lat="43.62302" lon="3.41504">
        <ele>198</ele>
        <time>2017-11-12T13:23:17.000Z</time>
      </trkpt>
      <trkpt lat="43.62302" lon="3.41504">
        <ele>198</ele>
        <time>2017-11-12T13:23:19.000Z</time>
      </trkpt>
      <trkpt lat="43.62302" lon="3.41504">
        <ele>198</ele>
        <time>2017-11-12T13:23:21.000Z</time>
      </trkpt>
      <trkpt lat="43.62302" lon="3.41504">
        <ele>198</ele>
        <time>2017-11-12T13:23:23.000Z</time>
      </trkpt>
      <trkpt lat="43.62302" lon="3.41504">
        <ele>198</ele>
        <time>2017-11-12T13:23:25.000Z</time>
      </trkpt>
      <trkpt lat="43.62302" lon="3.41504">
        <ele>198</ele>
        <time>2017-11-12T13:23:27.000Z</time>
      </trkpt>
      <trkpt lat="43.62302" lon="3.41504">
        <ele>198</ele>
        <time>2017-11-12T13:23:29.000Z</time>
      </trkpt>
      <trkpt lat="43.62308" lon="3.41567">
        <ele>197</ele>
        <time>2017-11-12T13:23:33.000Z</time>
      </trkpt>
      <trkpt lat="43.62314" lon="3.41592">
        <ele>196</ele>
        <time>2017-11-12T13:23:37.000Z</time>
      </trkpt>
      <trkpt lat="43.62318" lon="3.41607">
        <ele>196</ele>
        <time>2017-11-12T13:23:40.000Z</time>
      </trkpt>
      <trkpt lat="43.62322" lon="3.41621">
        <ele>195</ele>
        <time>2017-11-12T13:23:41.000Z</time>
      </trkpt>
      <trkpt lat="43.62326" lon="3.41635">
        <ele>194</ele>
        <time>2017-11-12T13:23:43.000Z</time>
      </trkpt>
      <trkpt lat="43.62331" lon="3.41647">
        <ele>194</ele>
        <time>2017-11-12T13:23:45.000Z</time>
      </trkpt>
      <trkpt lat="43.62337" lon="3.41659">
        <ele>193</ele>
        <time>2017-11-12T13:23:47.000Z</time>
      </trkpt>
      <trkpt lat="43.62337" lon="3.41659">
        <ele>193</ele>
        <time>2017-11-12T13:23:49.000Z</time>
      </trkpt>
      <trkpt lat="43.62337" lon="3.41659">
        <ele>193</ele>
        <time>2017-11-12T13:23:51.000Z</time>
      </trkpt>
      <trkpt lat="43.62337" lon="3.41659">
        <ele>193</ele>
        <time>2017-11-12T13:23:53.000Z</time>
      </trkpt>
      <trkpt lat="43.62337" lon="3.41659">
        <ele>193</ele>
        <time>2017-11-12T13:23:55.000Z</time>
      </trkpt>
      <trkpt lat="43.62337" lon="3.41659">
        <ele>193</ele>
        <time>2017-11-12T13:23:57.000Z</time>
      </trkpt>
      <trkpt lat="43.62368" lon="3.41728">
        <ele>192</ele>
        <time>2017-11-12T13:24:01.000Z</time>
      </trkpt>
      <trkpt lat="43.62376" lon="3.41736">
        <ele>192</ele>
        <time>2017-11-12T13:24:03.000Z</time>
      </trkpt>
      <trkpt lat="43.62376" lon="3.41736">
        <ele>192</ele>
        <time>2017-11-12T13:24:05.000Z</time>
      </trkpt>
      <trkpt lat="43.62383" lon="3.41756">
        <ele>192</ele>
        <time>2017-11-12T13:24:07.000Z</time>
      </trkpt>
      <trkpt lat="43.62383" lon="3.41756">
        <ele>192</ele>
        <time>2017-11-12T13:24:09.000Z</time>
      </trkpt>
      <trkpt lat="43.62383" lon="3.41756">
        <ele>192</ele>
        <time>2017-11-12T13:24:11.000Z</time>
      </trkpt>
      <trkpt lat="43.62383" lon="3.41756">
        <ele>192</ele>
        <time>2017-11-12T13:24:13.000Z</time>
      </trkpt>
      <trkpt lat="43.62383" lon="3.41756">
        <ele>192</ele>
        <time>2017-11-12T13:24:15.000Z</time>
      </trkpt>
      <trkpt lat="43.62383" lon="3.41756">
        <ele>192</ele>
        <time>2017-11-12T13:24:17.000Z</time>
      </trkpt>
      <trkpt lat="43.62392" lon="3.41791">
        <ele>191</ele>
        <time>2017-11-12T13:24:21.000Z</time>
      </trkpt>
      <trkpt lat="43.62398" lon="3.41815">
        <ele>191</ele>
        <time>2017-11-12T13:24:23.000Z</time>
      </trkpt>
      <trkpt lat="43.62402" lon="3.41832">
        <ele>191</ele>
        <time>2017-11-12T13:24:25.000Z</time>
      </trkpt>
      <trkpt lat="43.62403" lon="3.41848">
        <ele>191</ele>
        <time>2017-11-12T13:24:27.000Z</time>
      </trkpt>
      <trkpt lat="43.62404" lon="3.41862">
        <ele>191</ele>
        <time>2017-11-12T13:24:29.000Z</time>
      </trkpt>
      <trkpt lat="43.62405" lon="3.41887">
        <ele>191</ele>
        <time>2017-11-12T13:24:31.000Z</time>
      </trkpt>
      <trkpt lat="43.62405" lon="3.41887">
        <ele>191</ele>
        <time>2017-11-12T13:24:33.000Z</time>
      </trkpt>
      <trkpt lat="43.62405" lon="3.41887">
        <ele>191</ele>
        <time>2017-11-12T13:24:35.000Z</time>
      </trkpt>
      <trkpt lat="43.62405" lon="3.41887">
        <ele>191</ele>
        <time>2017-11-12T13:24:37.000Z</time>
      </trkpt>
      <trkpt lat="43.62405" lon="3.41887">
        <ele>191</ele>
        <time>2017-11-12T13:24:39.000Z</time>
      </trkpt>
      <trkpt lat="43.62405" lon="3.41887">
        <ele>191</ele>
        <time>2017-11-12T13:24:41.000Z</time>
      </trkpt>
      <trkpt lat="43.62405" lon="3.41887">
        <ele>191</ele>
        <time>2017-11-12T13:24:43.000Z</time>
      </trkpt>
      <trkpt lat="43.62405" lon="3.41887">
        <ele>191</ele>
        <time>2017-11-12T13:24:47.000Z</time>
      </trkpt>
      <trkpt lat="43.62405" lon="3.41887">
        <ele>191</ele>
        <time>2017-11-12T13:24:49.000Z</time>
      </trkpt>
      <trkpt lat="43.62405" lon="3.41887">
        <ele>191</ele>
        <time>2017-11-12T13:24:51.000Z</time>
      </trkpt>
      <trkpt lat="43.62405" lon="3.41887">
        <ele>191</ele>
        <time>2017-11-12T13:24:53.000Z</time>
      </trkpt>
      <trkpt lat="43.62405" lon="3.41887">
        <ele>191</ele>
        <time>2017-11-12T13:24:55.000Z</time>
      </trkpt>
      <trkpt lat="43.62352" lon="3.41895">
        <ele>191</ele>
        <time>2017-11-12T13:24:59.000Z</time>
      </trkpt>
      <trkpt lat="43.62352" lon="3.41895">
        <ele>191</ele>
        <time>2017-11-12T13:25:03.000Z</time>
      </trkpt>
      <trkpt lat="43.62352" lon="3.41895">
        <ele>191</ele>
        <time>2017-11-12T13:25:05.000Z</time>
      </trkpt>
      <trkpt lat="43.62352" lon="3.41895">
        <ele>191</ele>
        <time>2017-11-12T13:25:07.000Z</time>
      </trkpt>
      <trkpt lat="43.6233" lon="3.41881">
        <ele>192</ele>
        <time>2017-11-12T13:25:11.000Z</time>
      </trkpt>
      <trkpt lat="43.62318" lon="3.41881">
        <ele>192</ele>
        <time>2017-11-12T13:25:17.000Z</time>
      </trkpt>
      <trkpt lat="43.62318" lon="3.41881">
        <ele>192</ele>
        <time>2017-11-12T13:25:19.000Z</time>
      </trkpt>
      <trkpt lat="43.62308" lon="3.41873">
        <ele>193</ele>
        <time>2017-11-12T13:25:23.000Z</time>
      </trkpt>
      <trkpt lat="43.62299" lon="3.4187">
        <ele>193</ele>
        <time>2017-11-12T13:25:27.000Z</time>
      </trkpt>
      <trkpt lat="43.6229" lon="3.41863">
        <ele>194</ele>
        <time>2017-11-12T13:25:31.000Z</time>
      </trkpt>
      <trkpt lat="43.6229" lon="3.41863">
        <ele>194</ele>
        <time>2017-11-12T13:25:33.000Z</time>
      </trkpt>
      <trkpt lat="43.6229" lon="3.41863">
        <ele>194</ele>
        <time>2017-11-12T13:25:35.000Z</time>
      </trkpt>
      <trkpt lat="43.62271" lon="3.41853">
        <ele>195</ele>
        <time>2017-11-12T13:25:39.000Z</time>
      </trkpt>
      <trkpt lat="43.62262" lon="3.41849">
        <ele>196</ele>
        <time>2017-11-12T13:25:43.000Z</time>
      </trkpt>
      <trkpt lat="43.62262" lon="3.41849">
        <ele>196</ele>
        <time>2017-11-12T13:25:45.000Z</time>
      </trkpt>
      <trkpt lat="43.62262" lon="3.41849">
        <ele>196</ele>
        <time>2017-11-12T13:25:47.000Z</time>
      </trkpt>
      <trkpt lat="43.62262" lon="3.41849">
        <ele>196</ele>
        <time>2017-11-12T13:25:49.000Z</time>
      </trkpt>
      <trkpt lat="43.62262" lon="3.41849">
        <ele>196</ele>
        <time>2017-11-12T13:25:51.000Z</time>
      </trkpt>
      <trkpt lat="43.62262" lon="3.41849">
        <ele>196</ele>
        <time>2017-11-12T13:25:53.000Z</time>
      </trkpt>
      <trkpt lat="43.62262" lon="3.41849">
        <ele>196</ele>
        <time>2017-11-12T13:25:55.000Z</time>
      </trkpt>
      <trkpt lat="43.62262" lon="3.41849">
        <ele>196</ele>
        <time>2017-11-12T13:25:58.000Z</time>
      </trkpt>
      <trkpt lat="43.62262" lon="3.41849">
        <ele>196</ele>
        <time>2017-11-12T13:25:59.000Z</time>
      </trkpt>
      <trkpt lat="43.62262" lon="3.41849">
        <ele>196</ele>
        <time>2017-11-12T13:26:01.000Z</time>
      </trkpt>
      <trkpt lat="43.62262" lon="3.41849">
        <ele>196</ele>
        <time>2017-11-12T13:26:03.000Z</time>
      </trkpt>
      <trkpt lat="43.62242" lon="3.41838">
        <ele>201</ele>
        <time>2017-11-12T13:26:09.000Z</time>
      </trkpt>
      <trkpt lat="43.62228" lon="3.4183">
        <ele>201</ele>
        <time>2017-11-12T13:26:13.000Z</time>
      </trkpt>
      <trkpt lat="43.6222" lon="3.41824">
        <ele>202</ele>
        <time>2017-11-12T13:26:15.000Z</time>
      </trkpt>
      <trkpt lat="43.62213" lon="3.4182">
        <ele>202</ele>
        <time>2017-11-12T13:26:17.000Z</time>
      </trkpt>
      <trkpt lat="43.62208" lon="3.41815">
        <ele>203</ele>
        <time>2017-11-12T13:26:19.000Z</time>
      </trkpt>
      <trkpt lat="43.62204" lon="3.41811">
        <ele>203</ele>
        <time>2017-11-12T13:26:21.000Z</time>
      </trkpt>
      <trkpt lat="43.62193" lon="3.41803">
        <ele>204</ele>
        <time>2017-11-12T13:26:25.000Z</time>
      </trkpt>
      <trkpt lat="43.62193" lon="3.41803">
        <ele>204</ele>
        <time>2017-11-12T13:26:27.000Z</time>
      </trkpt>
      <trkpt lat="43.62193" lon="3.41803">
        <ele>204</ele>
        <time>2017-11-12T13:26:29.000Z</time>
      </trkpt>
      <trkpt lat="43.62193" lon="3.41803">
        <ele>204</ele>
        <time>2017-11-12T13:26:31.000Z</time>
      </trkpt>
      <trkpt lat="43.62193" lon="3.41803">
        <ele>204</ele>
        <time>2017-11-12T13:26:33.000Z</time>
      </trkpt>
      <trkpt lat="43.62193" lon="3.41803">
        <ele>204</ele>
        <time>2017-11-12T13:26:35.000Z</time>
      </trkpt>
      <trkpt lat="43.62193" lon="3.41803">
        <ele>204</ele>
        <time>2017-11-12T13:26:37.000Z</time>
      </trkpt>
      <trkpt lat="43.62193" lon="3.41803">
        <ele>204</ele>
        <time>2017-11-12T13:26:39.000Z</time>
      </trkpt>
      <trkpt lat="43.62193" lon="3.41803">
        <ele>204</ele>
        <time>2017-11-12T13:26:41.000Z</time>
      </trkpt>
      <trkpt lat="43.62166" lon="3.41781">
        <ele>207</ele>
        <time>2017-11-12T13:26:44.000Z</time>
      </trkpt>
      <trkpt lat="43.62157" lon="3.41768">
        <ele>208</ele>
        <time>2017-11-12T13:26:49.000Z</time>
      </trkpt>
      <trkpt lat="43.62149" lon="3.4176">
        <ele>209</ele>
        <time>2017-11-12T13:26:53.000Z</time>
      </trkpt>
      <trkpt lat="43.6214" lon="3.4175">
        <ele>209</ele>
        <time>2017-11-12T13:26:59.000Z</time>
      </trkpt>
      <trkpt lat="43.6214" lon="3.4175">
        <ele>209</ele>
        <time>2017-11-12T13:27:01.000Z</time>
      </trkpt>
      <trkpt lat="43.6214" lon="3.4175">
        <ele>209</ele>
        <time>2017-11-12T13:27:03.000Z</time>
      </trkpt>
      <trkpt lat="43.6214" lon="3.4175">
        <ele>209</ele>
        <time>2017-11-12T13:27:09.000Z</time>
      </trkpt>
      <trkpt lat="43.6214" lon="3.4175">
        <ele>209</ele>
        <time>2017-11-12T13:27:11.000Z</time>
      </trkpt>
      <trkpt lat="43.6214" lon="3.4175">
        <ele>209</ele>
        <time>2017-11-12T13:27:13.000Z</time>
      </trkpt>
      <trkpt lat="43.6214" lon="3.4175">
        <ele>209</ele>
        <time>2017-11-12T13:27:15.000Z</time>
      </trkpt>
      <trkpt lat="43.6214" lon="3.4175">
        <ele>209</ele>
        <time>2017-11-12T13:27:17.000Z</time>
      </trkpt>
      <trkpt lat="43.62106" lon="3.41714">
        <ele>213</ele>
        <time>2017-11-12T13:27:21.000Z</time>
      </trkpt>
      <trkpt lat="43.62096" lon="3.41703">
        <ele>214</ele>
        <time>2017-11-12T13:27:27.000Z</time>
      </trkpt>
      <trkpt lat="43.62086" lon="3.41693">
        <ele>214</ele>
        <time>2017-11-12T13:27:33.000Z</time>
      </trkpt>
      <trkpt lat="43.62086" lon="3.41693">
        <ele>214</ele>
        <time>2017-11-12T13:27:36.000Z</time>
      </trkpt>
      <trkpt lat="43.62086" lon="3.41693">
        <ele>214</ele>
        <time>2017-11-12T13:27:37.000Z</time>
      </trkpt>
      <trkpt lat="43.62086" lon="3.41693">
        <ele>214</ele>
        <time>2017-11-12T13:27:39.000Z</time>
      </trkpt>
      <trkpt lat="43.62086" lon="3.41693">
        <ele>214</ele>
        <time>2017-11-12T13:27:41.000Z</time>
      </trkpt>
      <trkpt lat="43.62077" lon="3.41684">
        <ele>215</ele>
        <time>2017-11-12T13:27:43.000Z</time>
      </trkpt>
      <trkpt lat="43.62071" lon="3.41677">
        <ele>216</ele>
        <time>2017-11-12T13:27:45.000Z</time>
      </trkpt>
      <trkpt lat="43.62066" lon="3.41671">
        <ele>216</ele>
        <time>2017-11-12T13:27:48.000Z</time>
      </trkpt>
      <trkpt lat="43.62062" lon="3.41666">
        <ele>216</ele>
        <time>2017-11-12T13:27:49.000Z</time>
      </trkpt>
      <trkpt lat="43.62057" lon="3.41661">
        <ele>216</ele>
        <time>2017-11-12T13:27:51.000Z</time>
      </trkpt>
      <trkpt lat="43.62049" lon="3.41653">
        <ele>216</ele>
        <time>2017-11-12T13:27:53.000Z</time>
      </trkpt>
      <trkpt lat="43.62041" lon="3.41644">
        <ele>217</ele>
        <time>2017-11-12T13:27:57.000Z</time>
      </trkpt>
      <trkpt lat="43.62041" lon="3.41644">
        <ele>217</ele>
        <time>2017-11-12T13:27:59.000Z</time>
      </trkpt>
      <trkpt lat="43.62041" lon="3.41644">
        <ele>217</ele>
        <time>2017-11-12T13:28:01.000Z</time>
      </trkpt>
      <trkpt lat="43.62041" lon="3.41644">
        <ele>217</ele>
        <time>2017-11-12T13:28:03.000Z</time>
      </trkpt>
      <trkpt lat="43.62041" lon="3.41644">
        <ele>217</ele>
        <time>2017-11-12T13:28:05.000Z</time>
      </trkpt>
      <trkpt lat="43.62041" lon="3.41644">
        <ele>217</ele>
        <time>2017-11-12T13:28:07.000Z</time>
      </trkpt>
      <trkpt lat="43.62041" lon="3.41644">
        <ele>217</ele>
        <time>2017-11-12T13:28:15.000Z</time>
      </trkpt>
      <trkpt lat="43.62041" lon="3.41644">
        <ele>217</ele>
        <time>2017-11-12T13:28:17.000Z</time>
      </trkpt>
      <trkpt lat="43.62041" lon="3.41644">
        <ele>217</ele>
        <time>2017-11-12T13:28:19.000Z</time>
      </trkpt>
      <trkpt lat="43.62041" lon="3.41644">
        <ele>217</ele>
        <time>2017-11-12T13:28:21.000Z</time>
      </trkpt>
      <trkpt lat="43.62041" lon="3.41644">
        <ele>217</ele>
        <time>2017-11-12T13:28:23.000Z</time>
      </trkpt>
      <trkpt lat="43.61981" lon="3.41567">
        <ele>222</ele>
        <time>2017-11-12T13:28:27.000Z</time>
      </trkpt>
      <trkpt lat="43.61971" lon="3.41555">
        <ele>222</ele>
        <time>2017-11-12T13:28:33.000Z</time>
      </trkpt>
      <trkpt lat="43.61971" lon="3.41555">
        <ele>222</ele>
        <time>2017-11-12T13:28:35.000Z</time>
      </trkpt>
      <trkpt lat="43.61971" lon="3.41555">
        <ele>222</ele>
        <time>2017-11-12T13:28:37.000Z</time>
      </trkpt>
      <trkpt lat="43.61971" lon="3.41555">
        <ele>222</ele>
        <time>2017-11-12T13:28:39.000Z</time>
      </trkpt>
      <trkpt lat="43.61971" lon="3.41555">
        <ele>222</ele>
        <time>2017-11-12T13:28:41.000Z</time>
      </trkpt>
      <trkpt lat="43.61971" lon="3.41555">
        <ele>222</ele>
        <time>2017-11-12T13:28:47.000Z</time>
      </trkpt>
      <trkpt lat="43.61971" lon="3.41555">
        <ele>222</ele>
        <time>2017-11-12T13:28:49.000Z</time>
      </trkpt>
      <trkpt lat="43.61971" lon="3.41555">
        <ele>222</ele>
        <time>2017-11-12T13:28:51.000Z</time>
      </trkpt>
      <trkpt lat="43.61971" lon="3.41555">
        <ele>222</ele>
        <time>2017-11-12T13:28:53.000Z</time>
      </trkpt>
      <trkpt lat="43.61971" lon="3.41555">
        <ele>222</ele>
        <time>2017-11-12T13:28:55.000Z</time>
      </trkpt>
      <trkpt lat="43.61971" lon="3.41555">
        <ele>222</ele>
        <time>2017-11-12T13:28:57.000Z</time>
      </trkpt>
      <trkpt lat="43.61971" lon="3.41555">
        <ele>222</ele>
        <time>2017-11-12T13:28:59.000Z</time>
      </trkpt>
      <trkpt lat="43.61971" lon="3.41555">
        <ele>222</ele>
        <time>2017-11-12T13:29:01.000Z</time>
      </trkpt>
      <trkpt lat="43.61971" lon="3.41555">
        <ele>222</ele>
        <time>2017-11-12T13:29:03.000Z</time>
      </trkpt>
      <trkpt lat="43.61971" lon="3.41555">
        <ele>222</ele>
        <time>2017-11-12T13:29:05.000Z</time>
      </trkpt>
      <trkpt lat="43.61971" lon="3.41555">
        <ele>222</ele>
        <time>2017-11-12T13:29:07.000Z</time>
      </trkpt>
      <trkpt lat="43.61971" lon="3.41555">
        <ele>222</ele>
        <time>2017-11-12T13:29:09.000Z</time>
      </trkpt>
      <trkpt lat="43.6193" lon="3.41532">
        <ele>228</ele>
        <time>2017-11-12T13:29:13.000Z</time>
      </trkpt>
      <trkpt lat="43.6191" lon="3.41523">
        <ele>229</ele>
        <time>2017-11-12T13:29:15.000Z</time>
      </trkpt>
      <trkpt lat="43.61898" lon="3.41521">
        <ele>229</ele>
        <time>2017-11-12T13:29:17.000Z</time>
      </trkpt>
      <trkpt lat="43.61898" lon="3.41521">
        <ele>229</ele>
        <time>2017-11-12T13:29:19.000Z</time>
      </trkpt>
      <trkpt lat="43.6189" lon="3.4153">
        <ele>230</ele>
        <time>2017-11-12T13:29:23.000Z</time>
      </trkpt>
      <trkpt lat="43.61886" lon="3.41537">
        <ele>230</ele>
        <time>2017-11-12T13:29:25.000Z</time>
      </trkpt>
      <trkpt lat="43.61886" lon="3.41537">
        <ele>230</ele>
        <time>2017-11-12T13:29:27.000Z</time>
      </trkpt>
      <trkpt lat="43.61886" lon="3.41537">
        <ele>230</ele>
        <time>2017-11-12T13:29:29.000Z</time>
      </trkpt>
      <trkpt lat="43.61886" lon="3.41537">
        <ele>230</ele>
        <time>2017-11-12T13:29:31.000Z</time>
      </trkpt>
      <trkpt lat="43.61886" lon="3.41537">
        <ele>230</ele>
        <time>2017-11-12T13:29:33.000Z</time>
      </trkpt>
      <trkpt lat="43.61886" lon="3.41537">
        <ele>230</ele>
        <time>2017-11-12T13:29:36.000Z</time>
      </trkpt>
      <trkpt lat="43.61886" lon="3.41537">
        <ele>230</ele>
        <time>2017-11-12T13:29:37.000Z</time>
      </trkpt>
      <trkpt lat="43.61886" lon="3.41537">
        <ele>230</ele>
        <time>2017-11-12T13:29:39.000Z</time>
      </trkpt>
      <trkpt lat="43.61886" lon="3.41537">
        <ele>230</ele>
        <time>2017-11-12T13:29:41.000Z</time>
      </trkpt>
      <trkpt lat="43.6189" lon="3.41565">
        <ele>232</ele>
        <time>2017-11-12T13:29:45.000Z</time>
      </trkpt>
      <trkpt lat="43.61893" lon="3.41581">
        <ele>232</ele>
        <time>2017-11-12T13:29:47.000Z</time>
      </trkpt>
      <trkpt lat="43.61895" lon="3.41592">
        <ele>233</ele>
        <time>2017-11-12T13:29:49.000Z</time>
      </trkpt>
      <trkpt lat="43.61898" lon="3.416">
        <ele>233</ele>
        <time>2017-11-12T13:29:51.000Z</time>
      </trkpt>
      <trkpt lat="43.61899" lon="3.41607">
        <ele>233</ele>
        <time>2017-11-12T13:29:53.000Z</time>
      </trkpt>
      <trkpt lat="43.61895" lon="3.41621">
        <ele>234</ele>
        <time>2017-11-12T13:29:57.000Z</time>
      </trkpt>
      <trkpt lat="43.61895" lon="3.41621">
        <ele>234</ele>
        <time>2017-11-12T13:29:59.000Z</time>
      </trkpt>
      <trkpt lat="43.61895" lon="3.41621">
        <ele>234</ele>
        <time>2017-11-12T13:30:01.000Z</time>
      </trkpt>
      <trkpt lat="43.61884" lon="3.41613">
        <ele>234</ele>
        <time>2017-11-12T13:30:03.000Z</time>
      </trkpt>
      <trkpt lat="43.61875" lon="3.416">
        <ele>235</ele>
        <time>2017-11-12T13:30:09.000Z</time>
      </trkpt>
      <trkpt lat="43.61866" lon="3.41588">
        <ele>237</ele>
        <time>2017-11-12T13:30:15.000Z</time>
      </trkpt>
      <trkpt lat="43.61866" lon="3.41588">
        <ele>237</ele>
        <time>2017-11-12T13:30:19.000Z</time>
      </trkpt>
      <trkpt lat="43.61866" lon="3.41588">
        <ele>237</ele>
        <time>2017-11-12T13:30:21.000Z</time>
      </trkpt>
      <trkpt lat="43.61866" lon="3.41588">
        <ele>237</ele>
        <time>2017-11-12T13:30:23.000Z</time>
      </trkpt>
      <trkpt lat="43.61866" lon="3.41588">
        <ele>237</ele>
        <time>2017-11-12T13:30:25.000Z</time>
      </trkpt>
      <trkpt lat="43.61866" lon="3.41588">
        <ele>237</ele>
        <time>2017-11-12T13:30:27.000Z</time>
      </trkpt>
      <trkpt lat="43.61866" lon="3.41588">
        <ele>237</ele>
        <time>2017-11-12T13:30:29.000Z</time>
      </trkpt>
      <trkpt lat="43.61863" lon="3.41607">
        <ele>241</ele>
        <time>2017-11-12T13:30:33.000Z</time>
      </trkpt>
      <trkpt lat="43.61868" lon="3.4162">
        <ele>242</ele>
        <time>2017-11-12T13:30:37.000Z</time>
      </trkpt>
      <trkpt lat="43.61875" lon="3.41636">
        <ele>243</ele>
        <time>2017-11-12T13:30:43.000Z</time>
      </trkpt>
      <trkpt lat="43.61875" lon="3.41636">
        <ele>243</ele>
        <time>2017-11-12T13:30:45.000Z</time>
      </trkpt>
      <trkpt lat="43.61879" lon="3.41648">
        <ele>243</ele>
        <time>2017-11-12T13:30:47.000Z</time>
      </trkpt>
      <trkpt lat="43.61879" lon="3.41648">
        <ele>243</ele>
        <time>2017-11-12T13:30:49.000Z</time>
      </trkpt>
      <trkpt lat="43.61879" lon="3.41648">
        <ele>243</ele>
        <time>2017-11-12T13:30:51.000Z</time>
      </trkpt>
      <trkpt lat="43.61879" lon="3.41648">
        <ele>243</ele>
        <time>2017-11-12T13:30:53.000Z</time>
      </trkpt>
      <trkpt lat="43.61879" lon="3.41648">
        <ele>243</ele>
        <time>2017-11-12T13:30:55.000Z</time>
      </trkpt>
      <trkpt lat="43.61879" lon="3.41648">
        <ele>243</ele>
        <time>2017-11-12T13:30:57.000Z</time>
      </trkpt>
      <trkpt lat="43.61901" lon="3.41676">
        <ele>245</ele>
        <time>2017-11-12T13:30:59.000Z</time>
      </trkpt>
      <trkpt lat="43.61909" lon="3.41684">
        <ele>245</ele>
        <time>2017-11-12T13:31:03.000Z</time>
      </trkpt>
      <trkpt lat="43.61917" lon="3.41693">
        <ele>246</ele>
        <time>2017-11-12T13:31:07.000Z</time>
      </trkpt>
      <trkpt lat="43.61924" lon="3.41702">
        <ele>246</ele>
        <time>2017-11-12T13:31:11.000Z</time>
      </trkpt>
      <trkpt lat="43.61924" lon="3.41702">
        <ele>246</ele>
        <time>2017-11-12T13:31:13.000Z</time>
      </trkpt>
      <trkpt lat="43.61924" lon="3.41702">
        <ele>246</ele>
        <time>2017-11-12T13:31:15.000Z</time>
      </trkpt>
      <trkpt lat="43.61924" lon="3.41702">
        <ele>246</ele>
        <time>2017-11-12T13:31:17.000Z</time>
      </trkpt>
      <trkpt lat="43.61924" lon="3.41702">
        <ele>246</ele>
        <time>2017-11-12T13:31:19.000Z</time>
      </trkpt>
      <trkpt lat="43.61924" lon="3.41702">
        <ele>246</ele>
        <time>2017-11-12T13:31:21.000Z</time>
      </trkpt>
      <trkpt lat="43.61924" lon="3.41702">
        <ele>246</ele>
        <time>2017-11-12T13:31:27.000Z</time>
      </trkpt>
      <trkpt lat="43.61924" lon="3.41702">
        <ele>246</ele>
        <time>2017-11-12T13:31:29.000Z</time>
      </trkpt>
      <trkpt lat="43.61924" lon="3.41702">
        <ele>246</ele>
        <time>2017-11-12T13:31:31.000Z</time>
      </trkpt>
      <trkpt lat="43.61924" lon="3.41702">
        <ele>246</ele>
        <time>2017-11-12T13:31:33.000Z</time>
      </trkpt>
      <trkpt lat="43.61924" lon="3.41702">
        <ele>246</ele>
        <time>2017-11-12T13:31:35.000Z</time>
      </trkpt>
      <trkpt lat="43.61924" lon="3.41702">
        <ele>246</ele>
        <time>2017-11-12T13:31:37.000Z</time>
      </trkpt>
      <trkpt lat="43.61946" lon="3.41738">
        <ele>252</ele>
        <time>2017-11-12T13:31:41.000Z</time>
      </trkpt>
      <trkpt lat="43.61959" lon="3.41759">
        <ele>252</ele>
        <time>2017-11-12T13:31:43.000Z</time>
      </trkpt>
      <trkpt lat="43.61967" lon="3.41773">
        <ele>252</ele>
        <time>2017-11-12T13:31:45.000Z</time>
      </trkpt>
      <trkpt lat="43.61972" lon="3.41783">
        <ele>253</ele>
        <time>2017-11-12T13:31:47.000Z</time>
      </trkpt>
      <trkpt lat="43.61977" lon="3.41791">
        <ele>253</ele>
        <time>2017-11-12T13:31:49.000Z</time>
      </trkpt>
      <trkpt lat="43.61983" lon="3.41805">
        <ele>253</ele>
        <time>2017-11-12T13:31:51.000Z</time>
      </trkpt>
      <trkpt lat="43.6199" lon="3.41816">
        <ele>254</ele>
        <time>2017-11-12T13:31:55.000Z</time>
      </trkpt>
      <trkpt lat="43.61995" lon="3.4183">
        <ele>254</ele>
        <time>2017-11-12T13:31:59.000Z</time>
      </trkpt>
      <trkpt lat="43.62001" lon="3.41843">
        <ele>255</ele>
        <time>2017-11-12T13:32:03.000Z</time>
      </trkpt>
      <trkpt lat="43.62006" lon="3.41856">
        <ele>256</ele>
        <time>2017-11-12T13:32:07.000Z</time>
      </trkpt>
      <trkpt lat="43.62006" lon="3.41856">
        <ele>256</ele>
        <time>2017-11-12T13:32:09.000Z</time>
      </trkpt>
      <trkpt lat="43.62008" lon="3.41871">
        <ele>256</ele>
        <time>2017-11-12T13:32:11.000Z</time>
      </trkpt>
      <trkpt lat="43.62008" lon="3.41887">
        <ele>257</ele>
        <time>2017-11-12T13:32:15.000Z</time>
      </trkpt>
      <trkpt lat="43.62003" lon="3.41901">
        <ele>258</ele>
        <time>2017-11-12T13:32:19.000Z</time>
      </trkpt>
      <trkpt lat="43.62003" lon="3.41901">
        <ele>258</ele>
        <time>2017-11-12T13:32:21.000Z</time>
      </trkpt>
      <trkpt lat="43.62003" lon="3.41901">
        <ele>258</ele>
        <time>2017-11-12T13:32:23.000Z</time>
      </trkpt>
      <trkpt lat="43.62003" lon="3.41901">
        <ele>258</ele>
        <time>2017-11-12T13:32:25.000Z</time>
      </trkpt>
      <trkpt lat="43.62003" lon="3.41901">
        <ele>258</ele>
        <time>2017-11-12T13:32:27.000Z</time>
      </trkpt>
      <trkpt lat="43.62003" lon="3.41901">
        <ele>258</ele>
        <time>2017-11-12T13:32:29.000Z</time>
      </trkpt>
      <trkpt lat="43.62003" lon="3.41901">
        <ele>258</ele>
        <time>2017-11-12T13:32:31.000Z</time>
      </trkpt>
      <trkpt lat="43.62003" lon="3.41901">
        <ele>258</ele>
        <time>2017-11-12T13:32:33.000Z</time>
      </trkpt>
      <trkpt lat="43.62003" lon="3.41901">
        <ele>258</ele>
        <time>2017-11-12T13:32:35.000Z</time>
      </trkpt>
      <trkpt lat="43.62003" lon="3.41901">
        <ele>258</ele>
        <time>2017-11-12T13:32:37.000Z</time>
      </trkpt>
      <trkpt lat="43.62003" lon="3.41901">
        <ele>258</ele>
        <time>2017-11-12T13:32:39.000Z</time>
      </trkpt>
      <trkpt lat="43.62003" lon="3.41901">
        <ele>258</ele>
        <time>2017-11-12T13:32:41.000Z</time>
      </trkpt>
      <trkpt lat="43.62003" lon="3.41901">
        <ele>258</ele>
        <time>2017-11-12T13:32:43.000Z</time>
      </trkpt>
      <trkpt lat="43.62003" lon="3.41901">
        <ele>258</ele>
        <time>2017-11-12T13:32:45.000Z</time>
      </trkpt>
      <trkpt lat="43.62003" lon="3.41901">
        <ele>258</ele>
        <time>2017-11-12T13:32:48.000Z</time>
      </trkpt>
      <trkpt lat="43.62003" lon="3.41901">
        <ele>258</ele>
        <time>2017-11-12T13:32:49.000Z</time>
      </trkpt>
      <trkpt lat="43.62003" lon="3.41901">
        <ele>258</ele>
        <time>2017-11-12T13:32:51.000Z</time>
      </trkpt>
      <trkpt lat="43.62003" lon="3.41901">
        <ele>258</ele>
        <time>2017-11-12T13:32:53.000Z</time>
      </trkpt>
      <trkpt lat="43.62003" lon="3.41901">
        <ele>258</ele>
        <time>2017-11-12T13:32:55.000Z</time>
      </trkpt>
      <trkpt lat="43.61966" lon="3.4198">
        <ele>267</ele>
        <time>2017-11-12T13:32:59.000Z</time>
      </trkpt>
      <trkpt lat="43.61975" lon="3.41991">
        <ele>268</ele>
        <time>2017-11-12T13:33:03.000Z</time>
      </trkpt>
      <trkpt lat="43.61983" lon="3.42002">
        <ele>269</ele>
        <time>2017-11-12T13:33:07.000Z</time>
      </trkpt>
      <trkpt lat="43.61991" lon="3.42012">
        <ele>270</ele>
        <time>2017-11-12T13:33:11.000Z</time>
      </trkpt>
      <trkpt lat="43.61994" lon="3.42017">
        <ele>271</ele>
        <time>2017-11-12T13:33:15.000Z</time>
      </trkpt>
      <trkpt lat="43.61998" lon="3.42021">
        <ele>272</ele>
        <time>2017-11-12T13:33:17.000Z</time>
      </trkpt>
      <trkpt lat="43.61998" lon="3.42021">
        <ele>272</ele>
        <time>2017-11-12T13:33:19.000Z</time>
      </trkpt>
      <trkpt lat="43.61998" lon="3.42021">
        <ele>272</ele>
        <time>2017-11-12T13:33:21.000Z</time>
      </trkpt>
      <trkpt lat="43.61998" lon="3.42021">
        <ele>272</ele>
        <time>2017-11-12T13:33:23.000Z</time>
      </trkpt>
      <trkpt lat="43.61998" lon="3.42021">
        <ele>272</ele>
        <time>2017-11-12T13:33:25.000Z</time>
      </trkpt>
      <trkpt lat="43.61998" lon="3.42021">
        <ele>272</ele>
        <time>2017-11-12T13:33:27.000Z</time>
      </trkpt>
      <trkpt lat="43.61998" lon="3.42021">
        <ele>272</ele>
        <time>2017-11-12T13:33:29.000Z</time>
      </trkpt>
      <trkpt lat="43.62021" lon="3.42039">
        <ele>276</ele>
        <time>2017-11-12T13:33:39.000Z</time>
      </trkpt>
      <trkpt lat="43.62035" lon="3.4205">
        <ele>276</ele>
        <time>2017-11-12T13:33:41.000Z</time>
      </trkpt>
      <trkpt lat="43.62044" lon="3.42056">
        <ele>276</ele>
        <time>2017-11-12T13:33:43.000Z</time>
      </trkpt>
      <trkpt lat="43.62051" lon="3.4206">
        <ele>277</ele>
        <time>2017-11-12T13:33:45.000Z</time>
      </trkpt>
      <trkpt lat="43.62056" lon="3.42063">
        <ele>277</ele>
        <time>2017-11-12T13:33:47.000Z</time>
      </trkpt>
      <trkpt lat="43.62066" lon="3.42067">
        <ele>278</ele>
        <time>2017-11-12T13:33:49.000Z</time>
      </trkpt>
      <trkpt lat="43.62066" lon="3.42067">
        <ele>278</ele>
        <time>2017-11-12T13:33:51.000Z</time>
      </trkpt>
      <trkpt lat="43.62075" lon="3.42072">
        <ele>278</ele>
        <time>2017-11-12T13:33:53.000Z</time>
      </trkpt>
      <trkpt lat="43.62087" lon="3.42081">
        <ele>280</ele>
        <time>2017-11-12T13:33:59.000Z</time>
      </trkpt>
      <trkpt lat="43.62095" lon="3.42088">
        <ele>281</ele>
        <time>2017-11-12T13:34:03.000Z</time>
      </trkpt>
      <trkpt lat="43.62095" lon="3.42088">
        <ele>281</ele>
        <time>2017-11-12T13:34:05.000Z</time>
      </trkpt>
      <trkpt lat="43.62095" lon="3.42088">
        <ele>281</ele>
        <time>2017-11-12T13:34:08.000Z</time>
      </trkpt>
      <trkpt lat="43.62095" lon="3.42088">
        <ele>281</ele>
        <time>2017-11-12T13:34:09.000Z</time>
      </trkpt>
      <trkpt lat="43.62095" lon="3.42088">
        <ele>281</ele>
        <time>2017-11-12T13:34:15.000Z</time>
      </trkpt>
      <trkpt lat="43.62095" lon="3.42088">
        <ele>281</ele>
        <time>2017-11-12T13:34:17.000Z</time>
      </trkpt>
      <trkpt lat="43.62095" lon="3.42088">
        <ele>281</ele>
        <time>2017-11-12T13:34:19.000Z</time>
      </trkpt>
      <trkpt lat="43.62095" lon="3.42088">
        <ele>281</ele>
        <time>2017-11-12T13:34:21.000Z</time>
      </trkpt>
      <trkpt lat="43.62095" lon="3.42088">
        <ele>281</ele>
        <time>2017-11-12T13:34:23.000Z</time>
      </trkpt>
      <trkpt lat="43.62095" lon="3.42088">
        <ele>281</ele>
        <time>2017-11-12T13:34:25.000Z</time>
      </trkpt>
      <trkpt lat="43.62095" lon="3.42088">
        <ele>281</ele>
        <time>2017-11-12T13:34:28.000Z</time>
      </trkpt>
      <trkpt lat="43.62095" lon="3.42088">
        <ele>281</ele>
        <time>2017-11-12T13:34:29.000Z</time>
      </trkpt>
      <trkpt lat="43.62095" lon="3.42088">
        <ele>281</ele>
        <time>2017-11-12T13:34:31.000Z</time>
      </trkpt>
      <trkpt lat="43.62095" lon="3.42088">
        <ele>281</ele>
        <time>2017-11-12T13:34:33.000Z</time>
      </trkpt>
      <trkpt lat="43.62095" lon="3.42088">
        <ele>281</ele>
        <time>2017-11-12T13:34:35.000Z</time>
      </trkpt>
      <trkpt lat="43.62095" lon="3.42088">
        <ele>281</ele>
        <time>2017-11-12T13:34:37.000Z</time>
      </trkpt>
      <trkpt lat="43.62095" lon="3.42088">
        <ele>281</ele>
        <time>2017-11-12T13:34:39.000Z</time>
      </trkpt>
      <trkpt lat="43.62095" lon="3.42088">
        <ele>281</ele>
        <time>2017-11-12T13:34:41.000Z</time>
      </trkpt>
      <trkpt lat="43.62095" lon="3.42088">
        <ele>281</ele>
        <time>2017-11-12T13:34:43.000Z</time>
      </trkpt>
      <trkpt lat="43.62094" lon="3.42136">
        <ele>287</ele>
        <time>2017-11-12T13:34:49.000Z</time>
      </trkpt>
      <trkpt lat="43.62081" lon="3.42133">
        <ele>288</ele>
        <time>2017-11-12T13:34:55.000Z</time>
      </trkpt>
      <trkpt lat="43.6207" lon="3.42132">
        <ele>289</ele>
        <time>2017-11-12T13:34:59.000Z</time>
      </trkpt>
      <trkpt lat="43.62065" lon="3.4213">
        <ele>289</ele>
        <time>2017-11-12T13:35:03.000Z</time>
      </trkpt>
      <trkpt lat="43.62057" lon="3.42129">
        <ele>289</ele>
        <time>2017-11-12T13:35:07.000Z</time>
      </trkpt>
      <trkpt lat="43.62051" lon="3.42128">
        <ele>289</ele>
        <time>2017-11-12T13:35:09.000Z</time>
      </trkpt>
      <trkpt lat="43.62046" lon="3.42127">
        <ele>289</ele>
        <time>2017-11-12T13:35:11.000Z</time>
      </trkpt>
      <trkpt lat="43.62041" lon="3.42126">
        <ele>289</ele>
        <time>2017-11-12T13:35:13.000Z</time>
      </trkpt>
      <trkpt lat="43.62036" lon="3.42125">
        <ele>289</ele>
        <time>2017-11-12T13:35:15.000Z</time>
      </trkpt>
      <trkpt lat="43.62024" lon="3.42122">
        <ele>290</ele>
        <time>2017-11-12T13:35:19.000Z</time>
      </trkpt>
      <trkpt lat="43.62024" lon="3.42122">
        <ele>290</ele>
        <time>2017-11-12T13:35:21.000Z</time>
      </trkpt>
      <trkpt lat="43.62014" lon="3.42121">
        <ele>290</ele>
        <time>2017-11-12T13:35:23.000Z</time>
      </trkpt>
      <trkpt lat="43.62014" lon="3.42121">
        <ele>290</ele>
        <time>2017-11-12T13:35:25.000Z</time>
      </trkpt>
      <trkpt lat="43.62014" lon="3.42121">
        <ele>290</ele>
        <time>2017-11-12T13:35:27.000Z</time>
      </trkpt>
      <trkpt lat="43.62014" lon="3.42121">
        <ele>290</ele>
        <time>2017-11-12T13:35:29.000Z</time>
      </trkpt>
      <trkpt lat="43.62014" lon="3.42121">
        <ele>290</ele>
        <time>2017-11-12T13:35:31.000Z</time>
      </trkpt>
      <trkpt lat="43.62014" lon="3.42121">
        <ele>290</ele>
        <time>2017-11-12T13:35:33.000Z</time>
      </trkpt>
      <trkpt lat="43.62014" lon="3.42121">
        <ele>290</ele>
        <time>2017-11-12T13:35:35.000Z</time>
      </trkpt>
      <trkpt lat="43.62014" lon="3.42121">
        <ele>290</ele>
        <time>2017-11-12T13:35:41.000Z</time>
      </trkpt>
      <trkpt lat="43.62014" lon="3.42121">
        <ele>290</ele>
        <time>2017-11-12T13:35:43.000Z</time>
      </trkpt>
      <trkpt lat="43.62014" lon="3.42121">
        <ele>290</ele>
        <time>2017-11-12T13:35:45.000Z</time>
      </trkpt>
      <trkpt lat="43.62014" lon="3.42121">
        <ele>290</ele>
        <time>2017-11-12T13:35:47.000Z</time>
      </trkpt>
      <trkpt lat="43.62014" lon="3.42121">
        <ele>290</ele>
        <time>2017-11-12T13:35:49.000Z</time>
      </trkpt>
      <trkpt lat="43.62014" lon="3.42121">
        <ele>290</ele>
        <time>2017-11-12T13:35:51.000Z</time>
      </trkpt>
      <trkpt lat="43.62014" lon="3.42121">
        <ele>290</ele>
        <time>2017-11-12T13:35:53.000Z</time>
      </trkpt>
      <trkpt lat="43.62014" lon="3.42121">
        <ele>290</ele>
        <time>2017-11-12T13:35:55.000Z</time>
      </trkpt>
      <trkpt lat="43.62014" lon="3.42121">
        <ele>290</ele>
        <time>2017-11-12T13:35:57.000Z</time>
      </trkpt>
      <trkpt lat="43.61938" lon="3.42082">
        <ele>294</ele>
        <time>2017-11-12T13:36:01.000Z</time>
      </trkpt>
      <trkpt lat="43.61928" lon="3.42071">
        <ele>295</ele>
        <time>2017-11-12T13:36:07.000Z</time>
      </trkpt>
      <trkpt lat="43.6192" lon="3.42065">
        <ele>296</ele>
        <time>2017-11-12T13:36:11.000Z</time>
      </trkpt>
      <trkpt lat="43.61911" lon="3.42059">
        <ele>297</ele>
        <time>2017-11-12T13:36:15.000Z</time>
      </trkpt>
      <trkpt lat="43.61902" lon="3.4205">
        <ele>298</ele>
        <time>2017-11-12T13:36:21.000Z</time>
      </trkpt>
      <trkpt lat="43.61902" lon="3.4205">
        <ele>298</ele>
        <time>2017-11-12T13:36:23.000Z</time>
      </trkpt>
      <trkpt lat="43.61902" lon="3.4205">
        <ele>298</ele>
        <time>2017-11-12T13:36:25.000Z</time>
      </trkpt>
      <trkpt lat="43.61902" lon="3.4205">
        <ele>298</ele>
        <time>2017-11-12T13:36:27.000Z</time>
      </trkpt>
      <trkpt lat="43.61902" lon="3.4205">
        <ele>298</ele>
        <time>2017-11-12T13:36:29.000Z</time>
      </trkpt>
      <trkpt lat="43.61902" lon="3.4205">
        <ele>298</ele>
        <time>2017-11-12T13:36:31.000Z</time>
      </trkpt>
      <trkpt lat="43.61902" lon="3.4205">
        <ele>298</ele>
        <time>2017-11-12T13:36:33.000Z</time>
      </trkpt>
      <trkpt lat="43.61902" lon="3.4205">
        <ele>298</ele>
        <time>2017-11-12T13:36:35.000Z</time>
      </trkpt>
      <trkpt lat="43.61902" lon="3.4205">
        <ele>298</ele>
        <time>2017-11-12T13:36:37.000Z</time>
      </trkpt>
      <trkpt lat="43.61902" lon="3.4205">
        <ele>298</ele>
        <time>2017-11-12T13:36:39.000Z</time>
      </trkpt>
      <trkpt lat="43.61882" lon="3.42033">
        <ele>302</ele>
        <time>2017-11-12T13:36:43.000Z</time>
      </trkpt>
      <trkpt lat="43.61871" lon="3.42023">
        <ele>303</ele>
        <time>2017-11-12T13:36:45.000Z</time>
      </trkpt>
      <trkpt lat="43.61871" lon="3.42023">
        <ele>303</ele>
        <time>2017-11-12T13:36:47.000Z</time>
      </trkpt>
      <trkpt lat="43.61871" lon="3.42023">
        <ele>303</ele>
        <time>2017-11-12T13:36:49.000Z</time>
      </trkpt>
      <trkpt lat="43.61871" lon="3.42023">
        <ele>303</ele>
        <time>2017-11-12T13:36:51.000Z</time>
      </trkpt>
      <trkpt lat="43.61858" lon="3.42012">
        <ele>304</ele>
        <time>2017-11-12T13:36:53.000Z</time>
      </trkpt>
      <trkpt lat="43.61849" lon="3.42004">
        <ele>304</ele>
        <time>2017-11-12T13:36:55.000Z</time>
      </trkpt>
      <trkpt lat="43.61842" lon="3.41999">
        <ele>305</ele>
        <time>2017-11-12T13:36:57.000Z</time>
      </trkpt>
      <trkpt lat="43.61838" lon="3.41995">
        <ele>305</ele>
        <time>2017-11-12T13:36:59.000Z</time>
      </trkpt>
      <trkpt lat="43.61834" lon="3.4199">
        <ele>306</ele>
        <time>2017-11-12T13:37:01.000Z</time>
      </trkpt>
      <trkpt lat="43.61827" lon="3.41981">
        <ele>306</ele>
        <time>2017-11-12T13:37:03.000Z</time>
      </trkpt>
      <trkpt lat="43.61822" lon="3.4197">
        <ele>307</ele>
        <time>2017-11-12T13:37:07.000Z</time>
      </trkpt>
      <trkpt lat="43.61818" lon="3.41957">
        <ele>307</ele>
        <time>2017-11-12T13:37:11.000Z</time>
      </trkpt>
      <trkpt lat="43.61818" lon="3.4194">
        <ele>308</ele>
        <time>2017-11-12T13:37:17.000Z</time>
      </trkpt>
      <trkpt lat="43.61818" lon="3.4194">
        <ele>308</ele>
        <time>2017-11-12T13:37:19.000Z</time>
      </trkpt>
      <trkpt lat="43.61818" lon="3.41927">
        <ele>309</ele>
        <time>2017-11-12T13:37:21.000Z</time>
      </trkpt>
      <trkpt lat="43.61818" lon="3.41927">
        <ele>309</ele>
        <time>2017-11-12T13:37:23.000Z</time>
      </trkpt>
      <trkpt lat="43.61818" lon="3.41927">
        <ele>309</ele>
        <time>2017-11-12T13:37:26.000Z</time>
      </trkpt>
      <trkpt lat="43.61818" lon="3.41927">
        <ele>309</ele>
        <time>2017-11-12T13:37:27.000Z</time>
      </trkpt>
      <trkpt lat="43.61818" lon="3.41927">
        <ele>309</ele>
        <time>2017-11-12T13:37:29.000Z</time>
      </trkpt>
      <trkpt lat="43.61818" lon="3.41927">
        <ele>309</ele>
        <time>2017-11-12T13:37:31.000Z</time>
      </trkpt>
      <trkpt lat="43.61818" lon="3.41927">
        <ele>309</ele>
        <time>2017-11-12T13:37:33.000Z</time>
      </trkpt>
      <trkpt lat="43.61818" lon="3.41927">
        <ele>309</ele>
        <time>2017-11-12T13:37:35.000Z</time>
      </trkpt>
      <trkpt lat="43.61818" lon="3.41927">
        <ele>309</ele>
        <time>2017-11-12T13:37:37.000Z</time>
      </trkpt>
      <trkpt lat="43.61818" lon="3.41927">
        <ele>309</ele>
        <time>2017-11-12T13:37:39.000Z</time>
      </trkpt>
      <trkpt lat="43.61813" lon="3.41868">
        <ele>313</ele>
        <time>2017-11-12T13:37:43.000Z</time>
      </trkpt>
      <trkpt lat="43.61809" lon="3.41857">
        <ele>314</ele>
        <time>2017-11-12T13:37:47.000Z</time>
      </trkpt>
      <trkpt lat="43.61803" lon="3.41846">
        <ele>315</ele>
        <time>2017-11-12T13:37:51.000Z</time>
      </trkpt>
      <trkpt lat="43.61796" lon="3.41835">
        <ele>316</ele>
        <time>2017-11-12T13:37:55.000Z</time>
      </trkpt>
      <trkpt lat="43.61789" lon="3.41823">
        <ele>316</ele>
        <time>2017-11-12T13:37:59.000Z</time>
      </trkpt>
      <trkpt lat="43.61781" lon="3.41813">
        <ele>317</ele>
        <time>2017-11-12T13:38:03.000Z</time>
      </trkpt>
      <trkpt lat="43.61773" lon="3.41802">
        <ele>318</ele>
        <time>2017-11-12T13:38:07.000Z</time>
      </trkpt>
      <trkpt lat="43.61764" lon="3.41793">
        <ele>318</ele>
        <time>2017-11-12T13:38:11.000Z</time>
      </trkpt>
      <trkpt lat="43.61757" lon="3.41783">
        <ele>319</ele>
        <time>2017-11-12T13:38:15.000Z</time>
      </trkpt>
      <trkpt lat="43.61757" lon="3.41783">
        <ele>319</ele>
        <time>2017-11-12T13:38:17.000Z</time>
      </trkpt>
      <trkpt lat="43.61757" lon="3.41783">
        <ele>319</ele>
        <time>2017-11-12T13:38:19.000Z</time>
      </trkpt>
      <trkpt lat="43.61757" lon="3.41783">
        <ele>319</ele>
        <time>2017-11-12T13:38:21.000Z</time>
      </trkpt>
      <trkpt lat="43.61757" lon="3.41783">
        <ele>319</ele>
        <time>2017-11-12T13:38:23.000Z</time>
      </trkpt>
      <trkpt lat="43.61757" lon="3.41783">
        <ele>319</ele>
        <time>2017-11-12T13:38:31.000Z</time>
      </trkpt>
      <trkpt lat="43.61757" lon="3.41783">
        <ele>319</ele>
        <time>2017-11-12T13:38:33.000Z</time>
      </trkpt>
      <trkpt lat="43.61757" lon="3.41783">
        <ele>319</ele>
        <time>2017-11-12T13:38:35.000Z</time>
      </trkpt>
      <trkpt lat="43.61757" lon="3.41783">
        <ele>319</ele>
        <time>2017-11-12T13:38:37.000Z</time>
      </trkpt>
      <trkpt lat="43.61757" lon="3.41783">
        <ele>319</ele>
        <time>2017-11-12T13:38:39.000Z</time>
      </trkpt>
      <trkpt lat="43.61757" lon="3.41783">
        <ele>319</ele>
        <time>2017-11-12T13:38:41.000Z</time>
      </trkpt>
      <trkpt lat="43.61724" lon="3.41769">
        <ele>324</ele>
        <time>2017-11-12T13:38:47.000Z</time>
      </trkpt>
      <trkpt lat="43.61705" lon="3.41766">
        <ele>325</ele>
        <time>2017-11-12T13:38:49.000Z</time>
      </trkpt>
      <trkpt lat="43.61693" lon="3.41767">
        <ele>325</ele>
        <time>2017-11-12T13:38:51.000Z</time>
      </trkpt>
      <trkpt lat="43.61685" lon="3.4177">
        <ele>325</ele>
        <time>2017-11-12T13:38:53.000Z</time>
      </trkpt>
      <trkpt lat="43.61678" lon="3.41776">
        <ele>326</ele>
        <time>2017-11-12T13:38:55.000Z</time>
      </trkpt>
      <trkpt lat="43.61663" lon="3.41788">
        <ele>328</ele>
        <time>2017-11-12T13:38:57.000Z</time>
      </trkpt>
      <trkpt lat="43.61655" lon="3.41794">
        <ele>329</ele>
        <time>2017-11-12T13:38:59.000Z</time>
      </trkpt>
      <trkpt lat="43.61646" lon="3.41799">
        <ele>330</ele>
        <time>2017-11-12T13:39:01.000Z</time>
      </trkpt>
      <trkpt lat="43.61636" lon="3.41805">
        <ele>330</ele>
        <time>2017-11-12T13:39:03.000Z</time>
      </trkpt>
      <trkpt lat="43.61624" lon="3.41813">
        <ele>330</ele>
        <time>2017-11-12T13:39:05.000Z</time>
      </trkpt>
      <trkpt lat="43.61613" lon="3.41823">
        <ele>330</ele>
        <time>2017-11-12T13:39:08.000Z</time>
      </trkpt>
      <trkpt lat="43.61601" lon="3.41834">
        <ele>329</ele>
        <time>2017-11-12T13:39:09.000Z</time>
      </trkpt>
      <trkpt lat="43.6159" lon="3.41844">
        <ele>328</ele>
        <time>2017-11-12T13:39:11.000Z</time>
      </trkpt>
      <trkpt lat="43.61576" lon="3.41848">
        <ele>327</ele>
        <time>2017-11-12T13:39:13.000Z</time>
      </trkpt>
      <trkpt lat="43.61561" lon="3.41848">
        <ele>327</ele>
        <time>2017-11-12T13:39:15.000Z</time>
      </trkpt>
      <trkpt lat="43.61547" lon="3.4184">
        <ele>326</ele>
        <time>2017-11-12T13:39:17.000Z</time>
      </trkpt>
      <trkpt lat="43.61535" lon="3.41827">
        <ele>326</ele>
        <time>2017-11-12T13:39:19.000Z</time>
      </trkpt>
      <trkpt lat="43.61525" lon="3.4181">
        <ele>325</ele>
        <time>2017-11-12T13:39:21.000Z</time>
      </trkpt>
      <trkpt lat="43.61519" lon="3.41792">
        <ele>325</ele>
        <time>2017-11-12T13:39:23.000Z</time>
      </trkpt>
      <trkpt lat="43.61517" lon="3.41773">
        <ele>324</ele>
        <time>2017-11-12T13:39:25.000Z</time>
      </trkpt>
      <trkpt lat="43.61515" lon="3.41754">
        <ele>324</ele>
        <time>2017-11-12T13:39:27.000Z</time>
      </trkpt>
      <trkpt lat="43.61516" lon="3.41736">
        <ele>323</ele>
        <time>2017-11-12T13:39:29.000Z</time>
      </trkpt>
      <trkpt lat="43.61515" lon="3.41719">
        <ele>323</ele>
        <time>2017-11-12T13:39:31.000Z</time>
      </trkpt>
      <trkpt lat="43.61514" lon="3.41703">
        <ele>322</ele>
        <time>2017-11-12T13:39:33.000Z</time>
      </trkpt>
      <trkpt lat="43.61507" lon="3.41688">
        <ele>321</ele>
        <time>2017-11-12T13:39:35.000Z</time>
      </trkpt>
      <trkpt lat="43.61496" lon="3.41681">
        <ele>321</ele>
        <time>2017-11-12T13:39:37.000Z</time>
      </trkpt>
      <trkpt lat="43.61485" lon="3.41678">
        <ele>320</ele>
        <time>2017-11-12T13:39:39.000Z</time>
      </trkpt>
      <trkpt lat="43.61473" lon="3.41673">
        <ele>319</ele>
        <time>2017-11-12T13:39:41.000Z</time>
      </trkpt>
      <trkpt lat="43.61465" lon="3.41663">
        <ele>319</ele>
        <time>2017-11-12T13:39:43.000Z</time>
      </trkpt>
      <trkpt lat="43.6146" lon="3.4165">
        <ele>318</ele>
        <time>2017-11-12T13:39:45.000Z</time>
      </trkpt>
      <trkpt lat="43.6146" lon="3.4165">
        <ele>318</ele>
        <time>2017-11-12T13:39:47.000Z</time>
      </trkpt>
      <trkpt lat="43.6146" lon="3.4165">
        <ele>318</ele>
        <time>2017-11-12T13:39:49.000Z</time>
      </trkpt>
      <trkpt lat="43.6146" lon="3.4165">
        <ele>318</ele>
        <time>2017-11-12T13:39:51.000Z</time>
      </trkpt>
      <trkpt lat="43.61419" lon="3.41593">
        <ele>313</ele>
        <time>2017-11-12T13:39:57.000Z</time>
      </trkpt>
      <trkpt lat="43.61408" lon="3.41586">
        <ele>312</ele>
        <time>2017-11-12T13:39:59.000Z</time>
      </trkpt>
      <trkpt lat="43.61395" lon="3.4158">
        <ele>312</ele>
        <time>2017-11-12T13:40:02.000Z</time>
      </trkpt>
      <trkpt lat="43.61383" lon="3.41577">
        <ele>311</ele>
        <time>2017-11-12T13:40:03.000Z</time>
      </trkpt>
      <trkpt lat="43.61374" lon="3.41581">
        <ele>310</ele>
        <time>2017-11-12T13:40:05.000Z</time>
      </trkpt>
      <trkpt lat="43.61374" lon="3.41581">
        <ele>310</ele>
        <time>2017-11-12T13:40:07.000Z</time>
      </trkpt>
      <trkpt lat="43.61374" lon="3.41581">
        <ele>310</ele>
        <time>2017-11-12T13:40:09.000Z</time>
      </trkpt>
      <trkpt lat="43.61374" lon="3.41581">
        <ele>310</ele>
        <time>2017-11-12T13:40:11.000Z</time>
      </trkpt>
      <trkpt lat="43.6136" lon="3.41645">
        <ele>307</ele>
        <time>2017-11-12T13:40:17.000Z</time>
      </trkpt>
      <trkpt lat="43.61357" lon="3.41659">
        <ele>307</ele>
        <time>2017-11-12T13:40:19.000Z</time>
      </trkpt>
      <trkpt lat="43.61353" lon="3.41674">
        <ele>306</ele>
        <time>2017-11-12T13:40:21.000Z</time>
      </trkpt>
      <trkpt lat="43.61348" lon="3.41689">
        <ele>306</ele>
        <time>2017-11-12T13:40:23.000Z</time>
      </trkpt>
      <trkpt lat="43.61343" lon="3.41704">
        <ele>305</ele>
        <time>2017-11-12T13:40:25.000Z</time>
      </trkpt>
      <trkpt lat="43.61338" lon="3.41719">
        <ele>305</ele>
        <time>2017-11-12T13:40:27.000Z</time>
      </trkpt>
      <trkpt lat="43.61335" lon="3.41734">
        <ele>305</ele>
        <time>2017-11-12T13:40:29.000Z</time>
      </trkpt>
      <trkpt lat="43.61335" lon="3.41748">
        <ele>305</ele>
        <time>2017-11-12T13:40:31.000Z</time>
      </trkpt>
      <trkpt lat="43.61335" lon="3.41748">
        <ele>305</ele>
        <time>2017-11-12T13:40:33.000Z</time>
      </trkpt>
      <trkpt lat="43.61335" lon="3.41748">
        <ele>305</ele>
        <time>2017-11-12T13:40:35.000Z</time>
      </trkpt>
      <trkpt lat="43.61335" lon="3.41748">
        <ele>305</ele>
        <time>2017-11-12T13:40:37.000Z</time>
      </trkpt>
      <trkpt lat="43.61335" lon="3.41748">
        <ele>305</ele>
        <time>2017-11-12T13:40:39.000Z</time>
      </trkpt>
      <trkpt lat="43.61335" lon="3.41748">
        <ele>305</ele>
        <time>2017-11-12T13:40:41.000Z</time>
      </trkpt>
      <trkpt lat="43.61335" lon="3.41748">
        <ele>305</ele>
        <time>2017-11-12T13:40:43.000Z</time>
      </trkpt>
      <trkpt lat="43.61335" lon="3.41748">
        <ele>305</ele>
        <time>2017-11-12T13:40:45.000Z</time>
      </trkpt>
      <trkpt lat="43.61335" lon="3.41748">
        <ele>305</ele>
        <time>2017-11-12T13:40:47.000Z</time>
      </trkpt>
      <trkpt lat="43.61335" lon="3.41748">
        <ele>305</ele>
        <time>2017-11-12T13:40:49.000Z</time>
      </trkpt>
      <trkpt lat="43.61335" lon="3.41748">
        <ele>305</ele>
        <time>2017-11-12T13:40:51.000Z</time>
      </trkpt>
      <trkpt lat="43.61335" lon="3.41748">
        <ele>305</ele>
        <time>2017-11-12T13:40:53.000Z</time>
      </trkpt>
      <trkpt lat="43.61335" lon="3.41748">
        <ele>305</ele>
        <time>2017-11-12T13:40:55.000Z</time>
      </trkpt>
      <trkpt lat="43.61335" lon="3.41748">
        <ele>305</ele>
        <time>2017-11-12T13:40:57.000Z</time>
      </trkpt>
      <trkpt lat="43.61376" lon="3.41908">
        <ele>306</ele>
        <time>2017-11-12T13:41:03.000Z</time>
      </trkpt>
      <trkpt lat="43.61384" lon="3.41925">
        <ele>307</ele>
        <time>2017-11-12T13:41:07.000Z</time>
      </trkpt>
      <trkpt lat="43.61394" lon="3.41943">
        <ele>308</ele>
        <time>2017-11-12T13:41:11.000Z</time>
      </trkpt>
      <trkpt lat="43.61394" lon="3.41943">
        <ele>308</ele>
        <time>2017-11-12T13:41:13.000Z</time>
      </trkpt>
      <trkpt lat="43.61394" lon="3.41943">
        <ele>308</ele>
        <time>2017-11-12T13:41:15.000Z</time>
      </trkpt>
      <trkpt lat="43.61394" lon="3.41943">
        <ele>308</ele>
        <time>2017-11-12T13:41:17.000Z</time>
      </trkpt>
      <trkpt lat="43.61394" lon="3.41943">
        <ele>308</ele>
        <time>2017-11-12T13:41:19.000Z</time>
      </trkpt>
      <trkpt lat="43.61394" lon="3.41943">
        <ele>308</ele>
        <time>2017-11-12T13:41:21.000Z</time>
      </trkpt>
      <trkpt lat="43.61394" lon="3.41943">
        <ele>308</ele>
        <time>2017-11-12T13:41:23.000Z</time>
      </trkpt>
      <trkpt lat="43.61414" lon="3.41968">
        <ele>308</ele>
        <time>2017-11-12T13:41:28.000Z</time>
      </trkpt>
      <trkpt lat="43.61425" lon="3.41985">
        <ele>308</ele>
        <time>2017-11-12T13:41:29.000Z</time>
      </trkpt>
      <trkpt lat="43.61425" lon="3.41985">
        <ele>308</ele>
        <time>2017-11-12T13:41:31.000Z</time>
      </trkpt>
      <trkpt lat="43.61425" lon="3.41985">
        <ele>308</ele>
        <time>2017-11-12T13:41:33.000Z</time>
      </trkpt>
      <trkpt lat="43.61425" lon="3.41985">
        <ele>308</ele>
        <time>2017-11-12T13:41:35.000Z</time>
      </trkpt>
      <trkpt lat="43.61425" lon="3.41985">
        <ele>308</ele>
        <time>2017-11-12T13:41:37.000Z</time>
      </trkpt>
      <trkpt lat="43.61425" lon="3.41985">
        <ele>308</ele>
        <time>2017-11-12T13:41:39.000Z</time>
      </trkpt>
      <trkpt lat="43.61437" lon="3.42022">
        <ele>309</ele>
        <time>2017-11-12T13:41:43.000Z</time>
      </trkpt>
      <trkpt lat="43.61444" lon="3.42044">
        <ele>310</ele>
        <time>2017-11-12T13:41:45.000Z</time>
      </trkpt>
      <trkpt lat="43.61444" lon="3.42044">
        <ele>310</ele>
        <time>2017-11-12T13:41:48.000Z</time>
      </trkpt>
      <trkpt lat="43.61444" lon="3.42044">
        <ele>310</ele>
        <time>2017-11-12T13:41:49.000Z</time>
      </trkpt>
      <trkpt lat="43.61452" lon="3.42076">
        <ele>311</ele>
        <time>2017-11-12T13:41:55.000Z</time>
      </trkpt>
      <trkpt lat="43.61452" lon="3.42076">
        <ele>311</ele>
        <time>2017-11-12T13:41:57.000Z</time>
      </trkpt>
      <trkpt lat="43.61452" lon="3.42076">
        <ele>311</ele>
        <time>2017-11-12T13:41:59.000Z</time>
      </trkpt>
      <trkpt lat="43.61452" lon="3.42076">
        <ele>311</ele>
        <time>2017-11-12T13:42:01.000Z</time>
      </trkpt>
      <trkpt lat="43.61452" lon="3.42076">
        <ele>311</ele>
        <time>2017-11-12T13:42:03.000Z</time>
      </trkpt>
      <trkpt lat="43.61452" lon="3.42076">
        <ele>311</ele>
        <time>2017-11-12T13:42:05.000Z</time>
      </trkpt>
      <trkpt lat="43.61452" lon="3.42076">
        <ele>311</ele>
        <time>2017-11-12T13:42:11.000Z</time>
      </trkpt>
      <trkpt lat="43.61452" lon="3.42076">
        <ele>311</ele>
        <time>2017-11-12T13:42:13.000Z</time>
      </trkpt>
      <trkpt lat="43.61452" lon="3.42076">
        <ele>311</ele>
        <time>2017-11-12T13:42:15.000Z</time>
      </trkpt>
      <trkpt lat="43.61452" lon="3.42076">
        <ele>311</ele>
        <time>2017-11-12T13:42:17.000Z</time>
      </trkpt>
      <trkpt lat="43.61452" lon="3.42076">
        <ele>311</ele>
        <time>2017-11-12T13:42:19.000Z</time>
      </trkpt>
      <trkpt lat="43.61452" lon="3.42076">
        <ele>311</ele>
        <time>2017-11-12T13:42:21.000Z</time>
      </trkpt>
      <trkpt lat="43.61452" lon="3.42076">
        <ele>311</ele>
        <time>2017-11-12T13:42:23.000Z</time>
      </trkpt>
      <trkpt lat="43.61452" lon="3.42076">
        <ele>311</ele>
        <time>2017-11-12T13:42:25.000Z</time>
      </trkpt>
      <trkpt lat="43.61452" lon="3.42076">
        <ele>311</ele>
        <time>2017-11-12T13:42:27.000Z</time>
      </trkpt>
      <trkpt lat="43.61467" lon="3.42148">
        <ele>318</ele>
        <time>2017-11-12T13:42:31.000Z</time>
      </trkpt>
      <trkpt lat="43.61475" lon="3.42188">
        <ele>318</ele>
        <time>2017-11-12T13:42:33.000Z</time>
      </trkpt>
      <trkpt lat="43.61478" lon="3.42213">
        <ele>318</ele>
        <time>2017-11-12T13:42:35.000Z</time>
      </trkpt>
      <trkpt lat="43.61479" lon="3.4223">
        <ele>320</ele>
        <time>2017-11-12T13:42:37.000Z</time>
      </trkpt>
      <trkpt lat="43.6148" lon="3.42245">
        <ele>321</ele>
        <time>2017-11-12T13:42:39.000Z</time>
      </trkpt>
      <trkpt lat="43.61481" lon="3.42271">
        <ele>322</ele>
        <time>2017-11-12T13:42:41.000Z</time>
      </trkpt>
      <trkpt lat="43.61481" lon="3.42284">
        <ele>323</ele>
        <time>2017-11-12T13:42:43.000Z</time>
      </trkpt>
      <trkpt lat="43.61473" lon="3.423">
        <ele>323</ele>
        <time>2017-11-12T13:42:48.000Z</time>
      </trkpt>
      <trkpt lat="43.61466" lon="3.42307">
        <ele>322</ele>
        <time>2017-11-12T13:42:49.000Z</time>
      </trkpt>
      <trkpt lat="43.61456" lon="3.42314">
        <ele>321</ele>
        <time>2017-11-12T13:42:51.000Z</time>
      </trkpt>
      <trkpt lat="43.61447" lon="3.42321">
        <ele>320</ele>
        <time>2017-11-12T13:42:53.000Z</time>
      </trkpt>
      <trkpt lat="43.61447" lon="3.42321">
        <ele>320</ele>
        <time>2017-11-12T13:42:55.000Z</time>
      </trkpt>
      <trkpt lat="43.61447" lon="3.42321">
        <ele>320</ele>
        <time>2017-11-12T13:42:57.000Z</time>
      </trkpt>
      <trkpt lat="43.61447" lon="3.42321">
        <ele>320</ele>
        <time>2017-11-12T13:42:59.000Z</time>
      </trkpt>
      <trkpt lat="43.61447" lon="3.42321">
        <ele>320</ele>
        <time>2017-11-12T13:43:01.000Z</time>
      </trkpt>
      <trkpt lat="43.61447" lon="3.42321">
        <ele>320</ele>
        <time>2017-11-12T13:43:03.000Z</time>
      </trkpt>
      <trkpt lat="43.61447" lon="3.42321">
        <ele>320</ele>
        <time>2017-11-12T13:43:05.000Z</time>
      </trkpt>
      <trkpt lat="43.61447" lon="3.42321">
        <ele>320</ele>
        <time>2017-11-12T13:43:07.000Z</time>
      </trkpt>
      <trkpt lat="43.61447" lon="3.42321">
        <ele>320</ele>
        <time>2017-11-12T13:43:09.000Z</time>
      </trkpt>
      <trkpt lat="43.61447" lon="3.42321">
        <ele>320</ele>
        <time>2017-11-12T13:43:11.000Z</time>
      </trkpt>
      <trkpt lat="43.61389" lon="3.42306">
        <ele>311</ele>
        <time>2017-11-12T13:43:13.000Z</time>
      </trkpt>
      <trkpt lat="43.61375" lon="3.42309">
        <ele>306</ele>
        <time>2017-11-12T13:43:17.000Z</time>
      </trkpt>
      <trkpt lat="43.61366" lon="3.42308">
        <ele>305</ele>
        <time>2017-11-12T13:43:19.000Z</time>
      </trkpt>
      <trkpt lat="43.61357" lon="3.42324">
        <ele>304</ele>
        <time>2017-11-12T13:43:23.000Z</time>
      </trkpt>
      <trkpt lat="43.61357" lon="3.42324">
        <ele>304</ele>
        <time>2017-11-12T13:43:25.000Z</time>
      </trkpt>
      <trkpt lat="43.61357" lon="3.42324">
        <ele>304</ele>
        <time>2017-11-12T13:43:27.000Z</time>
      </trkpt>
      <trkpt lat="43.61357" lon="3.42324">
        <ele>304</ele>
        <time>2017-11-12T13:43:29.000Z</time>
      </trkpt>
      <trkpt lat="43.61357" lon="3.42324">
        <ele>304</ele>
        <time>2017-11-12T13:43:31.000Z</time>
      </trkpt>
      <trkpt lat="43.61357" lon="3.42324">
        <ele>304</ele>
        <time>2017-11-12T13:43:33.000Z</time>
      </trkpt>
      <trkpt lat="43.61357" lon="3.42324">
        <ele>304</ele>
        <time>2017-11-12T13:43:35.000Z</time>
      </trkpt>
      <trkpt lat="43.61357" lon="3.42324">
        <ele>304</ele>
        <time>2017-11-12T13:43:37.000Z</time>
      </trkpt>
      <trkpt lat="43.61357" lon="3.42324">
        <ele>304</ele>
        <time>2017-11-12T13:43:39.000Z</time>
      </trkpt>
      <trkpt lat="43.61357" lon="3.42324">
        <ele>304</ele>
        <time>2017-11-12T13:43:41.000Z</time>
      </trkpt>
      <trkpt lat="43.61357" lon="3.42324">
        <ele>304</ele>
        <time>2017-11-12T13:43:43.000Z</time>
      </trkpt>
      <trkpt lat="43.61312" lon="3.42372">
        <ele>297</ele>
        <time>2017-11-12T13:43:47.000Z</time>
      </trkpt>
      <trkpt lat="43.61302" lon="3.42382">
        <ele>292</ele>
        <time>2017-11-12T13:43:51.000Z</time>
      </trkpt>
      <trkpt lat="43.61302" lon="3.42382">
        <ele>292</ele>
        <time>2017-11-12T13:43:53.000Z</time>
      </trkpt>
      <trkpt lat="43.61302" lon="3.42382">
        <ele>292</ele>
        <time>2017-11-12T13:43:55.000Z</time>
      </trkpt>
      <trkpt lat="43.61288" lon="3.42386">
        <ele>284</ele>
        <time>2017-11-12T13:43:57.000Z</time>
      </trkpt>
      <trkpt lat="43.61282" lon="3.42396">
        <ele>278</ele>
        <time>2017-11-12T13:43:59.000Z</time>
      </trkpt>
      <trkpt lat="43.61275" lon="3.42405">
        <ele>274</ele>
        <time>2017-11-12T13:44:01.000Z</time>
      </trkpt>
      <trkpt lat="43.61268" lon="3.4242">
        <ele>270</ele>
        <time>2017-11-12T13:44:03.000Z</time>
      </trkpt>
      <trkpt lat="43.61261" lon="3.42436">
        <ele>267</ele>
        <time>2017-11-12T13:44:05.000Z</time>
      </trkpt>
      <trkpt lat="43.61256" lon="3.42446">
        <ele>267</ele>
        <time>2017-11-12T13:44:08.000Z</time>
      </trkpt>
      <trkpt lat="43.61256" lon="3.42446">
        <ele>267</ele>
        <time>2017-11-12T13:44:10.000Z</time>
      </trkpt>
      <trkpt lat="43.61256" lon="3.42446">
        <ele>267</ele>
        <time>2017-11-12T13:44:12.000Z</time>
      </trkpt>
      <trkpt lat="43.61244" lon="3.42483">
        <ele>260</ele>
        <time>2017-11-12T13:44:14.000Z</time>
      </trkpt>
      <trkpt lat="43.61236" lon="3.42499">
        <ele>258</ele>
        <time>2017-11-12T13:44:16.000Z</time>
      </trkpt>
      <trkpt lat="43.61227" lon="3.42516">
        <ele>255</ele>
        <time>2017-11-12T13:44:18.000Z</time>
      </trkpt>
      <trkpt lat="43.61217" lon="3.42533">
        <ele>253</ele>
        <time>2017-11-12T13:44:20.000Z</time>
      </trkpt>
      <trkpt lat="43.61207" lon="3.42549">
        <ele>251</ele>
        <time>2017-11-12T13:44:22.000Z</time>
      </trkpt>
      <trkpt lat="43.61196" lon="3.42565">
        <ele>250</ele>
        <time>2017-11-12T13:44:24.000Z</time>
      </trkpt>
      <trkpt lat="43.61183" lon="3.42577">
        <ele>249</ele>
        <time>2017-11-12T13:44:26.000Z</time>
      </trkpt>
      <trkpt lat="43.61174" lon="3.42588">
        <ele>248</ele>
        <time>2017-11-12T13:44:28.000Z</time>
      </trkpt>
      <trkpt lat="43.61172" lon="3.42601">
        <ele>246</ele>
        <time>2017-11-12T13:44:30.000Z</time>
      </trkpt>
      <trkpt lat="43.61172" lon="3.42601">
        <ele>246</ele>
        <time>2017-11-12T13:44:32.000Z</time>
      </trkpt>
      <trkpt lat="43.61172" lon="3.42601">
        <ele>246</ele>
        <time>2017-11-12T13:44:34.000Z</time>
      </trkpt>
      <trkpt lat="43.61172" lon="3.42601">
        <ele>246</ele>
        <time>2017-11-12T13:44:36.000Z</time>
      </trkpt>
      <trkpt lat="43.61172" lon="3.42601">
        <ele>246</ele>
        <time>2017-11-12T13:44:38.000Z</time>
      </trkpt>
      <trkpt lat="43.61172" lon="3.42601">
        <ele>246</ele>
        <time>2017-11-12T13:44:40.000Z</time>
      </trkpt>
      <trkpt lat="43.61172" lon="3.42601">
        <ele>246</ele>
        <time>2017-11-12T13:44:42.000Z</time>
      </trkpt>
      <trkpt lat="43.61172" lon="3.42601">
        <ele>246</ele>
        <time>2017-11-12T13:44:44.000Z</time>
      </trkpt>
      <trkpt lat="43.61172" lon="3.42601">
        <ele>246</ele>
        <time>2017-11-12T13:44:46.000Z</time>
      </trkpt>
      <trkpt lat="43.61172" lon="3.42601">
        <ele>246</ele>
        <time>2017-11-12T13:44:48.000Z</time>
      </trkpt>
      <trkpt lat="43.61172" lon="3.42601">
        <ele>246</ele>
        <time>2017-11-12T13:44:50.000Z</time>
      </trkpt>
      <trkpt lat="43.61172" lon="3.42601">
        <ele>246</ele>
        <time>2017-11-12T13:44:52.000Z</time>
      </trkpt>
      <trkpt lat="43.61172" lon="3.42601">
        <ele>246</ele>
        <time>2017-11-12T13:44:54.000Z</time>
      </trkpt>
      <trkpt lat="43.61148" lon="3.42634">
        <ele>243</ele>
        <time>2017-11-12T13:44:58.000Z</time>
      </trkpt>
      <trkpt lat="43.61134" lon="3.42653">
        <ele>243</ele>
        <time>2017-11-12T13:45:00.000Z</time>
      </trkpt>
      <trkpt lat="43.61124" lon="3.42663">
        <ele>243</ele>
        <time>2017-11-12T13:45:02.000Z</time>
      </trkpt>
      <trkpt lat="43.61118" lon="3.42671">
        <ele>242</ele>
        <time>2017-11-12T13:45:04.000Z</time>
      </trkpt>
      <trkpt lat="43.61112" lon="3.42677">
        <ele>242</ele>
        <time>2017-11-12T13:45:06.000Z</time>
      </trkpt>
      <trkpt lat="43.61112" lon="3.42677">
        <ele>242</ele>
        <time>2017-11-12T13:45:08.000Z</time>
      </trkpt>
      <trkpt lat="43.61112" lon="3.42677">
        <ele>242</ele>
        <time>2017-11-12T13:45:10.000Z</time>
      </trkpt>
      <trkpt lat="43.61112" lon="3.42677">
        <ele>242</ele>
        <time>2017-11-12T13:45:14.000Z</time>
      </trkpt>
      <trkpt lat="43.61112" lon="3.42677">
        <ele>242</ele>
        <time>2017-11-12T13:45:16.000Z</time>
      </trkpt>
      <trkpt lat="43.6109" lon="3.4271">
        <ele>242</ele>
        <time>2017-11-12T13:45:18.000Z</time>
      </trkpt>
      <trkpt lat="43.61082" lon="3.4272">
        <ele>242</ele>
        <time>2017-11-12T13:45:22.000Z</time>
      </trkpt>
      <trkpt lat="43.61082" lon="3.4272">
        <ele>242</ele>
        <time>2017-11-12T13:45:26.000Z</time>
      </trkpt>
      <trkpt lat="43.61082" lon="3.4272">
        <ele>242</ele>
        <time>2017-11-12T13:45:28.000Z</time>
      </trkpt>
      <trkpt lat="43.61069" lon="3.42742">
        <ele>242</ele>
        <time>2017-11-12T13:45:32.000Z</time>
      </trkpt>
      <trkpt lat="43.61066" lon="3.42754">
        <ele>242</ele>
        <time>2017-11-12T13:45:36.000Z</time>
      </trkpt>
      <trkpt lat="43.61061" lon="3.42765">
        <ele>242</ele>
        <time>2017-11-12T13:45:40.000Z</time>
      </trkpt>
      <trkpt lat="43.61054" lon="3.42776">
        <ele>242</ele>
        <time>2017-11-12T13:45:44.000Z</time>
      </trkpt>
      <trkpt lat="43.61047" lon="3.42786">
        <ele>242</ele>
        <time>2017-11-12T13:45:48.000Z</time>
      </trkpt>
      <trkpt lat="43.61047" lon="3.42786">
        <ele>242</ele>
        <time>2017-11-12T13:45:50.000Z</time>
      </trkpt>
      <trkpt lat="43.61038" lon="3.42797">
        <ele>242</ele>
        <time>2017-11-12T13:45:52.000Z</time>
      </trkpt>
      <trkpt lat="43.61031" lon="3.42813">
        <ele>242</ele>
        <time>2017-11-12T13:45:56.000Z</time>
      </trkpt>
      <trkpt lat="43.61024" lon="3.42829">
        <ele>242</ele>
        <time>2017-11-12T13:46:00.000Z</time>
      </trkpt>
      <trkpt lat="43.61014" lon="3.42845">
        <ele>242</ele>
        <time>2017-11-12T13:46:04.000Z</time>
      </trkpt>
      <trkpt lat="43.61005" lon="3.4286">
        <ele>242</ele>
        <time>2017-11-12T13:46:08.000Z</time>
      </trkpt>
      <trkpt lat="43.61005" lon="3.4286">
        <ele>242</ele>
        <time>2017-11-12T13:46:10.000Z</time>
      </trkpt>
      <trkpt lat="43.61005" lon="3.4286">
        <ele>242</ele>
        <time>2017-11-12T13:46:12.000Z</time>
      </trkpt>
      <trkpt lat="43.60987" lon="3.42877">
        <ele>241</ele>
        <time>2017-11-12T13:46:14.000Z</time>
      </trkpt>
      <trkpt lat="43.60978" lon="3.42882">
        <ele>240</ele>
        <time>2017-11-12T13:46:16.000Z</time>
      </trkpt>
      <trkpt lat="43.60968" lon="3.42889">
        <ele>240</ele>
        <time>2017-11-12T13:46:18.000Z</time>
      </trkpt>
      <trkpt lat="43.60962" lon="3.42903">
        <ele>239</ele>
        <time>2017-11-12T13:46:20.000Z</time>
      </trkpt>
      <trkpt lat="43.60949" lon="3.42914">
        <ele>238</ele>
        <time>2017-11-12T13:46:24.000Z</time>
      </trkpt>
      <trkpt lat="43.60937" lon="3.42921">
        <ele>236</ele>
        <time>2017-11-12T13:46:26.000Z</time>
      </trkpt>
      <trkpt lat="43.60926" lon="3.42928">
        <ele>235</ele>
        <time>2017-11-12T13:46:28.000Z</time>
      </trkpt>
      <trkpt lat="43.60917" lon="3.4294">
        <ele>234</ele>
        <time>2017-11-12T13:46:30.000Z</time>
      </trkpt>
      <trkpt lat="43.60907" lon="3.4295">
        <ele>232</ele>
        <time>2017-11-12T13:46:32.000Z</time>
      </trkpt>
      <trkpt lat="43.60898" lon="3.42957">
        <ele>231</ele>
        <time>2017-11-12T13:46:34.000Z</time>
      </trkpt>
      <trkpt lat="43.60898" lon="3.42957">
        <ele>231</ele>
        <time>2017-11-12T13:46:36.000Z</time>
      </trkpt>
      <trkpt lat="43.60898" lon="3.42957">
        <ele>231</ele>
        <time>2017-11-12T13:46:38.000Z</time>
      </trkpt>
      <trkpt lat="43.60898" lon="3.42957">
        <ele>231</ele>
        <time>2017-11-12T13:46:40.000Z</time>
      </trkpt>
      <trkpt lat="43.60898" lon="3.42957">
        <ele>231</ele>
        <time>2017-11-12T13:46:42.000Z</time>
      </trkpt>
      <trkpt lat="43.60898" lon="3.42957">
        <ele>231</ele>
        <time>2017-11-12T13:46:50.000Z</time>
      </trkpt>
      <trkpt lat="43.60898" lon="3.42957">
        <ele>231</ele>
        <time>2017-11-12T13:46:52.000Z</time>
      </trkpt>
      <trkpt lat="43.60864" lon="3.42964">
        <ele>222</ele>
        <time>2017-11-12T13:46:56.000Z</time>
      </trkpt>
      <trkpt lat="43.60844" lon="3.42966">
        <ele>221</ele>
        <time>2017-11-12T13:46:58.000Z</time>
      </trkpt>
      <trkpt lat="43.60831" lon="3.42967">
        <ele>221</ele>
        <time>2017-11-12T13:47:00.000Z</time>
      </trkpt>
      <trkpt lat="43.60822" lon="3.42965">
        <ele>221</ele>
        <time>2017-11-12T13:47:02.000Z</time>
      </trkpt>
      <trkpt lat="43.60817" lon="3.4296">
        <ele>220</ele>
        <time>2017-11-12T13:47:04.000Z</time>
      </trkpt>
      <trkpt lat="43.60817" lon="3.4296">
        <ele>220</ele>
        <time>2017-11-12T13:47:06.000Z</time>
      </trkpt>
      <trkpt lat="43.60817" lon="3.4296">
        <ele>220</ele>
        <time>2017-11-12T13:47:08.000Z</time>
      </trkpt>
      <trkpt lat="43.60817" lon="3.4296">
        <ele>220</ele>
        <time>2017-11-12T13:47:10.000Z</time>
      </trkpt>
      <trkpt lat="43.60817" lon="3.4296">
        <ele>220</ele>
        <time>2017-11-12T13:47:12.000Z</time>
      </trkpt>
      <trkpt lat="43.60817" lon="3.4296">
        <ele>220</ele>
        <time>2017-11-12T13:47:14.000Z</time>
      </trkpt>
      <trkpt lat="43.60793" lon="3.42965">
        <ele>216</ele>
        <time>2017-11-12T13:47:18.000Z</time>
      </trkpt>
      <trkpt lat="43.60793" lon="3.42965">
        <ele>216</ele>
        <time>2017-11-12T13:47:20.000Z</time>
      </trkpt>
      <trkpt lat="43.60793" lon="3.42965">
        <ele>216</ele>
        <time>2017-11-12T13:47:22.000Z</time>
      </trkpt>
      <trkpt lat="43.60793" lon="3.42965">
        <ele>216</ele>
        <time>2017-11-12T13:47:24.000Z</time>
      </trkpt>
      <trkpt lat="43.60793" lon="3.42965">
        <ele>216</ele>
        <time>2017-11-12T13:47:26.000Z</time>
      </trkpt>
      <trkpt lat="43.60776" lon="3.42955">
        <ele>213</ele>
        <time>2017-11-12T13:47:30.000Z</time>
      </trkpt>
      <trkpt lat="43.60766" lon="3.42955">
        <ele>211</ele>
        <time>2017-11-12T13:47:34.000Z</time>
      </trkpt>
      <trkpt lat="43.60766" lon="3.42955">
        <ele>211</ele>
        <time>2017-11-12T13:47:36.000Z</time>
      </trkpt>
      <trkpt lat="43.60766" lon="3.42955">
        <ele>211</ele>
        <time>2017-11-12T13:47:38.000Z</time>
      </trkpt>
      <trkpt lat="43.60766" lon="3.42955">
        <ele>211</ele>
        <time>2017-11-12T13:47:40.000Z</time>
      </trkpt>
      <trkpt lat="43.60766" lon="3.42955">
        <ele>211</ele>
        <time>2017-11-12T13:47:42.000Z</time>
      </trkpt>
      <trkpt lat="43.60743" lon="3.42954">
        <ele>207</ele>
        <time>2017-11-12T13:47:46.000Z</time>
      </trkpt>
      <trkpt lat="43.60736" lon="3.42967">
        <ele>205</ele>
        <time>2017-11-12T13:47:52.000Z</time>
      </trkpt>
      <trkpt lat="43.60732" lon="3.42983">
        <ele>203</ele>
        <time>2017-11-12T13:47:58.000Z</time>
      </trkpt>
      <trkpt lat="43.60739" lon="3.43001">
        <ele>196</ele>
        <time>2017-11-12T13:48:02.000Z</time>
      </trkpt>
      <trkpt lat="43.6074" lon="3.43027">
        <ele>191</ele>
        <time>2017-11-12T13:48:06.000Z</time>
      </trkpt>
      <trkpt lat="43.60742" lon="3.43043">
        <ele>188</ele>
        <time>2017-11-12T13:48:08.000Z</time>
      </trkpt>
      <trkpt lat="43.60745" lon="3.4306">
        <ele>186</ele>
        <time>2017-11-12T13:48:10.000Z</time>
      </trkpt>
      <trkpt lat="43.60745" lon="3.4306">
        <ele>186</ele>
        <time>2017-11-12T13:48:12.000Z</time>
      </trkpt>
      <trkpt lat="43.60751" lon="3.43082">
        <ele>184</ele>
        <time>2017-11-12T13:48:14.000Z</time>
      </trkpt>
      <trkpt lat="43.60751" lon="3.43082">
        <ele>184</ele>
        <time>2017-11-12T13:48:16.000Z</time>
      </trkpt>
      <trkpt lat="43.60751" lon="3.43082">
        <ele>184</ele>
        <time>2017-11-12T13:48:18.000Z</time>
      </trkpt>
      <trkpt lat="43.60751" lon="3.43082">
        <ele>184</ele>
        <time>2017-11-12T13:48:20.000Z</time>
      </trkpt>
      <trkpt lat="43.60751" lon="3.43082">
        <ele>184</ele>
        <time>2017-11-12T13:48:23.000Z</time>
      </trkpt>
      <trkpt lat="43.60746" lon="3.43079">
        <ele>183</ele>
        <time>2017-11-12T13:48:31.000Z</time>
      </trkpt>
      <trkpt lat="43.60746" lon="3.43079">
        <ele>183</ele>
        <time>2017-11-12T13:48:33.000Z</time>
      </trkpt>
      <trkpt lat="43.60746" lon="3.43079">
        <ele>183</ele>
        <time>2017-11-12T13:48:35.000Z</time>
      </trkpt>
      <trkpt lat="43.60746" lon="3.43079">
        <ele>183</ele>
        <time>2017-11-12T13:48:39.000Z</time>
      </trkpt>
      <trkpt lat="43.60751" lon="3.43088">
        <ele>185</ele>
        <time>2017-11-12T13:48:47.000Z</time>
      </trkpt>
      <trkpt lat="43.60755" lon="3.43094">
        <ele>185</ele>
        <time>2017-11-12T13:48:49.000Z</time>
      </trkpt>
      <trkpt lat="43.60759" lon="3.43099">
        <ele>186</ele>
        <time>2017-11-12T13:48:51.000Z</time>
      </trkpt>
      <trkpt lat="43.60764" lon="3.43103">
        <ele>186</ele>
        <time>2017-11-12T13:48:53.000Z</time>
      </trkpt>
      <trkpt lat="43.6077" lon="3.43107">
        <ele>186</ele>
        <time>2017-11-12T13:48:55.000Z</time>
      </trkpt>
      <trkpt lat="43.60781" lon="3.43116">
        <ele>186</ele>
        <time>2017-11-12T13:48:57.000Z</time>
      </trkpt>
      <trkpt lat="43.60792" lon="3.43126">
        <ele>187</ele>
        <time>2017-11-12T13:49:01.000Z</time>
      </trkpt>
      <trkpt lat="43.60792" lon="3.43126">
        <ele>187</ele>
        <time>2017-11-12T13:49:03.000Z</time>
      </trkpt>
      <trkpt lat="43.60802" lon="3.43136">
        <ele>187</ele>
        <time>2017-11-12T13:49:05.000Z</time>
      </trkpt>
      <trkpt lat="43.60802" lon="3.43136">
        <ele>187</ele>
        <time>2017-11-12T13:49:07.000Z</time>
      </trkpt>
      <trkpt lat="43.60802" lon="3.43136">
        <ele>187</ele>
        <time>2017-11-12T13:49:09.000Z</time>
      </trkpt>
      <trkpt lat="43.60802" lon="3.43136">
        <ele>187</ele>
        <time>2017-11-12T13:49:11.000Z</time>
      </trkpt>
      <trkpt lat="43.60802" lon="3.43136">
        <ele>187</ele>
        <time>2017-11-12T13:49:13.000Z</time>
      </trkpt>
      <trkpt lat="43.60835" lon="3.43159">
        <ele>188</ele>
        <time>2017-11-12T13:49:17.000Z</time>
      </trkpt>
      <trkpt lat="43.60835" lon="3.43159">
        <ele>188</ele>
        <time>2017-11-12T13:49:21.000Z</time>
      </trkpt>
      <trkpt lat="43.60835" lon="3.43159">
        <ele>188</ele>
        <time>2017-11-12T13:49:23.000Z</time>
      </trkpt>
      <trkpt lat="43.60835" lon="3.43159">
        <ele>188</ele>
        <time>2017-11-12T13:49:25.000Z</time>
      </trkpt>
      <trkpt lat="43.60835" lon="3.43159">
        <ele>188</ele>
        <time>2017-11-12T13:49:27.000Z</time>
      </trkpt>
      <trkpt lat="43.60835" lon="3.43159">
        <ele>188</ele>
        <time>2017-11-12T13:49:29.000Z</time>
      </trkpt>
      <trkpt lat="43.60835" lon="3.43159">
        <ele>188</ele>
        <time>2017-11-12T13:49:31.000Z</time>
      </trkpt>
      <trkpt lat="43.60835" lon="3.43159">
        <ele>188</ele>
        <time>2017-11-12T13:49:33.000Z</time>
      </trkpt>
      <trkpt lat="43.60835" lon="3.43159">
        <ele>188</ele>
        <time>2017-11-12T13:49:35.000Z</time>
      </trkpt>
      <trkpt lat="43.60835" lon="3.43159">
        <ele>188</ele>
        <time>2017-11-12T13:49:37.000Z</time>
      </trkpt>
      <trkpt lat="43.60835" lon="3.43159">
        <ele>188</ele>
        <time>2017-11-12T13:49:39.000Z</time>
      </trkpt>
      <trkpt lat="43.60885" lon="3.43201">
        <ele>188</ele>
        <time>2017-11-12T13:49:41.000Z</time>
      </trkpt>
      <trkpt lat="43.6088" lon="3.43216">
        <ele>187</ele>
        <time>2017-11-12T13:49:43.000Z</time>
      </trkpt>
      <trkpt lat="43.60873" lon="3.4323">
        <ele>186</ele>
        <time>2017-11-12T13:49:45.000Z</time>
      </trkpt>
      <trkpt lat="43.60864" lon="3.43247">
        <ele>184</ele>
        <time>2017-11-12T13:49:47.000Z</time>
      </trkpt>
      <trkpt lat="43.60855" lon="3.43267">
        <ele>183</ele>
        <time>2017-11-12T13:49:49.000Z</time>
      </trkpt>
      <trkpt lat="43.60849" lon="3.43291">
        <ele>182</ele>
        <time>2017-11-12T13:49:51.000Z</time>
      </trkpt>
      <trkpt lat="43.60847" lon="3.43317">
        <ele>180</ele>
        <time>2017-11-12T13:49:53.000Z</time>
      </trkpt>
      <trkpt lat="43.60854" lon="3.43344">
        <ele>179</ele>
        <time>2017-11-12T13:49:55.000Z</time>
      </trkpt>
      <trkpt lat="43.60861" lon="3.43371">
        <ele>179</ele>
        <time>2017-11-12T13:49:57.000Z</time>
      </trkpt>
      <trkpt lat="43.60865" lon="3.43399">
        <ele>178</ele>
        <time>2017-11-12T13:49:59.000Z</time>
      </trkpt>
      <trkpt lat="43.60865" lon="3.43425">
        <ele>177</ele>
        <time>2017-11-12T13:50:01.000Z</time>
      </trkpt>
      <trkpt lat="43.60864" lon="3.43447">
        <ele>177</ele>
        <time>2017-11-12T13:50:03.000Z</time>
      </trkpt>
      <trkpt lat="43.60871" lon="3.43466">
        <ele>176</ele>
        <time>2017-11-12T13:50:05.000Z</time>
      </trkpt>
      <trkpt lat="43.60881" lon="3.43481">
        <ele>175</ele>
        <time>2017-11-12T13:50:07.000Z</time>
      </trkpt>
      <trkpt lat="43.60883" lon="3.43498">
        <ele>174</ele>
        <time>2017-11-12T13:50:09.000Z</time>
      </trkpt>
      <trkpt lat="43.60885" lon="3.43511">
        <ele>174</ele>
        <time>2017-11-12T13:50:11.000Z</time>
      </trkpt>
      <trkpt lat="43.60885" lon="3.43511">
        <ele>174</ele>
        <time>2017-11-12T13:50:15.000Z</time>
      </trkpt>
    </trkseg>
  </trk>
</gpx>